<?xml version="1.0" encoding="UTF-8" standalone="no" ?>
<gpx xmlns="http://www.topografix.com/GPX/1/1" xmlns:xsi="http://www.w3.org/2001/XMLSchema-instance" xsi:schemaLocation="http://www.topografix.com/GPX/1/1 http://www.topografix.com/GPX/1/1/gpx.xsd" version="1.1" creator="VisuGPX - https://www.visugpx.com">
  <metadata>
    <name>Tour du Viso</name>
    <desc><![CDATA[5 jours autour du Viso ]]></desc>
  </metadata>
  <trk>
    <name><![CDATA[14 juil. 2022]]></name>
    <desc><![CDATA[comment ...]]></desc>
    <extensions>
      <line xmlns="http://www.topografix.com/GPX/gpx_style/0/2">
        <color>FF0000</color>
        <width>4</width>
      </line>
    </extensions>
    <trkseg>
      <trkpt lat="44.66581" lon="7.10997">
        <ele>2657</ele>
        <time>2022-07-14T05:57:58Z</time>
      </trkpt>
      <trkpt lat="44.66581" lon="7.10997">
        <ele>2657</ele>
        <time>2022-07-14T05:57:59Z</time>
      </trkpt>
      <trkpt lat="44.66582" lon="7.10986">
        <ele>2654</ele>
        <time>2022-07-14T05:58:24Z</time>
      </trkpt>
      <trkpt lat="44.66578" lon="7.10971">
        <ele>2653</ele>
        <time>2022-07-14T05:58:49Z</time>
      </trkpt>
      <trkpt lat="44.66579" lon="7.10965">
        <ele>2654</ele>
        <time>2022-07-14T05:58:54Z</time>
      </trkpt>
      <trkpt lat="44.66578" lon="7.10959">
        <ele>2654</ele>
        <time>2022-07-14T05:59:02Z</time>
      </trkpt>
      <trkpt lat="44.66578" lon="7.10954">
        <ele>2654</ele>
        <time>2022-07-14T05:59:08Z</time>
      </trkpt>
      <trkpt lat="44.6658" lon="7.1095">
        <ele>2653</ele>
        <time>2022-07-14T05:59:15Z</time>
      </trkpt>
      <trkpt lat="44.66587" lon="7.10938">
        <ele>2652</ele>
        <time>2022-07-14T05:59:40Z</time>
      </trkpt>
      <trkpt lat="44.66589" lon="7.10934">
        <ele>2651</ele>
        <time>2022-07-14T05:59:45Z</time>
      </trkpt>
      <trkpt lat="44.66591" lon="7.1093">
        <ele>2650</ele>
        <time>2022-07-14T05:59:49Z</time>
      </trkpt>
      <trkpt lat="44.66596" lon="7.10922">
        <ele>2649</ele>
        <time>2022-07-14T05:59:57Z</time>
      </trkpt>
      <trkpt lat="44.666" lon="7.1092">
        <ele>2648</ele>
        <time>2022-07-14T06:00:01Z</time>
      </trkpt>
      <trkpt lat="44.66603" lon="7.10917">
        <ele>2648</ele>
        <time>2022-07-14T06:00:05Z</time>
      </trkpt>
      <trkpt lat="44.66606" lon="7.10913">
        <ele>2648</ele>
        <time>2022-07-14T06:00:10Z</time>
      </trkpt>
      <trkpt lat="44.66608" lon="7.10908">
        <ele>2647</ele>
        <time>2022-07-14T06:00:14Z</time>
      </trkpt>
      <trkpt lat="44.66611" lon="7.10906">
        <ele>2647</ele>
        <time>2022-07-14T06:00:18Z</time>
      </trkpt>
      <trkpt lat="44.66614" lon="7.10904">
        <ele>2646</ele>
        <time>2022-07-14T06:00:23Z</time>
      </trkpt>
      <trkpt lat="44.66621" lon="7.109">
        <ele>2645</ele>
        <time>2022-07-14T06:00:32Z</time>
      </trkpt>
      <trkpt lat="44.66625" lon="7.10898">
        <ele>2644</ele>
        <time>2022-07-14T06:00:36Z</time>
      </trkpt>
      <trkpt lat="44.66632" lon="7.10894">
        <ele>2643</ele>
        <time>2022-07-14T06:00:44Z</time>
      </trkpt>
      <trkpt lat="44.66641" lon="7.10882">
        <ele>2642</ele>
        <time>2022-07-14T06:00:56Z</time>
      </trkpt>
      <trkpt lat="44.66648" lon="7.10862">
        <ele>2642</ele>
        <time>2022-07-14T06:01:13Z</time>
      </trkpt>
      <trkpt lat="44.66648" lon="7.10856">
        <ele>2642</ele>
        <time>2022-07-14T06:01:17Z</time>
      </trkpt>
      <trkpt lat="44.66649" lon="7.10851">
        <ele>2642</ele>
        <time>2022-07-14T06:01:21Z</time>
      </trkpt>
      <trkpt lat="44.66649" lon="7.10845">
        <ele>2642</ele>
        <time>2022-07-14T06:01:25Z</time>
      </trkpt>
      <trkpt lat="44.66648" lon="7.1084">
        <ele>2642</ele>
        <time>2022-07-14T06:01:29Z</time>
      </trkpt>
      <trkpt lat="44.6665" lon="7.10822">
        <ele>2642</ele>
        <time>2022-07-14T06:01:44Z</time>
      </trkpt>
      <trkpt lat="44.66652" lon="7.10809">
        <ele>2641</ele>
        <time>2022-07-14T06:01:53Z</time>
      </trkpt>
      <trkpt lat="44.66677" lon="7.1077">
        <ele>2639</ele>
        <time>2022-07-14T06:02:26Z</time>
      </trkpt>
      <trkpt lat="44.66685" lon="7.10761">
        <ele>2639</ele>
        <time>2022-07-14T06:02:36Z</time>
      </trkpt>
      <trkpt lat="44.66695" lon="7.10746">
        <ele>2638</ele>
        <time>2022-07-14T06:02:49Z</time>
      </trkpt>
      <trkpt lat="44.66705" lon="7.10737">
        <ele>2638</ele>
        <time>2022-07-14T06:03:01Z</time>
      </trkpt>
      <trkpt lat="44.66707" lon="7.10733">
        <ele>2638</ele>
        <time>2022-07-14T06:03:05Z</time>
      </trkpt>
      <trkpt lat="44.66711" lon="7.10725">
        <ele>2638</ele>
        <time>2022-07-14T06:03:12Z</time>
      </trkpt>
      <trkpt lat="44.66714" lon="7.10721">
        <ele>2638</ele>
        <time>2022-07-14T06:03:15Z</time>
      </trkpt>
      <trkpt lat="44.66717" lon="7.10721">
        <ele>2639</ele>
        <time>2022-07-14T06:03:24Z</time>
      </trkpt>
      <trkpt lat="44.66721" lon="7.10718">
        <ele>2639</ele>
        <time>2022-07-14T06:03:28Z</time>
      </trkpt>
      <trkpt lat="44.66728" lon="7.1071">
        <ele>2639</ele>
        <time>2022-07-14T06:03:36Z</time>
      </trkpt>
      <trkpt lat="44.6673" lon="7.10705">
        <ele>2639</ele>
        <time>2022-07-14T06:03:40Z</time>
      </trkpt>
      <trkpt lat="44.66733" lon="7.10702">
        <ele>2639</ele>
        <time>2022-07-14T06:03:44Z</time>
      </trkpt>
      <trkpt lat="44.66743" lon="7.10694">
        <ele>2641</ele>
        <time>2022-07-14T06:03:57Z</time>
      </trkpt>
      <trkpt lat="44.66748" lon="7.10687">
        <ele>2643</ele>
        <time>2022-07-14T06:04:08Z</time>
      </trkpt>
      <trkpt lat="44.66752" lon="7.10686">
        <ele>2643</ele>
        <time>2022-07-14T06:04:14Z</time>
      </trkpt>
      <trkpt lat="44.66754" lon="7.10682">
        <ele>2644</ele>
        <time>2022-07-14T06:04:19Z</time>
      </trkpt>
      <trkpt lat="44.6676" lon="7.10676">
        <ele>2644</ele>
        <time>2022-07-14T06:04:30Z</time>
      </trkpt>
      <trkpt lat="44.66764" lon="7.10673">
        <ele>2645</ele>
        <time>2022-07-14T06:04:36Z</time>
      </trkpt>
      <trkpt lat="44.66769" lon="7.10666">
        <ele>2646</ele>
        <time>2022-07-14T06:04:47Z</time>
      </trkpt>
      <trkpt lat="44.66773" lon="7.10664">
        <ele>2647</ele>
        <time>2022-07-14T06:04:52Z</time>
      </trkpt>
      <trkpt lat="44.66777" lon="7.10664">
        <ele>2648</ele>
        <time>2022-07-14T06:04:57Z</time>
      </trkpt>
      <trkpt lat="44.66787" lon="7.10657">
        <ele>2649</ele>
        <time>2022-07-14T06:05:15Z</time>
      </trkpt>
      <trkpt lat="44.66789" lon="7.10651">
        <ele>2650</ele>
        <time>2022-07-14T06:05:20Z</time>
      </trkpt>
      <trkpt lat="44.66793" lon="7.1065">
        <ele>2651</ele>
        <time>2022-07-14T06:05:24Z</time>
      </trkpt>
      <trkpt lat="44.66796" lon="7.10652">
        <ele>2655</ele>
        <time>2022-07-14T06:06:06Z</time>
      </trkpt>
      <trkpt lat="44.66793" lon="7.10651">
        <ele>2656</ele>
        <time>2022-07-14T06:06:52Z</time>
      </trkpt>
      <trkpt lat="44.66796" lon="7.10647">
        <ele>2656</ele>
        <time>2022-07-14T06:06:55Z</time>
      </trkpt>
      <trkpt lat="44.668" lon="7.10645">
        <ele>2656</ele>
        <time>2022-07-14T06:06:58Z</time>
      </trkpt>
      <trkpt lat="44.66803" lon="7.10641">
        <ele>2656</ele>
        <time>2022-07-14T06:07:02Z</time>
      </trkpt>
      <trkpt lat="44.66804" lon="7.10637">
        <ele>2658</ele>
        <time>2022-07-14T06:07:06Z</time>
      </trkpt>
      <trkpt lat="44.66807" lon="7.10632">
        <ele>2661</ele>
        <time>2022-07-14T06:07:11Z</time>
      </trkpt>
      <trkpt lat="44.66809" lon="7.10628">
        <ele>2662</ele>
        <time>2022-07-14T06:07:15Z</time>
      </trkpt>
      <trkpt lat="44.66812" lon="7.10624">
        <ele>2662</ele>
        <time>2022-07-14T06:07:20Z</time>
      </trkpt>
      <trkpt lat="44.66812" lon="7.10618">
        <ele>2662</ele>
        <time>2022-07-14T06:07:27Z</time>
      </trkpt>
      <trkpt lat="44.66814" lon="7.10613">
        <ele>2661</ele>
        <time>2022-07-14T06:07:35Z</time>
      </trkpt>
      <trkpt lat="44.66816" lon="7.10609">
        <ele>2662</ele>
        <time>2022-07-14T06:07:42Z</time>
      </trkpt>
      <trkpt lat="44.66819" lon="7.10606">
        <ele>2665</ele>
        <time>2022-07-14T06:07:47Z</time>
      </trkpt>
      <trkpt lat="44.66822" lon="7.10602">
        <ele>2665</ele>
        <time>2022-07-14T06:07:54Z</time>
      </trkpt>
      <trkpt lat="44.66825" lon="7.10601">
        <ele>2665</ele>
        <time>2022-07-14T06:08:00Z</time>
      </trkpt>
      <trkpt lat="44.66829" lon="7.106">
        <ele>2665</ele>
        <time>2022-07-14T06:08:06Z</time>
      </trkpt>
      <trkpt lat="44.66832" lon="7.10598">
        <ele>2666</ele>
        <time>2022-07-14T06:08:12Z</time>
      </trkpt>
      <trkpt lat="44.66834" lon="7.10592">
        <ele>2667</ele>
        <time>2022-07-14T06:08:19Z</time>
      </trkpt>
      <trkpt lat="44.66833" lon="7.10587">
        <ele>2668</ele>
        <time>2022-07-14T06:08:24Z</time>
      </trkpt>
      <trkpt lat="44.66836" lon="7.10584">
        <ele>2668</ele>
        <time>2022-07-14T06:08:32Z</time>
      </trkpt>
      <trkpt lat="44.66847" lon="7.10581">
        <ele>2670</ele>
        <time>2022-07-14T06:08:49Z</time>
      </trkpt>
      <trkpt lat="44.66854" lon="7.1058">
        <ele>2672</ele>
        <time>2022-07-14T06:09:01Z</time>
      </trkpt>
      <trkpt lat="44.66862" lon="7.10584">
        <ele>2674</ele>
        <time>2022-07-14T06:09:14Z</time>
      </trkpt>
      <trkpt lat="44.66865" lon="7.10588">
        <ele>2675</ele>
        <time>2022-07-14T06:09:21Z</time>
      </trkpt>
      <trkpt lat="44.66869" lon="7.10591">
        <ele>2674</ele>
        <time>2022-07-14T06:09:30Z</time>
      </trkpt>
      <trkpt lat="44.66872" lon="7.10589">
        <ele>2676</ele>
        <time>2022-07-14T06:09:36Z</time>
      </trkpt>
      <trkpt lat="44.66875" lon="7.10592">
        <ele>2679</ele>
        <time>2022-07-14T06:09:44Z</time>
      </trkpt>
      <trkpt lat="44.66879" lon="7.10591">
        <ele>2681</ele>
        <time>2022-07-14T06:09:50Z</time>
      </trkpt>
      <trkpt lat="44.66879" lon="7.10596">
        <ele>2682</ele>
        <time>2022-07-14T06:10:04Z</time>
      </trkpt>
      <trkpt lat="44.66878" lon="7.106">
        <ele>2684</ele>
        <time>2022-07-14T06:10:13Z</time>
      </trkpt>
      <trkpt lat="44.66874" lon="7.10603">
        <ele>2685</ele>
        <time>2022-07-14T06:10:20Z</time>
      </trkpt>
      <trkpt lat="44.66874" lon="7.10608">
        <ele>2687</ele>
        <time>2022-07-14T06:10:31Z</time>
      </trkpt>
      <trkpt lat="44.66875" lon="7.10613">
        <ele>2688</ele>
        <time>2022-07-14T06:10:37Z</time>
      </trkpt>
      <trkpt lat="44.66879" lon="7.10614">
        <ele>2688</ele>
        <time>2022-07-14T06:10:42Z</time>
      </trkpt>
      <trkpt lat="44.66886" lon="7.10617">
        <ele>2689</ele>
        <time>2022-07-14T06:11:00Z</time>
      </trkpt>
      <trkpt lat="44.66893" lon="7.10613">
        <ele>2694</ele>
        <time>2022-07-14T06:11:14Z</time>
      </trkpt>
      <trkpt lat="44.66905" lon="7.10608">
        <ele>2696</ele>
        <time>2022-07-14T06:11:34Z</time>
      </trkpt>
      <trkpt lat="44.66909" lon="7.10607">
        <ele>2699</ele>
        <time>2022-07-14T06:11:40Z</time>
      </trkpt>
      <trkpt lat="44.66913" lon="7.10606">
        <ele>2699</ele>
        <time>2022-07-14T06:11:45Z</time>
      </trkpt>
      <trkpt lat="44.66917" lon="7.10607">
        <ele>2700</ele>
        <time>2022-07-14T06:11:52Z</time>
      </trkpt>
      <trkpt lat="44.6692" lon="7.10606">
        <ele>2700</ele>
        <time>2022-07-14T06:12:01Z</time>
      </trkpt>
      <trkpt lat="44.66924" lon="7.10607">
        <ele>2700</ele>
        <time>2022-07-14T06:12:11Z</time>
      </trkpt>
      <trkpt lat="44.66926" lon="7.10611">
        <ele>2700</ele>
        <time>2022-07-14T06:12:30Z</time>
      </trkpt>
      <trkpt lat="44.6693" lon="7.10612">
        <ele>2701</ele>
        <time>2022-07-14T06:12:38Z</time>
      </trkpt>
      <trkpt lat="44.66933" lon="7.10612">
        <ele>2701</ele>
        <time>2022-07-14T06:12:44Z</time>
      </trkpt>
      <trkpt lat="44.66934" lon="7.10617">
        <ele>2703</ele>
        <time>2022-07-14T06:12:54Z</time>
      </trkpt>
      <trkpt lat="44.66933" lon="7.10622">
        <ele>2704</ele>
        <time>2022-07-14T06:13:02Z</time>
      </trkpt>
      <trkpt lat="44.66936" lon="7.10624">
        <ele>2705</ele>
        <time>2022-07-14T06:13:11Z</time>
      </trkpt>
      <trkpt lat="44.66939" lon="7.10626">
        <ele>2703</ele>
        <time>2022-07-14T06:13:20Z</time>
      </trkpt>
      <trkpt lat="44.66943" lon="7.10624">
        <ele>2702</ele>
        <time>2022-07-14T06:13:26Z</time>
      </trkpt>
      <trkpt lat="44.66947" lon="7.10623">
        <ele>2701</ele>
        <time>2022-07-14T06:13:32Z</time>
      </trkpt>
      <trkpt lat="44.6695" lon="7.10624">
        <ele>2701</ele>
        <time>2022-07-14T06:13:38Z</time>
      </trkpt>
      <trkpt lat="44.66953" lon="7.10621">
        <ele>2702</ele>
        <time>2022-07-14T06:13:46Z</time>
      </trkpt>
      <trkpt lat="44.66957" lon="7.10619">
        <ele>2702</ele>
        <time>2022-07-14T06:13:54Z</time>
      </trkpt>
      <trkpt lat="44.66959" lon="7.10615">
        <ele>2706</ele>
        <time>2022-07-14T06:14:01Z</time>
      </trkpt>
      <trkpt lat="44.66962" lon="7.10613">
        <ele>2707</ele>
        <time>2022-07-14T06:14:08Z</time>
      </trkpt>
      <trkpt lat="44.66967" lon="7.10614">
        <ele>2709</ele>
        <time>2022-07-14T06:14:20Z</time>
      </trkpt>
      <trkpt lat="44.66971" lon="7.10613">
        <ele>2709</ele>
        <time>2022-07-14T06:14:27Z</time>
      </trkpt>
      <trkpt lat="44.66974" lon="7.1061">
        <ele>2710</ele>
        <time>2022-07-14T06:14:33Z</time>
      </trkpt>
      <trkpt lat="44.66977" lon="7.10608">
        <ele>2711</ele>
        <time>2022-07-14T06:14:41Z</time>
      </trkpt>
      <trkpt lat="44.6698" lon="7.10605">
        <ele>2714</ele>
        <time>2022-07-14T06:14:48Z</time>
      </trkpt>
      <trkpt lat="44.66984" lon="7.10605">
        <ele>2714</ele>
        <time>2022-07-14T06:14:56Z</time>
      </trkpt>
      <trkpt lat="44.66989" lon="7.10613">
        <ele>2717</ele>
        <time>2022-07-14T06:15:15Z</time>
      </trkpt>
      <trkpt lat="44.66988" lon="7.10618">
        <ele>2718</ele>
        <time>2022-07-14T06:15:24Z</time>
      </trkpt>
      <trkpt lat="44.66989" lon="7.10622">
        <ele>2720</ele>
        <time>2022-07-14T06:15:35Z</time>
      </trkpt>
      <trkpt lat="44.66994" lon="7.10623">
        <ele>2721</ele>
        <time>2022-07-14T06:15:48Z</time>
      </trkpt>
      <trkpt lat="44.66997" lon="7.10621">
        <ele>2723</ele>
        <time>2022-07-14T06:15:55Z</time>
      </trkpt>
      <trkpt lat="44.66999" lon="7.10617">
        <ele>2725</ele>
        <time>2022-07-14T06:16:03Z</time>
      </trkpt>
      <trkpt lat="44.67002" lon="7.1062">
        <ele>2726</ele>
        <time>2022-07-14T06:16:12Z</time>
      </trkpt>
      <trkpt lat="44.67007" lon="7.10612">
        <ele>2727</ele>
        <time>2022-07-14T06:16:25Z</time>
      </trkpt>
      <trkpt lat="44.67015" lon="7.10614">
        <ele>2728</ele>
        <time>2022-07-14T06:16:41Z</time>
      </trkpt>
      <trkpt lat="44.67018" lon="7.10616">
        <ele>2729</ele>
        <time>2022-07-14T06:16:48Z</time>
      </trkpt>
      <trkpt lat="44.67021" lon="7.10619">
        <ele>2730</ele>
        <time>2022-07-14T06:17:03Z</time>
      </trkpt>
      <trkpt lat="44.67025" lon="7.10621">
        <ele>2730</ele>
        <time>2022-07-14T06:17:14Z</time>
      </trkpt>
      <trkpt lat="44.67028" lon="7.1062">
        <ele>2731</ele>
        <time>2022-07-14T06:17:29Z</time>
      </trkpt>
      <trkpt lat="44.67032" lon="7.10623">
        <ele>2734</ele>
        <time>2022-07-14T06:17:36Z</time>
      </trkpt>
      <trkpt lat="44.67034" lon="7.1062">
        <ele>2735</ele>
        <time>2022-07-14T06:17:42Z</time>
      </trkpt>
      <trkpt lat="44.67038" lon="7.1062">
        <ele>2738</ele>
        <time>2022-07-14T06:17:51Z</time>
      </trkpt>
      <trkpt lat="44.6704" lon="7.10624">
        <ele>2738</ele>
        <time>2022-07-14T06:17:58Z</time>
      </trkpt>
      <trkpt lat="44.67043" lon="7.10625">
        <ele>2740</ele>
        <time>2022-07-14T06:18:05Z</time>
      </trkpt>
      <trkpt lat="44.67042" lon="7.1063">
        <ele>2739</ele>
        <time>2022-07-14T06:18:12Z</time>
      </trkpt>
      <trkpt lat="44.67046" lon="7.10631">
        <ele>2740</ele>
        <time>2022-07-14T06:18:23Z</time>
      </trkpt>
      <trkpt lat="44.67049" lon="7.10631">
        <ele>2743</ele>
        <time>2022-07-14T06:18:31Z</time>
      </trkpt>
      <trkpt lat="44.67052" lon="7.10629">
        <ele>2743</ele>
        <time>2022-07-14T06:18:36Z</time>
      </trkpt>
      <trkpt lat="44.6706" lon="7.1063">
        <ele>2744</ele>
        <time>2022-07-14T06:18:54Z</time>
      </trkpt>
      <trkpt lat="44.67066" lon="7.10634">
        <ele>2746</ele>
        <time>2022-07-14T06:19:12Z</time>
      </trkpt>
      <trkpt lat="44.67063" lon="7.10643">
        <ele>2752</ele>
        <time>2022-07-14T06:19:41Z</time>
      </trkpt>
      <trkpt lat="44.67062" lon="7.10648">
        <ele>2756</ele>
        <time>2022-07-14T06:19:52Z</time>
      </trkpt>
      <trkpt lat="44.67062" lon="7.10653">
        <ele>2756</ele>
        <time>2022-07-14T06:20:00Z</time>
      </trkpt>
      <trkpt lat="44.67065" lon="7.10656">
        <ele>2756</ele>
        <time>2022-07-14T06:20:08Z</time>
      </trkpt>
      <trkpt lat="44.67068" lon="7.10655">
        <ele>2757</ele>
        <time>2022-07-14T06:20:15Z</time>
      </trkpt>
      <trkpt lat="44.67072" lon="7.10656">
        <ele>2759</ele>
        <time>2022-07-14T06:20:24Z</time>
      </trkpt>
      <trkpt lat="44.67075" lon="7.10657">
        <ele>2759</ele>
        <time>2022-07-14T06:20:33Z</time>
      </trkpt>
      <trkpt lat="44.67079" lon="7.10656">
        <ele>2761</ele>
        <time>2022-07-14T06:20:40Z</time>
      </trkpt>
      <trkpt lat="44.67078" lon="7.10662">
        <ele>2763</ele>
        <time>2022-07-14T06:20:59Z</time>
      </trkpt>
      <trkpt lat="44.67079" lon="7.10668">
        <ele>2767</ele>
        <time>2022-07-14T06:21:13Z</time>
      </trkpt>
      <trkpt lat="44.67075" lon="7.10669">
        <ele>2771</ele>
        <time>2022-07-14T06:21:24Z</time>
      </trkpt>
      <trkpt lat="44.67077" lon="7.10674">
        <ele>2771</ele>
        <time>2022-07-14T06:21:32Z</time>
      </trkpt>
      <trkpt lat="44.67078" lon="7.10678">
        <ele>2772</ele>
        <time>2022-07-14T06:21:40Z</time>
      </trkpt>
      <trkpt lat="44.67077" lon="7.10683">
        <ele>2773</ele>
        <time>2022-07-14T06:21:54Z</time>
      </trkpt>
      <trkpt lat="44.6708" lon="7.10686">
        <ele>2774</ele>
        <time>2022-07-14T06:22:00Z</time>
      </trkpt>
      <trkpt lat="44.67084" lon="7.10686">
        <ele>2775</ele>
        <time>2022-07-14T06:22:07Z</time>
      </trkpt>
      <trkpt lat="44.67087" lon="7.1069">
        <ele>2778</ele>
        <time>2022-07-14T06:22:27Z</time>
      </trkpt>
      <trkpt lat="44.6709" lon="7.10692">
        <ele>2779</ele>
        <time>2022-07-14T06:22:37Z</time>
      </trkpt>
      <trkpt lat="44.67094" lon="7.1069">
        <ele>2779</ele>
        <time>2022-07-14T06:22:43Z</time>
      </trkpt>
      <trkpt lat="44.67098" lon="7.1069">
        <ele>2779</ele>
        <time>2022-07-14T06:22:57Z</time>
      </trkpt>
      <trkpt lat="44.67101" lon="7.10691">
        <ele>2780</ele>
        <time>2022-07-14T06:23:05Z</time>
      </trkpt>
      <trkpt lat="44.67104" lon="7.10694">
        <ele>2785</ele>
        <time>2022-07-14T06:23:33Z</time>
      </trkpt>
      <trkpt lat="44.67108" lon="7.10695">
        <ele>2787</ele>
        <time>2022-07-14T06:23:41Z</time>
      </trkpt>
      <trkpt lat="44.67109" lon="7.10697">
        <ele>2791</ele>
        <time>2022-07-14T06:24:03Z</time>
      </trkpt>
      <trkpt lat="44.67109" lon="7.10702">
        <ele>2792</ele>
        <time>2022-07-14T06:24:09Z</time>
      </trkpt>
      <trkpt lat="44.67106" lon="7.10705">
        <ele>2794</ele>
        <time>2022-07-14T06:24:23Z</time>
      </trkpt>
      <trkpt lat="44.67105" lon="7.10709">
        <ele>2800</ele>
        <time>2022-07-14T06:24:33Z</time>
      </trkpt>
      <trkpt lat="44.67103" lon="7.10713">
        <ele>2800</ele>
        <time>2022-07-14T06:24:43Z</time>
      </trkpt>
      <trkpt lat="44.67105" lon="7.1072">
        <ele>2801</ele>
        <time>2022-07-14T06:24:52Z</time>
      </trkpt>
      <trkpt lat="44.67108" lon="7.10722">
        <ele>2802</ele>
        <time>2022-07-14T06:24:56Z</time>
      </trkpt>
      <trkpt lat="44.67108" lon="7.10727">
        <ele>2803</ele>
        <time>2022-07-14T06:25:05Z</time>
      </trkpt>
      <trkpt lat="44.67112" lon="7.10728">
        <ele>2803</ele>
        <time>2022-07-14T06:25:18Z</time>
      </trkpt>
      <trkpt lat="44.67116" lon="7.10729">
        <ele>2803</ele>
        <time>2022-07-14T06:25:23Z</time>
      </trkpt>
      <trkpt lat="44.67119" lon="7.1073">
        <ele>2803</ele>
        <time>2022-07-14T06:25:34Z</time>
      </trkpt>
      <trkpt lat="44.67123" lon="7.10732">
        <ele>2805</ele>
        <time>2022-07-14T06:25:46Z</time>
      </trkpt>
      <trkpt lat="44.67127" lon="7.10732">
        <ele>2807</ele>
        <time>2022-07-14T06:26:07Z</time>
      </trkpt>
      <trkpt lat="44.67126" lon="7.10737">
        <ele>2807</ele>
        <time>2022-07-14T06:26:16Z</time>
      </trkpt>
      <trkpt lat="44.67122" lon="7.10736">
        <ele>2809</ele>
        <time>2022-07-14T06:26:25Z</time>
      </trkpt>
      <trkpt lat="44.67118" lon="7.10738">
        <ele>2811</ele>
        <time>2022-07-14T06:26:37Z</time>
      </trkpt>
      <trkpt lat="44.67118" lon="7.10743">
        <ele>2818</ele>
        <time>2022-07-14T06:26:51Z</time>
      </trkpt>
      <trkpt lat="44.67119" lon="7.10748">
        <ele>2820</ele>
        <time>2022-07-14T06:27:08Z</time>
      </trkpt>
      <trkpt lat="44.67121" lon="7.10752">
        <ele>2823</ele>
        <time>2022-07-14T06:27:14Z</time>
      </trkpt>
      <trkpt lat="44.67124" lon="7.10756">
        <ele>2823</ele>
        <time>2022-07-14T06:27:18Z</time>
      </trkpt>
      <trkpt lat="44.67126" lon="7.10761">
        <ele>2822</ele>
        <time>2022-07-14T06:27:24Z</time>
      </trkpt>
      <trkpt lat="44.67128" lon="7.10765">
        <ele>2823</ele>
        <time>2022-07-14T06:27:53Z</time>
      </trkpt>
      <trkpt lat="44.67131" lon="7.10769">
        <ele>2829</ele>
        <time>2022-07-14T06:28:11Z</time>
      </trkpt>
      <trkpt lat="44.67135" lon="7.10767">
        <ele>2831</ele>
        <time>2022-07-14T06:28:38Z</time>
      </trkpt>
      <trkpt lat="44.67135" lon="7.10773">
        <ele>2832</ele>
        <time>2022-07-14T06:28:46Z</time>
      </trkpt>
      <trkpt lat="44.67139" lon="7.10773">
        <ele>2832</ele>
        <time>2022-07-14T06:28:51Z</time>
      </trkpt>
      <trkpt lat="44.67143" lon="7.10773">
        <ele>2836</ele>
        <time>2022-07-14T06:29:20Z</time>
      </trkpt>
      <trkpt lat="44.67146" lon="7.10776">
        <ele>2836</ele>
        <time>2022-07-14T06:29:22Z</time>
      </trkpt>
      <trkpt lat="44.67147" lon="7.10781">
        <ele>2835</ele>
        <time>2022-07-14T06:29:32Z</time>
      </trkpt>
      <trkpt lat="44.6715" lon="7.10785">
        <ele>2838</ele>
        <time>2022-07-14T06:30:01Z</time>
      </trkpt>
      <trkpt lat="44.67153" lon="7.10787">
        <ele>2840</ele>
        <time>2022-07-14T06:30:06Z</time>
      </trkpt>
      <trkpt lat="44.67157" lon="7.10787">
        <ele>2842</ele>
        <time>2022-07-14T06:30:25Z</time>
      </trkpt>
      <trkpt lat="44.6716" lon="7.10788">
        <ele>2841</ele>
        <time>2022-07-14T06:30:36Z</time>
      </trkpt>
      <trkpt lat="44.67163" lon="7.10791">
        <ele>2848</ele>
        <time>2022-07-14T06:31:19Z</time>
      </trkpt>
      <trkpt lat="44.67162" lon="7.10797">
        <ele>2850</ele>
        <time>2022-07-14T06:31:24Z</time>
      </trkpt>
      <trkpt lat="44.67166" lon="7.10796">
        <ele>2851</ele>
        <time>2022-07-14T06:31:27Z</time>
      </trkpt>
      <trkpt lat="44.6717" lon="7.10797">
        <ele>2856</ele>
        <time>2022-07-14T06:31:42Z</time>
      </trkpt>
      <trkpt lat="44.67173" lon="7.10797">
        <ele>2859</ele>
        <time>2022-07-14T06:31:57Z</time>
      </trkpt>
      <trkpt lat="44.67182" lon="7.10803">
        <ele>2862</ele>
        <time>2022-07-14T06:32:04Z</time>
      </trkpt>
      <trkpt lat="44.67181" lon="7.10807">
        <ele>2862</ele>
        <time>2022-07-14T06:32:20Z</time>
      </trkpt>
      <trkpt lat="44.67184" lon="7.10808">
        <ele>2862</ele>
        <time>2022-07-14T06:32:32Z</time>
      </trkpt>
      <trkpt lat="44.67188" lon="7.1081">
        <ele>2863</ele>
        <time>2022-07-14T06:32:37Z</time>
      </trkpt>
      <trkpt lat="44.67192" lon="7.10812">
        <ele>2868</ele>
        <time>2022-07-14T06:33:23Z</time>
      </trkpt>
      <trkpt lat="44.67195" lon="7.10814">
        <ele>2871</ele>
        <time>2022-07-14T06:33:34Z</time>
      </trkpt>
      <trkpt lat="44.67199" lon="7.10813">
        <ele>2872</ele>
        <time>2022-07-14T06:33:38Z</time>
      </trkpt>
      <trkpt lat="44.672" lon="7.10809">
        <ele>2875</ele>
        <time>2022-07-14T06:34:02Z</time>
      </trkpt>
      <trkpt lat="44.67197" lon="7.10806">
        <ele>2877</ele>
        <time>2022-07-14T06:34:12Z</time>
      </trkpt>
      <trkpt lat="44.67195" lon="7.10809">
        <ele>2879</ele>
        <time>2022-07-14T06:34:26Z</time>
      </trkpt>
      <trkpt lat="44.67196" lon="7.10815">
        <ele>2880</ele>
        <time>2022-07-14T06:34:33Z</time>
      </trkpt>
      <trkpt lat="44.67199" lon="7.10818">
        <ele>2880</ele>
        <time>2022-07-14T06:34:48Z</time>
      </trkpt>
      <trkpt lat="44.67202" lon="7.10818">
        <ele>2880</ele>
        <time>2022-07-14T06:34:52Z</time>
      </trkpt>
      <trkpt lat="44.67204" lon="7.10822">
        <ele>2880</ele>
        <time>2022-07-14T06:34:59Z</time>
      </trkpt>
      <trkpt lat="44.67207" lon="7.1082">
        <ele>2882</ele>
        <time>2022-07-14T06:35:03Z</time>
      </trkpt>
      <trkpt lat="44.67211" lon="7.10821">
        <ele>2883</ele>
        <time>2022-07-14T06:35:07Z</time>
      </trkpt>
      <trkpt lat="44.67215" lon="7.10822">
        <ele>2883</ele>
        <time>2022-07-14T06:35:12Z</time>
      </trkpt>
      <trkpt lat="44.67214" lon="7.10823">
        <ele>2885</ele>
        <time>2022-07-14T06:35:35Z</time>
      </trkpt>
      <trkpt lat="44.67213" lon="7.10828">
        <ele>2885</ele>
        <time>2022-07-14T06:35:47Z</time>
      </trkpt>
      <trkpt lat="44.67217" lon="7.10829">
        <ele>2883</ele>
        <time>2022-07-14T06:35:51Z</time>
      </trkpt>
      <trkpt lat="44.6722" lon="7.10832">
        <ele>2885</ele>
        <time>2022-07-14T06:35:58Z</time>
      </trkpt>
      <trkpt lat="44.67222" lon="7.1083">
        <ele>2886</ele>
        <time>2022-07-14T06:36:09Z</time>
      </trkpt>
      <trkpt lat="44.67225" lon="7.10828">
        <ele>2886</ele>
        <time>2022-07-14T06:36:15Z</time>
      </trkpt>
      <trkpt lat="44.67228" lon="7.10831">
        <ele>2886</ele>
        <time>2022-07-14T06:36:30Z</time>
      </trkpt>
      <trkpt lat="44.67232" lon="7.10831">
        <ele>2887</ele>
        <time>2022-07-14T06:36:37Z</time>
      </trkpt>
      <trkpt lat="44.67236" lon="7.10832">
        <ele>2888</ele>
        <time>2022-07-14T06:36:42Z</time>
      </trkpt>
      <trkpt lat="44.67239" lon="7.10829">
        <ele>2892</ele>
        <time>2022-07-14T06:36:47Z</time>
      </trkpt>
      <trkpt lat="44.67242" lon="7.10826">
        <ele>2894</ele>
        <time>2022-07-14T06:36:59Z</time>
      </trkpt>
      <trkpt lat="44.67244" lon="7.10822">
        <ele>2898</ele>
        <time>2022-07-14T06:37:04Z</time>
      </trkpt>
      <trkpt lat="44.67247" lon="7.10824">
        <ele>2902</ele>
        <time>2022-07-14T06:37:30Z</time>
      </trkpt>
      <trkpt lat="44.6725" lon="7.10822">
        <ele>2905</ele>
        <time>2022-07-14T06:37:38Z</time>
      </trkpt>
      <trkpt lat="44.67254" lon="7.1082">
        <ele>2906</ele>
        <time>2022-07-14T06:37:45Z</time>
      </trkpt>
      <trkpt lat="44.67253" lon="7.10815">
        <ele>2914</ele>
        <time>2022-07-14T06:37:59Z</time>
      </trkpt>
      <trkpt lat="44.67251" lon="7.10818">
        <ele>2916</ele>
        <time>2022-07-14T06:38:07Z</time>
      </trkpt>
      <trkpt lat="44.67254" lon="7.10817">
        <ele>2918</ele>
        <time>2022-07-14T06:38:33Z</time>
      </trkpt>
      <trkpt lat="44.67256" lon="7.10821">
        <ele>2918</ele>
        <time>2022-07-14T06:38:40Z</time>
      </trkpt>
      <trkpt lat="44.67257" lon="7.10826">
        <ele>2918</ele>
        <time>2022-07-14T06:38:46Z</time>
      </trkpt>
      <trkpt lat="44.67258" lon="7.10831">
        <ele>2922</ele>
        <time>2022-07-14T06:38:52Z</time>
      </trkpt>
      <trkpt lat="44.67261" lon="7.10829">
        <ele>2924</ele>
        <time>2022-07-14T06:39:28Z</time>
      </trkpt>
      <trkpt lat="44.67264" lon="7.10834">
        <ele>2924</ele>
        <time>2022-07-14T06:39:39Z</time>
      </trkpt>
      <trkpt lat="44.67267" lon="7.10839">
        <ele>2925</ele>
        <time>2022-07-14T06:39:51Z</time>
      </trkpt>
      <trkpt lat="44.67263" lon="7.1084">
        <ele>2926</ele>
        <time>2022-07-14T06:39:56Z</time>
      </trkpt>
      <trkpt lat="44.67262" lon="7.10842">
        <ele>2928</ele>
        <time>2022-07-14T06:40:20Z</time>
      </trkpt>
      <trkpt lat="44.67266" lon="7.10851">
        <ele>2927</ele>
        <time>2022-07-14T06:41:02Z</time>
      </trkpt>
      <trkpt lat="44.67268" lon="7.10855">
        <ele>2928</ele>
        <time>2022-07-14T06:41:06Z</time>
      </trkpt>
      <trkpt lat="44.67271" lon="7.10854">
        <ele>2927</ele>
        <time>2022-07-14T06:41:14Z</time>
      </trkpt>
      <trkpt lat="44.67273" lon="7.1085">
        <ele>2929</ele>
        <time>2022-07-14T06:41:33Z</time>
      </trkpt>
      <trkpt lat="44.67276" lon="7.10846">
        <ele>2935</ele>
        <time>2022-07-14T06:41:46Z</time>
      </trkpt>
      <trkpt lat="44.67279" lon="7.10845">
        <ele>2938</ele>
        <time>2022-07-14T06:42:28Z</time>
      </trkpt>
      <trkpt lat="44.67283" lon="7.10842">
        <ele>2939</ele>
        <time>2022-07-14T06:42:39Z</time>
      </trkpt>
      <trkpt lat="44.67286" lon="7.10845">
        <ele>2940</ele>
        <time>2022-07-14T06:42:50Z</time>
      </trkpt>
      <trkpt lat="44.67287" lon="7.1085">
        <ele>2942</ele>
        <time>2022-07-14T06:43:00Z</time>
      </trkpt>
      <trkpt lat="44.67282" lon="7.10859">
        <ele>2943</ele>
        <time>2022-07-14T06:43:12Z</time>
      </trkpt>
      <trkpt lat="44.67283" lon="7.10864">
        <ele>2944</ele>
        <time>2022-07-14T06:43:21Z</time>
      </trkpt>
      <trkpt lat="44.67286" lon="7.10866">
        <ele>2944</ele>
        <time>2022-07-14T06:43:35Z</time>
      </trkpt>
      <trkpt lat="44.6729" lon="7.10867">
        <ele>2946</ele>
        <time>2022-07-14T06:43:50Z</time>
      </trkpt>
      <trkpt lat="44.67293" lon="7.10867">
        <ele>2948</ele>
        <time>2022-07-14T06:44:00Z</time>
      </trkpt>
      <trkpt lat="44.67294" lon="7.10872">
        <ele>2949</ele>
        <time>2022-07-14T06:44:08Z</time>
      </trkpt>
      <trkpt lat="44.67295" lon="7.10878">
        <ele>2949</ele>
        <time>2022-07-14T06:44:16Z</time>
      </trkpt>
      <trkpt lat="44.67301" lon="7.10884">
        <ele>2956</ele>
        <time>2022-07-14T06:44:44Z</time>
      </trkpt>
      <trkpt lat="44.673" lon="7.10889">
        <ele>2957</ele>
        <time>2022-07-14T06:44:55Z</time>
      </trkpt>
      <trkpt lat="44.67301" lon="7.10894">
        <ele>2958</ele>
        <time>2022-07-14T06:45:18Z</time>
      </trkpt>
      <trkpt lat="44.67304" lon="7.1089">
        <ele>2959</ele>
        <time>2022-07-14T06:45:47Z</time>
      </trkpt>
      <trkpt lat="44.67307" lon="7.10887">
        <ele>2961</ele>
        <time>2022-07-14T06:45:53Z</time>
      </trkpt>
      <trkpt lat="44.6731" lon="7.10885">
        <ele>2962</ele>
        <time>2022-07-14T06:46:00Z</time>
      </trkpt>
      <trkpt lat="44.67314" lon="7.10884">
        <ele>2963</ele>
        <time>2022-07-14T06:46:08Z</time>
      </trkpt>
      <trkpt lat="44.67317" lon="7.10883">
        <ele>2963</ele>
        <time>2022-07-14T06:46:16Z</time>
      </trkpt>
      <trkpt lat="44.6732" lon="7.10886">
        <ele>2965</ele>
        <time>2022-07-14T06:46:30Z</time>
      </trkpt>
      <trkpt lat="44.67321" lon="7.10891">
        <ele>2966</ele>
        <time>2022-07-14T06:46:40Z</time>
      </trkpt>
      <trkpt lat="44.67322" lon="7.10895">
        <ele>2968</ele>
        <time>2022-07-14T06:46:52Z</time>
      </trkpt>
      <trkpt lat="44.67322" lon="7.10896">
        <ele>2968</ele>
        <time>2022-07-14T06:47:13Z</time>
      </trkpt>
      <trkpt lat="44.67325" lon="7.10892">
        <ele>2968</ele>
        <time>2022-07-14T06:47:18Z</time>
      </trkpt>
      <trkpt lat="44.67327" lon="7.10895">
        <ele>2969</ele>
        <time>2022-07-14T06:47:33Z</time>
      </trkpt>
      <trkpt lat="44.67331" lon="7.10894">
        <ele>2971</ele>
        <time>2022-07-14T06:47:41Z</time>
      </trkpt>
      <trkpt lat="44.67333" lon="7.1089">
        <ele>2972</ele>
        <time>2022-07-14T06:47:48Z</time>
      </trkpt>
      <trkpt lat="44.67337" lon="7.10889">
        <ele>2972</ele>
        <time>2022-07-14T06:48:09Z</time>
      </trkpt>
      <trkpt lat="44.67338" lon="7.10894">
        <ele>2972</ele>
        <time>2022-07-14T06:48:30Z</time>
      </trkpt>
      <trkpt lat="44.67341" lon="7.10896">
        <ele>2973</ele>
        <time>2022-07-14T06:48:35Z</time>
      </trkpt>
      <trkpt lat="44.6734" lon="7.10901">
        <ele>2973</ele>
        <time>2022-07-14T06:48:41Z</time>
      </trkpt>
      <trkpt lat="44.67342" lon="7.10905">
        <ele>2975</ele>
        <time>2022-07-14T06:48:48Z</time>
      </trkpt>
      <trkpt lat="44.67345" lon="7.10909">
        <ele>2976</ele>
        <time>2022-07-14T06:48:57Z</time>
      </trkpt>
      <trkpt lat="44.67346" lon="7.10914">
        <ele>2978</ele>
        <time>2022-07-14T06:49:03Z</time>
      </trkpt>
      <trkpt lat="44.67346" lon="7.10919">
        <ele>2979</ele>
        <time>2022-07-14T06:49:09Z</time>
      </trkpt>
      <trkpt lat="44.67347" lon="7.10924">
        <ele>2980</ele>
        <time>2022-07-14T06:49:15Z</time>
      </trkpt>
      <trkpt lat="44.67351" lon="7.10925">
        <ele>2982</ele>
        <time>2022-07-14T06:49:32Z</time>
      </trkpt>
      <trkpt lat="44.67354" lon="7.10923">
        <ele>2983</ele>
        <time>2022-07-14T06:49:38Z</time>
      </trkpt>
      <trkpt lat="44.67357" lon="7.10926">
        <ele>2984</ele>
        <time>2022-07-14T06:49:45Z</time>
      </trkpt>
      <trkpt lat="44.6736" lon="7.10924">
        <ele>2987</ele>
        <time>2022-07-14T06:49:56Z</time>
      </trkpt>
      <trkpt lat="44.67378" lon="7.10919">
        <ele>2992</ele>
        <time>2022-07-14T06:50:31Z</time>
      </trkpt>
      <trkpt lat="44.67382" lon="7.10921">
        <ele>2994</ele>
        <time>2022-07-14T06:50:39Z</time>
      </trkpt>
      <trkpt lat="44.67384" lon="7.10925">
        <ele>2995</ele>
        <time>2022-07-14T06:50:50Z</time>
      </trkpt>
      <trkpt lat="44.67384" lon="7.1093">
        <ele>2997</ele>
        <time>2022-07-14T06:50:57Z</time>
      </trkpt>
      <trkpt lat="44.67388" lon="7.10931">
        <ele>2998</ele>
        <time>2022-07-14T06:51:06Z</time>
      </trkpt>
      <trkpt lat="44.67391" lon="7.10932">
        <ele>3000</ele>
        <time>2022-07-14T06:51:13Z</time>
      </trkpt>
      <trkpt lat="44.67404" lon="7.10943">
        <ele>3007</ele>
        <time>2022-07-14T06:51:49Z</time>
      </trkpt>
      <trkpt lat="44.67408" lon="7.10945">
        <ele>3008</ele>
        <time>2022-07-14T06:51:55Z</time>
      </trkpt>
      <trkpt lat="44.67411" lon="7.10948">
        <ele>3008</ele>
        <time>2022-07-14T06:52:05Z</time>
      </trkpt>
      <trkpt lat="44.67414" lon="7.10946">
        <ele>3008</ele>
        <time>2022-07-14T06:52:15Z</time>
      </trkpt>
      <trkpt lat="44.67417" lon="7.10944">
        <ele>3009</ele>
        <time>2022-07-14T06:52:22Z</time>
      </trkpt>
      <trkpt lat="44.67421" lon="7.10944">
        <ele>3009</ele>
        <time>2022-07-14T06:52:27Z</time>
      </trkpt>
      <trkpt lat="44.67425" lon="7.10944">
        <ele>3010</ele>
        <time>2022-07-14T06:52:32Z</time>
      </trkpt>
      <trkpt lat="44.67424" lon="7.1094">
        <ele>3011</ele>
        <time>2022-07-14T06:54:32Z</time>
      </trkpt>
      <trkpt lat="44.67427" lon="7.10936">
        <ele>3011</ele>
        <time>2022-07-14T06:54:38Z</time>
      </trkpt>
      <trkpt lat="44.6743" lon="7.10934">
        <ele>3011</ele>
        <time>2022-07-14T06:54:44Z</time>
      </trkpt>
      <trkpt lat="44.67433" lon="7.1093">
        <ele>3011</ele>
        <time>2022-07-14T06:54:50Z</time>
      </trkpt>
      <trkpt lat="44.67436" lon="7.10928">
        <ele>3012</ele>
        <time>2022-07-14T06:54:56Z</time>
      </trkpt>
      <trkpt lat="44.6744" lon="7.10928">
        <ele>3012</ele>
        <time>2022-07-14T06:55:02Z</time>
      </trkpt>
      <trkpt lat="44.67443" lon="7.1093">
        <ele>3013</ele>
        <time>2022-07-14T06:55:11Z</time>
      </trkpt>
      <trkpt lat="44.67446" lon="7.10933">
        <ele>3014</ele>
        <time>2022-07-14T06:55:18Z</time>
      </trkpt>
      <trkpt lat="44.6745" lon="7.10932">
        <ele>3014</ele>
        <time>2022-07-14T06:55:25Z</time>
      </trkpt>
      <trkpt lat="44.67453" lon="7.10934">
        <ele>3016</ele>
        <time>2022-07-14T06:55:35Z</time>
      </trkpt>
      <trkpt lat="44.67456" lon="7.10936">
        <ele>3016</ele>
        <time>2022-07-14T06:55:42Z</time>
      </trkpt>
      <trkpt lat="44.67458" lon="7.10941">
        <ele>3017</ele>
        <time>2022-07-14T06:55:49Z</time>
      </trkpt>
      <trkpt lat="44.67459" lon="7.10945">
        <ele>3018</ele>
        <time>2022-07-14T06:56:02Z</time>
      </trkpt>
      <trkpt lat="44.67463" lon="7.10947">
        <ele>3019</ele>
        <time>2022-07-14T06:56:15Z</time>
      </trkpt>
      <trkpt lat="44.67467" lon="7.10948">
        <ele>3020</ele>
        <time>2022-07-14T06:56:24Z</time>
      </trkpt>
      <trkpt lat="44.67468" lon="7.10953">
        <ele>3021</ele>
        <time>2022-07-14T06:56:29Z</time>
      </trkpt>
      <trkpt lat="44.67467" lon="7.10959">
        <ele>3021</ele>
        <time>2022-07-14T06:56:34Z</time>
      </trkpt>
      <trkpt lat="44.67467" lon="7.10964">
        <ele>3021</ele>
        <time>2022-07-14T06:56:40Z</time>
      </trkpt>
      <trkpt lat="44.6747" lon="7.10974">
        <ele>3022</ele>
        <time>2022-07-14T06:56:54Z</time>
      </trkpt>
      <trkpt lat="44.6747" lon="7.10975">
        <ele>3024</ele>
        <time>2022-07-14T06:57:51Z</time>
      </trkpt>
      <trkpt lat="44.67467" lon="7.10977">
        <ele>3023</ele>
        <time>2022-07-14T07:05:48Z</time>
      </trkpt>
      <trkpt lat="44.67467" lon="7.10976">
        <ele>3025</ele>
        <time>2022-07-14T07:06:25Z</time>
      </trkpt>
      <trkpt lat="44.6747" lon="7.10973">
        <ele>3025</ele>
        <time>2022-07-14T07:06:29Z</time>
      </trkpt>
      <trkpt lat="44.67468" lon="7.10971">
        <ele>3024</ele>
        <time>2022-07-14T07:16:22Z</time>
      </trkpt>
      <trkpt lat="44.67467" lon="7.10966">
        <ele>3024</ele>
        <time>2022-07-14T07:16:27Z</time>
      </trkpt>
      <trkpt lat="44.67464" lon="7.10956">
        <ele>3022</ele>
        <time>2022-07-14T07:16:35Z</time>
      </trkpt>
      <trkpt lat="44.67465" lon="7.10951">
        <ele>3021</ele>
        <time>2022-07-14T07:16:39Z</time>
      </trkpt>
      <trkpt lat="44.67466" lon="7.10945">
        <ele>3020</ele>
        <time>2022-07-14T07:16:46Z</time>
      </trkpt>
      <trkpt lat="44.67466" lon="7.1094">
        <ele>3019</ele>
        <time>2022-07-14T07:16:52Z</time>
      </trkpt>
      <trkpt lat="44.67463" lon="7.10938">
        <ele>3019</ele>
        <time>2022-07-14T07:16:59Z</time>
      </trkpt>
      <trkpt lat="44.6746" lon="7.10939">
        <ele>3018</ele>
        <time>2022-07-14T07:17:05Z</time>
      </trkpt>
      <trkpt lat="44.67456" lon="7.10942">
        <ele>3017</ele>
        <time>2022-07-14T07:17:13Z</time>
      </trkpt>
      <trkpt lat="44.67455" lon="7.10937">
        <ele>3016</ele>
        <time>2022-07-14T07:17:21Z</time>
      </trkpt>
      <trkpt lat="44.67451" lon="7.10936">
        <ele>3016</ele>
        <time>2022-07-14T07:17:28Z</time>
      </trkpt>
      <trkpt lat="44.67448" lon="7.10935">
        <ele>3014</ele>
        <time>2022-07-14T07:17:36Z</time>
      </trkpt>
      <trkpt lat="44.67444" lon="7.10934">
        <ele>3014</ele>
        <time>2022-07-14T07:17:43Z</time>
      </trkpt>
      <trkpt lat="44.67441" lon="7.10931">
        <ele>3013</ele>
        <time>2022-07-14T07:17:49Z</time>
      </trkpt>
      <trkpt lat="44.67438" lon="7.10928">
        <ele>3012</ele>
        <time>2022-07-14T07:17:58Z</time>
      </trkpt>
      <trkpt lat="44.67431" lon="7.10933">
        <ele>3010</ele>
        <time>2022-07-14T07:18:10Z</time>
      </trkpt>
      <trkpt lat="44.67428" lon="7.10932">
        <ele>3009</ele>
        <time>2022-07-14T07:18:17Z</time>
      </trkpt>
      <trkpt lat="44.67424" lon="7.10932">
        <ele>3009</ele>
        <time>2022-07-14T07:18:22Z</time>
      </trkpt>
      <trkpt lat="44.67423" lon="7.10927">
        <ele>3007</ele>
        <time>2022-07-14T07:18:28Z</time>
      </trkpt>
      <trkpt lat="44.6742" lon="7.10925">
        <ele>3006</ele>
        <time>2022-07-14T07:18:34Z</time>
      </trkpt>
      <trkpt lat="44.67412" lon="7.10924">
        <ele>3006</ele>
        <time>2022-07-14T07:18:45Z</time>
      </trkpt>
      <trkpt lat="44.67409" lon="7.10922">
        <ele>3006</ele>
        <time>2022-07-14T07:18:50Z</time>
      </trkpt>
      <trkpt lat="44.67406" lon="7.10921">
        <ele>3006</ele>
        <time>2022-07-14T07:18:55Z</time>
      </trkpt>
      <trkpt lat="44.67402" lon="7.10922">
        <ele>3005</ele>
        <time>2022-07-14T07:19:00Z</time>
      </trkpt>
      <trkpt lat="44.67398" lon="7.10922">
        <ele>3005</ele>
        <time>2022-07-14T07:19:05Z</time>
      </trkpt>
      <trkpt lat="44.67395" lon="7.10925">
        <ele>3005</ele>
        <time>2022-07-14T07:19:11Z</time>
      </trkpt>
      <trkpt lat="44.67393" lon="7.1092">
        <ele>3004</ele>
        <time>2022-07-14T07:19:21Z</time>
      </trkpt>
      <trkpt lat="44.6739" lon="7.10917">
        <ele>3002</ele>
        <time>2022-07-14T07:19:27Z</time>
      </trkpt>
      <trkpt lat="44.67387" lon="7.10913">
        <ele>3000</ele>
        <time>2022-07-14T07:19:34Z</time>
      </trkpt>
      <trkpt lat="44.67384" lon="7.10913">
        <ele>2999</ele>
        <time>2022-07-14T07:19:40Z</time>
      </trkpt>
      <trkpt lat="44.6738" lon="7.10913">
        <ele>2998</ele>
        <time>2022-07-14T07:19:45Z</time>
      </trkpt>
      <trkpt lat="44.67377" lon="7.10916">
        <ele>2997</ele>
        <time>2022-07-14T07:19:52Z</time>
      </trkpt>
      <trkpt lat="44.67374" lon="7.10919">
        <ele>2997</ele>
        <time>2022-07-14T07:19:57Z</time>
      </trkpt>
      <trkpt lat="44.67366" lon="7.1092">
        <ele>2994</ele>
        <time>2022-07-14T07:20:12Z</time>
      </trkpt>
      <trkpt lat="44.67364" lon="7.10917">
        <ele>2993</ele>
        <time>2022-07-14T07:20:19Z</time>
      </trkpt>
      <trkpt lat="44.67362" lon="7.10922">
        <ele>2992</ele>
        <time>2022-07-14T07:20:25Z</time>
      </trkpt>
      <trkpt lat="44.67356" lon="7.10928">
        <ele>2990</ele>
        <time>2022-07-14T07:20:49Z</time>
      </trkpt>
      <trkpt lat="44.67352" lon="7.10928">
        <ele>2989</ele>
        <time>2022-07-14T07:20:55Z</time>
      </trkpt>
      <trkpt lat="44.67352" lon="7.10923">
        <ele>2988</ele>
        <time>2022-07-14T07:21:01Z</time>
      </trkpt>
      <trkpt lat="44.67346" lon="7.10928">
        <ele>2986</ele>
        <time>2022-07-14T07:21:17Z</time>
      </trkpt>
      <trkpt lat="44.67348" lon="7.10924">
        <ele>2986</ele>
        <time>2022-07-14T07:22:00Z</time>
      </trkpt>
      <trkpt lat="44.67346" lon="7.1092">
        <ele>2986</ele>
        <time>2022-07-14T07:22:08Z</time>
      </trkpt>
      <trkpt lat="44.67343" lon="7.10916">
        <ele>2983</ele>
        <time>2022-07-14T07:22:19Z</time>
      </trkpt>
      <trkpt lat="44.67339" lon="7.10907">
        <ele>2980</ele>
        <time>2022-07-14T07:22:29Z</time>
      </trkpt>
      <trkpt lat="44.67339" lon="7.10901">
        <ele>2979</ele>
        <time>2022-07-14T07:22:34Z</time>
      </trkpt>
      <trkpt lat="44.67338" lon="7.10896">
        <ele>2977</ele>
        <time>2022-07-14T07:22:40Z</time>
      </trkpt>
      <trkpt lat="44.67335" lon="7.10893">
        <ele>2976</ele>
        <time>2022-07-14T07:22:44Z</time>
      </trkpt>
      <trkpt lat="44.67333" lon="7.10889">
        <ele>2975</ele>
        <time>2022-07-14T07:22:50Z</time>
      </trkpt>
      <trkpt lat="44.6733" lon="7.1089">
        <ele>2974</ele>
        <time>2022-07-14T07:22:56Z</time>
      </trkpt>
      <trkpt lat="44.67326" lon="7.10888">
        <ele>2973</ele>
        <time>2022-07-14T07:23:02Z</time>
      </trkpt>
      <trkpt lat="44.67323" lon="7.10893">
        <ele>2972</ele>
        <time>2022-07-14T07:23:14Z</time>
      </trkpt>
      <trkpt lat="44.6732" lon="7.10894">
        <ele>2972</ele>
        <time>2022-07-14T07:23:25Z</time>
      </trkpt>
      <trkpt lat="44.67319" lon="7.10888">
        <ele>2970</ele>
        <time>2022-07-14T07:23:39Z</time>
      </trkpt>
      <trkpt lat="44.67315" lon="7.10885">
        <ele>2968</ele>
        <time>2022-07-14T07:23:53Z</time>
      </trkpt>
      <trkpt lat="44.67312" lon="7.10885">
        <ele>2966</ele>
        <time>2022-07-14T07:24:17Z</time>
      </trkpt>
      <trkpt lat="44.67309" lon="7.10887">
        <ele>2966</ele>
        <time>2022-07-14T07:24:21Z</time>
      </trkpt>
      <trkpt lat="44.67305" lon="7.10886">
        <ele>2965</ele>
        <time>2022-07-14T07:24:29Z</time>
      </trkpt>
      <trkpt lat="44.67302" lon="7.10887">
        <ele>2965</ele>
        <time>2022-07-14T07:24:43Z</time>
      </trkpt>
      <trkpt lat="44.67298" lon="7.10886">
        <ele>2964</ele>
        <time>2022-07-14T07:24:49Z</time>
      </trkpt>
      <trkpt lat="44.67297" lon="7.10884">
        <ele>2963</ele>
        <time>2022-07-14T07:25:11Z</time>
      </trkpt>
      <trkpt lat="44.67295" lon="7.1088">
        <ele>2958</ele>
        <time>2022-07-14T07:25:24Z</time>
      </trkpt>
      <trkpt lat="44.67292" lon="7.10877">
        <ele>2957</ele>
        <time>2022-07-14T07:25:31Z</time>
      </trkpt>
      <trkpt lat="44.67291" lon="7.10872">
        <ele>2955</ele>
        <time>2022-07-14T07:25:42Z</time>
      </trkpt>
      <trkpt lat="44.67291" lon="7.10867">
        <ele>2954</ele>
        <time>2022-07-14T07:25:50Z</time>
      </trkpt>
      <trkpt lat="44.67288" lon="7.10864">
        <ele>2952</ele>
        <time>2022-07-14T07:25:56Z</time>
      </trkpt>
      <trkpt lat="44.67286" lon="7.10867">
        <ele>2951</ele>
        <time>2022-07-14T07:26:04Z</time>
      </trkpt>
      <trkpt lat="44.67285" lon="7.10862">
        <ele>2950</ele>
        <time>2022-07-14T07:26:09Z</time>
      </trkpt>
      <trkpt lat="44.67281" lon="7.10863">
        <ele>2949</ele>
        <time>2022-07-14T07:26:17Z</time>
      </trkpt>
      <trkpt lat="44.67278" lon="7.1086">
        <ele>2948</ele>
        <time>2022-07-14T07:26:27Z</time>
      </trkpt>
      <trkpt lat="44.67279" lon="7.10856">
        <ele>2947</ele>
        <time>2022-07-14T07:26:35Z</time>
      </trkpt>
      <trkpt lat="44.67277" lon="7.10851">
        <ele>2944</ele>
        <time>2022-07-14T07:26:45Z</time>
      </trkpt>
      <trkpt lat="44.67278" lon="7.10843">
        <ele>2943</ele>
        <time>2022-07-14T07:26:54Z</time>
      </trkpt>
      <trkpt lat="44.67278" lon="7.10836">
        <ele>2940</ele>
        <time>2022-07-14T07:27:01Z</time>
      </trkpt>
      <trkpt lat="44.67271" lon="7.10842">
        <ele>2937</ele>
        <time>2022-07-14T07:27:08Z</time>
      </trkpt>
      <trkpt lat="44.67269" lon="7.10846">
        <ele>2937</ele>
        <time>2022-07-14T07:27:17Z</time>
      </trkpt>
      <trkpt lat="44.67266" lon="7.10844">
        <ele>2937</ele>
        <time>2022-07-14T07:27:22Z</time>
      </trkpt>
      <trkpt lat="44.67266" lon="7.10843">
        <ele>2936</ele>
        <time>2022-07-14T07:27:39Z</time>
      </trkpt>
      <trkpt lat="44.67266" lon="7.10838">
        <ele>2934</ele>
        <time>2022-07-14T07:27:55Z</time>
      </trkpt>
      <trkpt lat="44.67264" lon="7.10834">
        <ele>2929</ele>
        <time>2022-07-14T07:28:04Z</time>
      </trkpt>
      <trkpt lat="44.67263" lon="7.10829">
        <ele>2929</ele>
        <time>2022-07-14T07:28:14Z</time>
      </trkpt>
      <trkpt lat="44.67259" lon="7.10828">
        <ele>2925</ele>
        <time>2022-07-14T07:28:39Z</time>
      </trkpt>
      <trkpt lat="44.67261" lon="7.10823">
        <ele>2925</ele>
        <time>2022-07-14T07:28:48Z</time>
      </trkpt>
      <trkpt lat="44.67258" lon="7.10822">
        <ele>2924</ele>
        <time>2022-07-14T07:28:59Z</time>
      </trkpt>
      <trkpt lat="44.67256" lon="7.10817">
        <ele>2921</ele>
        <time>2022-07-14T07:29:05Z</time>
      </trkpt>
      <trkpt lat="44.67255" lon="7.10812">
        <ele>2920</ele>
        <time>2022-07-14T07:29:19Z</time>
      </trkpt>
      <trkpt lat="44.67251" lon="7.1081">
        <ele>2918</ele>
        <time>2022-07-14T07:29:29Z</time>
      </trkpt>
      <trkpt lat="44.67248" lon="7.10813">
        <ele>2916</ele>
        <time>2022-07-14T07:29:46Z</time>
      </trkpt>
      <trkpt lat="44.67245" lon="7.10817">
        <ele>2916</ele>
        <time>2022-07-14T07:29:52Z</time>
      </trkpt>
      <trkpt lat="44.67243" lon="7.10813">
        <ele>2913</ele>
        <time>2022-07-14T07:30:03Z</time>
      </trkpt>
      <trkpt lat="44.67239" lon="7.10814">
        <ele>2911</ele>
        <time>2022-07-14T07:30:16Z</time>
      </trkpt>
      <trkpt lat="44.67232" lon="7.10816">
        <ele>2910</ele>
        <time>2022-07-14T07:30:29Z</time>
      </trkpt>
      <trkpt lat="44.67228" lon="7.10816">
        <ele>2909</ele>
        <time>2022-07-14T07:30:39Z</time>
      </trkpt>
      <trkpt lat="44.67225" lon="7.10817">
        <ele>2908</ele>
        <time>2022-07-14T07:30:48Z</time>
      </trkpt>
      <trkpt lat="44.67221" lon="7.10816">
        <ele>2906</ele>
        <time>2022-07-14T07:31:00Z</time>
      </trkpt>
      <trkpt lat="44.67218" lon="7.10816">
        <ele>2903</ele>
        <time>2022-07-14T07:31:08Z</time>
      </trkpt>
      <trkpt lat="44.67217" lon="7.10811">
        <ele>2901</ele>
        <time>2022-07-14T07:31:19Z</time>
      </trkpt>
      <trkpt lat="44.67214" lon="7.10814">
        <ele>2900</ele>
        <time>2022-07-14T07:31:24Z</time>
      </trkpt>
      <trkpt lat="44.6721" lon="7.10816">
        <ele>2897</ele>
        <time>2022-07-14T07:31:31Z</time>
      </trkpt>
      <trkpt lat="44.67203" lon="7.10816">
        <ele>2892</ele>
        <time>2022-07-14T07:31:49Z</time>
      </trkpt>
      <trkpt lat="44.67199" lon="7.10816">
        <ele>2891</ele>
        <time>2022-07-14T07:31:57Z</time>
      </trkpt>
      <trkpt lat="44.67201" lon="7.1081">
        <ele>2890</ele>
        <time>2022-07-14T07:32:03Z</time>
      </trkpt>
      <trkpt lat="44.67203" lon="7.10805">
        <ele>2888</ele>
        <time>2022-07-14T07:32:09Z</time>
      </trkpt>
      <trkpt lat="44.67203" lon="7.108">
        <ele>2887</ele>
        <time>2022-07-14T07:32:15Z</time>
      </trkpt>
      <trkpt lat="44.67198" lon="7.10801">
        <ele>2884</ele>
        <time>2022-07-14T07:32:29Z</time>
      </trkpt>
      <trkpt lat="44.67194" lon="7.10796">
        <ele>2881</ele>
        <time>2022-07-14T07:32:31Z</time>
      </trkpt>
      <trkpt lat="44.67193" lon="7.10801">
        <ele>2881</ele>
        <time>2022-07-14T07:32:34Z</time>
      </trkpt>
      <trkpt lat="44.67191" lon="7.10806">
        <ele>2881</ele>
        <time>2022-07-14T07:32:38Z</time>
      </trkpt>
      <trkpt lat="44.67187" lon="7.10808">
        <ele>2882</ele>
        <time>2022-07-14T07:32:43Z</time>
      </trkpt>
      <trkpt lat="44.67185" lon="7.10811">
        <ele>2884</ele>
        <time>2022-07-14T07:32:48Z</time>
      </trkpt>
      <trkpt lat="44.67183" lon="7.10807">
        <ele>2883</ele>
        <time>2022-07-14T07:32:58Z</time>
      </trkpt>
      <trkpt lat="44.67185" lon="7.10803">
        <ele>2883</ele>
        <time>2022-07-14T07:33:01Z</time>
      </trkpt>
      <trkpt lat="44.67187" lon="7.10798">
        <ele>2879</ele>
        <time>2022-07-14T07:33:07Z</time>
      </trkpt>
      <trkpt lat="44.67188" lon="7.10794">
        <ele>2876</ele>
        <time>2022-07-14T07:33:19Z</time>
      </trkpt>
      <trkpt lat="44.67187" lon="7.10789">
        <ele>2872</ele>
        <time>2022-07-14T07:33:25Z</time>
      </trkpt>
      <trkpt lat="44.6718" lon="7.10793">
        <ele>2868</ele>
        <time>2022-07-14T07:33:38Z</time>
      </trkpt>
      <trkpt lat="44.67176" lon="7.10792">
        <ele>2867</ele>
        <time>2022-07-14T07:33:47Z</time>
      </trkpt>
      <trkpt lat="44.67174" lon="7.1079">
        <ele>2865</ele>
        <time>2022-07-14T07:34:04Z</time>
      </trkpt>
      <trkpt lat="44.67171" lon="7.10792">
        <ele>2861</ele>
        <time>2022-07-14T07:34:14Z</time>
      </trkpt>
      <trkpt lat="44.67167" lon="7.1079">
        <ele>2860</ele>
        <time>2022-07-14T07:34:23Z</time>
      </trkpt>
      <trkpt lat="44.67166" lon="7.10786">
        <ele>2857</ele>
        <time>2022-07-14T07:34:33Z</time>
      </trkpt>
      <trkpt lat="44.67166" lon="7.10781">
        <ele>2856</ele>
        <time>2022-07-14T07:34:45Z</time>
      </trkpt>
      <trkpt lat="44.67164" lon="7.10777">
        <ele>2852</ele>
        <time>2022-07-14T07:34:58Z</time>
      </trkpt>
      <trkpt lat="44.6716" lon="7.10778">
        <ele>2852</ele>
        <time>2022-07-14T07:35:05Z</time>
      </trkpt>
      <trkpt lat="44.67157" lon="7.1078">
        <ele>2850</ele>
        <time>2022-07-14T07:35:11Z</time>
      </trkpt>
      <trkpt lat="44.67153" lon="7.10779">
        <ele>2850</ele>
        <time>2022-07-14T07:35:20Z</time>
      </trkpt>
      <trkpt lat="44.6715" lon="7.1078">
        <ele>2848</ele>
        <time>2022-07-14T07:35:26Z</time>
      </trkpt>
      <trkpt lat="44.67148" lon="7.10777">
        <ele>2847</ele>
        <time>2022-07-14T07:35:40Z</time>
      </trkpt>
      <trkpt lat="44.67145" lon="7.10774">
        <ele>2843</ele>
        <time>2022-07-14T07:35:53Z</time>
      </trkpt>
      <trkpt lat="44.67141" lon="7.10776">
        <ele>2842</ele>
        <time>2022-07-14T07:35:59Z</time>
      </trkpt>
      <trkpt lat="44.67141" lon="7.10771">
        <ele>2842</ele>
        <time>2022-07-14T07:36:06Z</time>
      </trkpt>
      <trkpt lat="44.67139" lon="7.10767">
        <ele>2840</ele>
        <time>2022-07-14T07:36:16Z</time>
      </trkpt>
      <trkpt lat="44.67132" lon="7.10767">
        <ele>2838</ele>
        <time>2022-07-14T07:36:39Z</time>
      </trkpt>
      <trkpt lat="44.67131" lon="7.10765">
        <ele>2837</ele>
        <time>2022-07-14T07:36:48Z</time>
      </trkpt>
      <trkpt lat="44.67133" lon="7.1076">
        <ele>2836</ele>
        <time>2022-07-14T07:36:57Z</time>
      </trkpt>
      <trkpt lat="44.6713" lon="7.10758">
        <ele>2829</ele>
        <time>2022-07-14T07:37:12Z</time>
      </trkpt>
      <trkpt lat="44.67128" lon="7.10754">
        <ele>2828</ele>
        <time>2022-07-14T07:37:18Z</time>
      </trkpt>
      <trkpt lat="44.67129" lon="7.10749">
        <ele>2827</ele>
        <time>2022-07-14T07:37:24Z</time>
      </trkpt>
      <trkpt lat="44.67124" lon="7.10749">
        <ele>2824</ele>
        <time>2022-07-14T07:37:33Z</time>
      </trkpt>
      <trkpt lat="44.67127" lon="7.10745">
        <ele>2821</ele>
        <time>2022-07-14T07:37:51Z</time>
      </trkpt>
      <trkpt lat="44.67124" lon="7.10742">
        <ele>2818</ele>
        <time>2022-07-14T07:38:03Z</time>
      </trkpt>
      <trkpt lat="44.67124" lon="7.10737">
        <ele>2816</ele>
        <time>2022-07-14T07:38:09Z</time>
      </trkpt>
      <trkpt lat="44.67126" lon="7.10732">
        <ele>2815</ele>
        <time>2022-07-14T07:38:16Z</time>
      </trkpt>
      <trkpt lat="44.67126" lon="7.10728">
        <ele>2813</ele>
        <time>2022-07-14T07:38:26Z</time>
      </trkpt>
      <trkpt lat="44.67123" lon="7.1073">
        <ele>2813</ele>
        <time>2022-07-14T07:38:31Z</time>
      </trkpt>
      <trkpt lat="44.67121" lon="7.10725">
        <ele>2810</ele>
        <time>2022-07-14T07:38:41Z</time>
      </trkpt>
      <trkpt lat="44.67117" lon="7.10725">
        <ele>2809</ele>
        <time>2022-07-14T07:38:48Z</time>
      </trkpt>
      <trkpt lat="44.67114" lon="7.10722">
        <ele>2808</ele>
        <time>2022-07-14T07:38:55Z</time>
      </trkpt>
      <trkpt lat="44.67111" lon="7.10724">
        <ele>2806</ele>
        <time>2022-07-14T07:39:00Z</time>
      </trkpt>
      <trkpt lat="44.67108" lon="7.10725">
        <ele>2805</ele>
        <time>2022-07-14T07:39:05Z</time>
      </trkpt>
      <trkpt lat="44.67108" lon="7.1072">
        <ele>2804</ele>
        <time>2022-07-14T07:39:13Z</time>
      </trkpt>
      <trkpt lat="44.67107" lon="7.10717">
        <ele>2799</ele>
        <time>2022-07-14T07:39:25Z</time>
      </trkpt>
      <trkpt lat="44.67108" lon="7.10712">
        <ele>2798</ele>
        <time>2022-07-14T07:39:31Z</time>
      </trkpt>
      <trkpt lat="44.67112" lon="7.10697">
        <ele>2794</ele>
        <time>2022-07-14T07:39:46Z</time>
      </trkpt>
      <trkpt lat="44.67112" lon="7.10692">
        <ele>2792</ele>
        <time>2022-07-14T07:39:53Z</time>
      </trkpt>
      <trkpt lat="44.67108" lon="7.10691">
        <ele>2791</ele>
        <time>2022-07-14T07:40:03Z</time>
      </trkpt>
      <trkpt lat="44.67105" lon="7.10692">
        <ele>2789</ele>
        <time>2022-07-14T07:40:08Z</time>
      </trkpt>
      <trkpt lat="44.67102" lon="7.10688">
        <ele>2788</ele>
        <time>2022-07-14T07:40:16Z</time>
      </trkpt>
      <trkpt lat="44.67102" lon="7.10683">
        <ele>2786</ele>
        <time>2022-07-14T07:40:23Z</time>
      </trkpt>
      <trkpt lat="44.67099" lon="7.10684">
        <ele>2785</ele>
        <time>2022-07-14T07:40:28Z</time>
      </trkpt>
      <trkpt lat="44.67091" lon="7.10685">
        <ele>2781</ele>
        <time>2022-07-14T07:40:39Z</time>
      </trkpt>
      <trkpt lat="44.67087" lon="7.10688">
        <ele>2780</ele>
        <time>2022-07-14T07:40:45Z</time>
      </trkpt>
      <trkpt lat="44.67084" lon="7.10687">
        <ele>2779</ele>
        <time>2022-07-14T07:40:51Z</time>
      </trkpt>
      <trkpt lat="44.67084" lon="7.10682">
        <ele>2778</ele>
        <time>2022-07-14T07:40:59Z</time>
      </trkpt>
      <trkpt lat="44.67086" lon="7.10678">
        <ele>2775</ele>
        <time>2022-07-14T07:41:03Z</time>
      </trkpt>
      <trkpt lat="44.67083" lon="7.10676">
        <ele>2774</ele>
        <time>2022-07-14T07:41:12Z</time>
      </trkpt>
      <trkpt lat="44.67079" lon="7.10678">
        <ele>2773</ele>
        <time>2022-07-14T07:41:19Z</time>
      </trkpt>
      <trkpt lat="44.67077" lon="7.10675">
        <ele>2770</ele>
        <time>2022-07-14T07:41:28Z</time>
      </trkpt>
      <trkpt lat="44.67079" lon="7.10666">
        <ele>2766</ele>
        <time>2022-07-14T07:41:44Z</time>
      </trkpt>
      <trkpt lat="44.67078" lon="7.10661">
        <ele>2765</ele>
        <time>2022-07-14T07:41:54Z</time>
      </trkpt>
      <trkpt lat="44.6708" lon="7.10656">
        <ele>2762</ele>
        <time>2022-07-14T07:42:13Z</time>
      </trkpt>
      <trkpt lat="44.67077" lon="7.10653">
        <ele>2761</ele>
        <time>2022-07-14T07:42:20Z</time>
      </trkpt>
      <trkpt lat="44.67073" lon="7.10653">
        <ele>2759</ele>
        <time>2022-07-14T07:42:24Z</time>
      </trkpt>
      <trkpt lat="44.67066" lon="7.10652">
        <ele>2758</ele>
        <time>2022-07-14T07:42:38Z</time>
      </trkpt>
      <trkpt lat="44.67062" lon="7.10653">
        <ele>2757</ele>
        <time>2022-07-14T07:42:43Z</time>
      </trkpt>
      <trkpt lat="44.6706" lon="7.10649">
        <ele>2756</ele>
        <time>2022-07-14T07:42:50Z</time>
      </trkpt>
      <trkpt lat="44.67062" lon="7.1064">
        <ele>2751</ele>
        <time>2022-07-14T07:43:03Z</time>
      </trkpt>
      <trkpt lat="44.6706" lon="7.10635">
        <ele>2750</ele>
        <time>2022-07-14T07:43:18Z</time>
      </trkpt>
      <trkpt lat="44.67058" lon="7.10631">
        <ele>2745</ele>
        <time>2022-07-14T07:43:28Z</time>
      </trkpt>
      <trkpt lat="44.67051" lon="7.10628">
        <ele>2743</ele>
        <time>2022-07-14T07:43:39Z</time>
      </trkpt>
      <trkpt lat="44.67048" lon="7.10628">
        <ele>2742</ele>
        <time>2022-07-14T07:43:45Z</time>
      </trkpt>
      <trkpt lat="44.67044" lon="7.10627">
        <ele>2741</ele>
        <time>2022-07-14T07:43:52Z</time>
      </trkpt>
      <trkpt lat="44.67041" lon="7.10626">
        <ele>2741</ele>
        <time>2022-07-14T07:43:59Z</time>
      </trkpt>
      <trkpt lat="44.6704" lon="7.10621">
        <ele>2740</ele>
        <time>2022-07-14T07:44:10Z</time>
      </trkpt>
      <trkpt lat="44.67033" lon="7.10617">
        <ele>2737</ele>
        <time>2022-07-14T07:44:27Z</time>
      </trkpt>
      <trkpt lat="44.67029" lon="7.10619">
        <ele>2736</ele>
        <time>2022-07-14T07:44:33Z</time>
      </trkpt>
      <trkpt lat="44.67027" lon="7.10616">
        <ele>2736</ele>
        <time>2022-07-14T07:44:43Z</time>
      </trkpt>
      <trkpt lat="44.67015" lon="7.10614">
        <ele>2729</ele>
        <time>2022-07-14T07:45:07Z</time>
      </trkpt>
      <trkpt lat="44.67013" lon="7.1061">
        <ele>2728</ele>
        <time>2022-07-14T07:45:23Z</time>
      </trkpt>
      <trkpt lat="44.67009" lon="7.10611">
        <ele>2727</ele>
        <time>2022-07-14T07:45:28Z</time>
      </trkpt>
      <trkpt lat="44.67002" lon="7.10609">
        <ele>2725</ele>
        <time>2022-07-14T07:45:40Z</time>
      </trkpt>
      <trkpt lat="44.66998" lon="7.1061">
        <ele>2725</ele>
        <time>2022-07-14T07:45:46Z</time>
      </trkpt>
      <trkpt lat="44.66995" lon="7.10611">
        <ele>2724</ele>
        <time>2022-07-14T07:45:52Z</time>
      </trkpt>
      <trkpt lat="44.66992" lon="7.10615">
        <ele>2723</ele>
        <time>2022-07-14T07:45:57Z</time>
      </trkpt>
      <trkpt lat="44.66992" lon="7.10621">
        <ele>2721</ele>
        <time>2022-07-14T07:46:03Z</time>
      </trkpt>
      <trkpt lat="44.66985" lon="7.10625">
        <ele>2719</ele>
        <time>2022-07-14T07:46:17Z</time>
      </trkpt>
      <trkpt lat="44.66984" lon="7.10621">
        <ele>2719</ele>
        <time>2022-07-14T07:46:21Z</time>
      </trkpt>
      <trkpt lat="44.66984" lon="7.10605">
        <ele>2715</ele>
        <time>2022-07-14T07:46:42Z</time>
      </trkpt>
      <trkpt lat="44.66981" lon="7.10603">
        <ele>2714</ele>
        <time>2022-07-14T07:46:52Z</time>
      </trkpt>
      <trkpt lat="44.66978" lon="7.10603">
        <ele>2712</ele>
        <time>2022-07-14T07:46:58Z</time>
      </trkpt>
      <trkpt lat="44.66975" lon="7.10607">
        <ele>2711</ele>
        <time>2022-07-14T07:47:04Z</time>
      </trkpt>
      <trkpt lat="44.66972" lon="7.10608">
        <ele>2710</ele>
        <time>2022-07-14T07:47:10Z</time>
      </trkpt>
      <trkpt lat="44.66969" lon="7.10612">
        <ele>2711</ele>
        <time>2022-07-14T07:47:15Z</time>
      </trkpt>
      <trkpt lat="44.66962" lon="7.10615">
        <ele>2712</ele>
        <time>2022-07-14T07:47:31Z</time>
      </trkpt>
      <trkpt lat="44.66961" lon="7.10611">
        <ele>2711</ele>
        <time>2022-07-14T07:47:39Z</time>
      </trkpt>
      <trkpt lat="44.66957" lon="7.10608">
        <ele>2709</ele>
        <time>2022-07-14T07:47:52Z</time>
      </trkpt>
      <trkpt lat="44.66954" lon="7.10612">
        <ele>2707</ele>
        <time>2022-07-14T07:47:59Z</time>
      </trkpt>
      <trkpt lat="44.66951" lon="7.10616">
        <ele>2705</ele>
        <time>2022-07-14T07:48:06Z</time>
      </trkpt>
      <trkpt lat="44.66948" lon="7.10619">
        <ele>2705</ele>
        <time>2022-07-14T07:48:15Z</time>
      </trkpt>
      <trkpt lat="44.66945" lon="7.10621">
        <ele>2705</ele>
        <time>2022-07-14T07:48:22Z</time>
      </trkpt>
      <trkpt lat="44.66941" lon="7.10624">
        <ele>2705</ele>
        <time>2022-07-14T07:48:27Z</time>
      </trkpt>
      <trkpt lat="44.66938" lon="7.10622">
        <ele>2707</ele>
        <time>2022-07-14T07:48:36Z</time>
      </trkpt>
      <trkpt lat="44.66931" lon="7.10624">
        <ele>2707</ele>
        <time>2022-07-14T07:48:48Z</time>
      </trkpt>
      <trkpt lat="44.66928" lon="7.10626">
        <ele>2706</ele>
        <time>2022-07-14T07:48:53Z</time>
      </trkpt>
      <trkpt lat="44.66929" lon="7.10617">
        <ele>2705</ele>
        <time>2022-07-14T07:49:01Z</time>
      </trkpt>
      <trkpt lat="44.66931" lon="7.10612">
        <ele>2702</ele>
        <time>2022-07-14T07:49:06Z</time>
      </trkpt>
      <trkpt lat="44.66928" lon="7.10609">
        <ele>2700</ele>
        <time>2022-07-14T07:49:19Z</time>
      </trkpt>
      <trkpt lat="44.66924" lon="7.10609">
        <ele>2698</ele>
        <time>2022-07-14T07:49:25Z</time>
      </trkpt>
      <trkpt lat="44.66922" lon="7.10605">
        <ele>2697</ele>
        <time>2022-07-14T07:49:29Z</time>
      </trkpt>
      <trkpt lat="44.66918" lon="7.10603">
        <ele>2696</ele>
        <time>2022-07-14T07:49:34Z</time>
      </trkpt>
      <trkpt lat="44.66915" lon="7.10602">
        <ele>2696</ele>
        <time>2022-07-14T07:49:39Z</time>
      </trkpt>
      <trkpt lat="44.66908" lon="7.10604">
        <ele>2693</ele>
        <time>2022-07-14T07:49:52Z</time>
      </trkpt>
      <trkpt lat="44.66897" lon="7.10607">
        <ele>2692</ele>
        <time>2022-07-14T07:50:07Z</time>
      </trkpt>
      <trkpt lat="44.66893" lon="7.10609">
        <ele>2692</ele>
        <time>2022-07-14T07:50:13Z</time>
      </trkpt>
      <trkpt lat="44.66891" lon="7.10614">
        <ele>2692</ele>
        <time>2022-07-14T07:50:19Z</time>
      </trkpt>
      <trkpt lat="44.66884" lon="7.10614">
        <ele>2690</ele>
        <time>2022-07-14T07:50:29Z</time>
      </trkpt>
      <trkpt lat="44.6688" lon="7.10617">
        <ele>2689</ele>
        <time>2022-07-14T07:50:35Z</time>
      </trkpt>
      <trkpt lat="44.66878" lon="7.10612">
        <ele>2689</ele>
        <time>2022-07-14T07:50:40Z</time>
      </trkpt>
      <trkpt lat="44.66875" lon="7.10615">
        <ele>2687</ele>
        <time>2022-07-14T07:50:46Z</time>
      </trkpt>
      <trkpt lat="44.66872" lon="7.10614">
        <ele>2687</ele>
        <time>2022-07-14T07:50:50Z</time>
      </trkpt>
      <trkpt lat="44.66871" lon="7.10609">
        <ele>2686</ele>
        <time>2022-07-14T07:50:58Z</time>
      </trkpt>
      <trkpt lat="44.66874" lon="7.10599">
        <ele>2682</ele>
        <time>2022-07-14T07:51:09Z</time>
      </trkpt>
      <trkpt lat="44.66876" lon="7.10595">
        <ele>2681</ele>
        <time>2022-07-14T07:51:14Z</time>
      </trkpt>
      <trkpt lat="44.66876" lon="7.1059">
        <ele>2678</ele>
        <time>2022-07-14T07:51:25Z</time>
      </trkpt>
      <trkpt lat="44.66879" lon="7.10587">
        <ele>2676</ele>
        <time>2022-07-14T07:51:42Z</time>
      </trkpt>
      <trkpt lat="44.66878" lon="7.10582">
        <ele>2673</ele>
        <time>2022-07-14T07:51:49Z</time>
      </trkpt>
      <trkpt lat="44.66877" lon="7.10576">
        <ele>2670</ele>
        <time>2022-07-14T07:52:00Z</time>
      </trkpt>
      <trkpt lat="44.66878" lon="7.10571">
        <ele>2667</ele>
        <time>2022-07-14T07:52:07Z</time>
      </trkpt>
      <trkpt lat="44.6688" lon="7.10568">
        <ele>2665</ele>
        <time>2022-07-14T07:52:18Z</time>
      </trkpt>
      <trkpt lat="44.66884" lon="7.10567">
        <ele>2664</ele>
        <time>2022-07-14T07:52:25Z</time>
      </trkpt>
      <trkpt lat="44.66884" lon="7.10562">
        <ele>2662</ele>
        <time>2022-07-14T07:54:11Z</time>
      </trkpt>
      <trkpt lat="44.66889" lon="7.1056">
        <ele>2662</ele>
        <time>2022-07-14T07:54:18Z</time>
      </trkpt>
      <trkpt lat="44.6689" lon="7.10555">
        <ele>2660</ele>
        <time>2022-07-14T07:54:26Z</time>
      </trkpt>
      <trkpt lat="44.66891" lon="7.1055">
        <ele>2658</ele>
        <time>2022-07-14T07:54:33Z</time>
      </trkpt>
      <trkpt lat="44.66895" lon="7.1055">
        <ele>2658</ele>
        <time>2022-07-14T07:54:37Z</time>
      </trkpt>
      <trkpt lat="44.66899" lon="7.1055">
        <ele>2658</ele>
        <time>2022-07-14T07:54:42Z</time>
      </trkpt>
      <trkpt lat="44.66902" lon="7.10546">
        <ele>2658</ele>
        <time>2022-07-14T07:54:50Z</time>
      </trkpt>
      <trkpt lat="44.66901" lon="7.10539">
        <ele>2657</ele>
        <time>2022-07-14T07:54:57Z</time>
      </trkpt>
      <trkpt lat="44.66904" lon="7.10533">
        <ele>2657</ele>
        <time>2022-07-14T07:55:04Z</time>
      </trkpt>
      <trkpt lat="44.66908" lon="7.10532">
        <ele>2655</ele>
        <time>2022-07-14T07:55:11Z</time>
      </trkpt>
      <trkpt lat="44.6691" lon="7.10526">
        <ele>2652</ele>
        <time>2022-07-14T07:55:17Z</time>
      </trkpt>
      <trkpt lat="44.66909" lon="7.10521">
        <ele>2651</ele>
        <time>2022-07-14T07:55:25Z</time>
      </trkpt>
      <trkpt lat="44.66912" lon="7.10518">
        <ele>2650</ele>
        <time>2022-07-14T07:55:31Z</time>
      </trkpt>
      <trkpt lat="44.66912" lon="7.10513">
        <ele>2650</ele>
        <time>2022-07-14T07:55:46Z</time>
      </trkpt>
      <trkpt lat="44.66912" lon="7.10507">
        <ele>2648</ele>
        <time>2022-07-14T07:55:53Z</time>
      </trkpt>
      <trkpt lat="44.66912" lon="7.10501">
        <ele>2647</ele>
        <time>2022-07-14T07:55:57Z</time>
      </trkpt>
      <trkpt lat="44.66916" lon="7.105">
        <ele>2646</ele>
        <time>2022-07-14T07:56:03Z</time>
      </trkpt>
      <trkpt lat="44.66921" lon="7.10504">
        <ele>2645</ele>
        <time>2022-07-14T07:56:08Z</time>
      </trkpt>
      <trkpt lat="44.66925" lon="7.10502">
        <ele>2643</ele>
        <time>2022-07-14T07:56:12Z</time>
      </trkpt>
      <trkpt lat="44.66934" lon="7.10502">
        <ele>2642</ele>
        <time>2022-07-14T07:56:20Z</time>
      </trkpt>
      <trkpt lat="44.66937" lon="7.10504">
        <ele>2642</ele>
        <time>2022-07-14T07:56:23Z</time>
      </trkpt>
      <trkpt lat="44.66937" lon="7.1051">
        <ele>2642</ele>
        <time>2022-07-14T07:56:28Z</time>
      </trkpt>
      <trkpt lat="44.66939" lon="7.10515">
        <ele>2643</ele>
        <time>2022-07-14T07:56:33Z</time>
      </trkpt>
      <trkpt lat="44.66951" lon="7.10518">
        <ele>2647</ele>
        <time>2022-07-14T07:56:48Z</time>
      </trkpt>
      <trkpt lat="44.66977" lon="7.10508">
        <ele>2646</ele>
        <time>2022-07-14T07:57:21Z</time>
      </trkpt>
      <trkpt lat="44.6698" lon="7.10506">
        <ele>2648</ele>
        <time>2022-07-14T07:57:26Z</time>
      </trkpt>
      <trkpt lat="44.66983" lon="7.10506">
        <ele>2647</ele>
        <time>2022-07-14T07:57:31Z</time>
      </trkpt>
      <trkpt lat="44.66994" lon="7.10506">
        <ele>2647</ele>
        <time>2022-07-14T07:57:46Z</time>
      </trkpt>
      <trkpt lat="44.66996" lon="7.10501">
        <ele>2647</ele>
        <time>2022-07-14T07:57:51Z</time>
      </trkpt>
      <trkpt lat="44.67" lon="7.10501">
        <ele>2649</ele>
        <time>2022-07-14T07:57:57Z</time>
      </trkpt>
      <trkpt lat="44.67006" lon="7.10492">
        <ele>2653</ele>
        <time>2022-07-14T07:58:12Z</time>
      </trkpt>
      <trkpt lat="44.67013" lon="7.10487">
        <ele>2652</ele>
        <time>2022-07-14T07:58:24Z</time>
      </trkpt>
      <trkpt lat="44.67017" lon="7.10488">
        <ele>2654</ele>
        <time>2022-07-14T07:58:29Z</time>
      </trkpt>
      <trkpt lat="44.67028" lon="7.10483">
        <ele>2655</ele>
        <time>2022-07-14T07:58:47Z</time>
      </trkpt>
      <trkpt lat="44.67032" lon="7.10481">
        <ele>2655</ele>
        <time>2022-07-14T07:58:51Z</time>
      </trkpt>
      <trkpt lat="44.67036" lon="7.10478">
        <ele>2656</ele>
        <time>2022-07-14T07:58:56Z</time>
      </trkpt>
      <trkpt lat="44.6705" lon="7.1047">
        <ele>2654</ele>
        <time>2022-07-14T07:59:17Z</time>
      </trkpt>
      <trkpt lat="44.67057" lon="7.10455">
        <ele>2655</ele>
        <time>2022-07-14T07:59:33Z</time>
      </trkpt>
      <trkpt lat="44.67059" lon="7.10451">
        <ele>2658</ele>
        <time>2022-07-14T07:59:42Z</time>
      </trkpt>
      <trkpt lat="44.67063" lon="7.10452">
        <ele>2659</ele>
        <time>2022-07-14T07:59:49Z</time>
      </trkpt>
      <trkpt lat="44.67065" lon="7.10447">
        <ele>2661</ele>
        <time>2022-07-14T07:59:56Z</time>
      </trkpt>
      <trkpt lat="44.67075" lon="7.10431">
        <ele>2659</ele>
        <time>2022-07-14T08:00:17Z</time>
      </trkpt>
      <trkpt lat="44.67082" lon="7.10428">
        <ele>2658</ele>
        <time>2022-07-14T08:00:28Z</time>
      </trkpt>
      <trkpt lat="44.67086" lon="7.10428">
        <ele>2660</ele>
        <time>2022-07-14T08:00:34Z</time>
      </trkpt>
      <trkpt lat="44.67089" lon="7.10427">
        <ele>2660</ele>
        <time>2022-07-14T08:00:38Z</time>
      </trkpt>
      <trkpt lat="44.67099" lon="7.1042">
        <ele>2662</ele>
        <time>2022-07-14T08:00:56Z</time>
      </trkpt>
      <trkpt lat="44.67101" lon="7.10415">
        <ele>2662</ele>
        <time>2022-07-14T08:01:02Z</time>
      </trkpt>
      <trkpt lat="44.6711" lon="7.10405">
        <ele>2661</ele>
        <time>2022-07-14T08:01:19Z</time>
      </trkpt>
      <trkpt lat="44.67113" lon="7.10403">
        <ele>2660</ele>
        <time>2022-07-14T08:01:23Z</time>
      </trkpt>
      <trkpt lat="44.67115" lon="7.10398">
        <ele>2660</ele>
        <time>2022-07-14T08:01:28Z</time>
      </trkpt>
      <trkpt lat="44.67117" lon="7.10394">
        <ele>2660</ele>
        <time>2022-07-14T08:01:33Z</time>
      </trkpt>
      <trkpt lat="44.67123" lon="7.10387">
        <ele>2660</ele>
        <time>2022-07-14T08:01:43Z</time>
      </trkpt>
      <trkpt lat="44.67134" lon="7.10387">
        <ele>2659</ele>
        <time>2022-07-14T08:02:12Z</time>
      </trkpt>
      <trkpt lat="44.67138" lon="7.10385">
        <ele>2659</ele>
        <time>2022-07-14T08:02:16Z</time>
      </trkpt>
      <trkpt lat="44.67141" lon="7.10391">
        <ele>2659</ele>
        <time>2022-07-14T08:02:29Z</time>
      </trkpt>
      <trkpt lat="44.67142" lon="7.10396">
        <ele>2656</ele>
        <time>2022-07-14T08:02:34Z</time>
      </trkpt>
      <trkpt lat="44.67146" lon="7.10397">
        <ele>2656</ele>
        <time>2022-07-14T08:02:53Z</time>
      </trkpt>
      <trkpt lat="44.67149" lon="7.10393">
        <ele>2656</ele>
        <time>2022-07-14T08:02:57Z</time>
      </trkpt>
      <trkpt lat="44.67149" lon="7.10388">
        <ele>2657</ele>
        <time>2022-07-14T08:02:59Z</time>
      </trkpt>
      <trkpt lat="44.67149" lon="7.10383">
        <ele>2657</ele>
        <time>2022-07-14T08:03:03Z</time>
      </trkpt>
      <trkpt lat="44.67153" lon="7.10383">
        <ele>2658</ele>
        <time>2022-07-14T08:03:07Z</time>
      </trkpt>
      <trkpt lat="44.67154" lon="7.10388">
        <ele>2658</ele>
        <time>2022-07-14T08:03:10Z</time>
      </trkpt>
      <trkpt lat="44.67158" lon="7.10391">
        <ele>2657</ele>
        <time>2022-07-14T08:03:15Z</time>
      </trkpt>
      <trkpt lat="44.67161" lon="7.10393">
        <ele>2656</ele>
        <time>2022-07-14T08:03:19Z</time>
      </trkpt>
      <trkpt lat="44.67165" lon="7.10391">
        <ele>2657</ele>
        <time>2022-07-14T08:03:24Z</time>
      </trkpt>
      <trkpt lat="44.67172" lon="7.10388">
        <ele>2659</ele>
        <time>2022-07-14T08:03:34Z</time>
      </trkpt>
      <trkpt lat="44.67176" lon="7.10387">
        <ele>2659</ele>
        <time>2022-07-14T08:03:38Z</time>
      </trkpt>
      <trkpt lat="44.67182" lon="7.10383">
        <ele>2658</ele>
        <time>2022-07-14T08:03:47Z</time>
      </trkpt>
      <trkpt lat="44.67185" lon="7.1038">
        <ele>2656</ele>
        <time>2022-07-14T08:03:52Z</time>
      </trkpt>
      <trkpt lat="44.67192" lon="7.10374">
        <ele>2656</ele>
        <time>2022-07-14T08:04:03Z</time>
      </trkpt>
      <trkpt lat="44.672" lon="7.10363">
        <ele>2656</ele>
        <time>2022-07-14T08:04:19Z</time>
      </trkpt>
      <trkpt lat="44.67203" lon="7.1036">
        <ele>2655</ele>
        <time>2022-07-14T08:04:25Z</time>
      </trkpt>
      <trkpt lat="44.67206" lon="7.10357">
        <ele>2656</ele>
        <time>2022-07-14T08:04:30Z</time>
      </trkpt>
      <trkpt lat="44.67209" lon="7.10353">
        <ele>2658</ele>
        <time>2022-07-14T08:04:36Z</time>
      </trkpt>
      <trkpt lat="44.67212" lon="7.1035">
        <ele>2659</ele>
        <time>2022-07-14T08:04:41Z</time>
      </trkpt>
      <trkpt lat="44.67214" lon="7.10347">
        <ele>2660</ele>
        <time>2022-07-14T08:04:47Z</time>
      </trkpt>
      <trkpt lat="44.67217" lon="7.10343">
        <ele>2660</ele>
        <time>2022-07-14T08:04:54Z</time>
      </trkpt>
      <trkpt lat="44.67217" lon="7.10337">
        <ele>2659</ele>
        <time>2022-07-14T08:05:00Z</time>
      </trkpt>
      <trkpt lat="44.6722" lon="7.10334">
        <ele>2658</ele>
        <time>2022-07-14T08:05:06Z</time>
      </trkpt>
      <trkpt lat="44.67225" lon="7.10337">
        <ele>2654</ele>
        <time>2022-07-14T08:05:26Z</time>
      </trkpt>
      <trkpt lat="44.67229" lon="7.10339">
        <ele>2653</ele>
        <time>2022-07-14T08:06:29Z</time>
      </trkpt>
      <trkpt lat="44.67229" lon="7.10334">
        <ele>2653</ele>
        <time>2022-07-14T08:06:35Z</time>
      </trkpt>
      <trkpt lat="44.67227" lon="7.10329">
        <ele>2653</ele>
        <time>2022-07-14T08:06:38Z</time>
      </trkpt>
      <trkpt lat="44.67234" lon="7.10326">
        <ele>2654</ele>
        <time>2022-07-14T08:06:46Z</time>
      </trkpt>
      <trkpt lat="44.67237" lon="7.10324">
        <ele>2652</ele>
        <time>2022-07-14T08:06:50Z</time>
      </trkpt>
      <trkpt lat="44.67241" lon="7.10325">
        <ele>2652</ele>
        <time>2022-07-14T08:06:54Z</time>
      </trkpt>
      <trkpt lat="44.67247" lon="7.1032">
        <ele>2651</ele>
        <time>2022-07-14T08:07:10Z</time>
      </trkpt>
      <trkpt lat="44.67253" lon="7.10312">
        <ele>2651</ele>
        <time>2022-07-14T08:07:22Z</time>
      </trkpt>
      <trkpt lat="44.67253" lon="7.10308">
        <ele>2648</ele>
        <time>2022-07-14T08:07:34Z</time>
      </trkpt>
      <trkpt lat="44.67245" lon="7.10305">
        <ele>2646</ele>
        <time>2022-07-14T08:07:42Z</time>
      </trkpt>
      <trkpt lat="44.67246" lon="7.10299">
        <ele>2646</ele>
        <time>2022-07-14T08:07:46Z</time>
      </trkpt>
      <trkpt lat="44.67252" lon="7.10291">
        <ele>2644</ele>
        <time>2022-07-14T08:07:54Z</time>
      </trkpt>
      <trkpt lat="44.67249" lon="7.10287">
        <ele>2642</ele>
        <time>2022-07-14T08:08:05Z</time>
      </trkpt>
      <trkpt lat="44.67249" lon="7.10281">
        <ele>2639</ele>
        <time>2022-07-14T08:08:11Z</time>
      </trkpt>
      <trkpt lat="44.67253" lon="7.10279">
        <ele>2638</ele>
        <time>2022-07-14T08:08:15Z</time>
      </trkpt>
      <trkpt lat="44.6726" lon="7.10273">
        <ele>2637</ele>
        <time>2022-07-14T08:08:23Z</time>
      </trkpt>
      <trkpt lat="44.67265" lon="7.10265">
        <ele>2637</ele>
        <time>2022-07-14T08:08:32Z</time>
      </trkpt>
      <trkpt lat="44.67269" lon="7.10255">
        <ele>2638</ele>
        <time>2022-07-14T08:08:40Z</time>
      </trkpt>
      <trkpt lat="44.6727" lon="7.10251">
        <ele>2639</ele>
        <time>2022-07-14T08:08:44Z</time>
      </trkpt>
      <trkpt lat="44.67269" lon="7.10246">
        <ele>2639</ele>
        <time>2022-07-14T08:08:49Z</time>
      </trkpt>
      <trkpt lat="44.67273" lon="7.10231">
        <ele>2638</ele>
        <time>2022-07-14T08:09:04Z</time>
      </trkpt>
      <trkpt lat="44.6728" lon="7.10223">
        <ele>2638</ele>
        <time>2022-07-14T08:09:13Z</time>
      </trkpt>
      <trkpt lat="44.67284" lon="7.1022">
        <ele>2637</ele>
        <time>2022-07-14T08:09:18Z</time>
      </trkpt>
      <trkpt lat="44.67296" lon="7.10219">
        <ele>2636</ele>
        <time>2022-07-14T08:09:31Z</time>
      </trkpt>
      <trkpt lat="44.673" lon="7.10216">
        <ele>2636</ele>
        <time>2022-07-14T08:09:36Z</time>
      </trkpt>
      <trkpt lat="44.67302" lon="7.10211">
        <ele>2635</ele>
        <time>2022-07-14T08:09:41Z</time>
      </trkpt>
      <trkpt lat="44.67304" lon="7.10206">
        <ele>2633</ele>
        <time>2022-07-14T08:09:46Z</time>
      </trkpt>
      <trkpt lat="44.67305" lon="7.10201">
        <ele>2633</ele>
        <time>2022-07-14T08:09:51Z</time>
      </trkpt>
      <trkpt lat="44.67306" lon="7.10195">
        <ele>2633</ele>
        <time>2022-07-14T08:09:58Z</time>
      </trkpt>
      <trkpt lat="44.67309" lon="7.10184">
        <ele>2632</ele>
        <time>2022-07-14T08:10:07Z</time>
      </trkpt>
      <trkpt lat="44.67309" lon="7.10179">
        <ele>2631</ele>
        <time>2022-07-14T08:10:13Z</time>
      </trkpt>
      <trkpt lat="44.67317" lon="7.1016">
        <ele>2630</ele>
        <time>2022-07-14T08:10:31Z</time>
      </trkpt>
      <trkpt lat="44.67317" lon="7.10155">
        <ele>2630</ele>
        <time>2022-07-14T08:10:34Z</time>
      </trkpt>
      <trkpt lat="44.67316" lon="7.10149">
        <ele>2627</ele>
        <time>2022-07-14T08:10:38Z</time>
      </trkpt>
      <trkpt lat="44.67315" lon="7.10144">
        <ele>2625</ele>
        <time>2022-07-14T08:10:54Z</time>
      </trkpt>
      <trkpt lat="44.67318" lon="7.1014">
        <ele>2622</ele>
        <time>2022-07-14T08:11:07Z</time>
      </trkpt>
      <trkpt lat="44.67318" lon="7.10135">
        <ele>2621</ele>
        <time>2022-07-14T08:11:15Z</time>
      </trkpt>
      <trkpt lat="44.67322" lon="7.10133">
        <ele>2619</ele>
        <time>2022-07-14T08:11:19Z</time>
      </trkpt>
      <trkpt lat="44.67325" lon="7.1013">
        <ele>2619</ele>
        <time>2022-07-14T08:11:24Z</time>
      </trkpt>
      <trkpt lat="44.67333" lon="7.10127">
        <ele>2618</ele>
        <time>2022-07-14T08:11:34Z</time>
      </trkpt>
      <trkpt lat="44.67336" lon="7.10124">
        <ele>2618</ele>
        <time>2022-07-14T08:11:39Z</time>
      </trkpt>
      <trkpt lat="44.67343" lon="7.10125">
        <ele>2619</ele>
        <time>2022-07-14T08:11:48Z</time>
      </trkpt>
      <trkpt lat="44.67346" lon="7.10122">
        <ele>2618</ele>
        <time>2022-07-14T08:11:55Z</time>
      </trkpt>
      <trkpt lat="44.6735" lon="7.10119">
        <ele>2618</ele>
        <time>2022-07-14T08:12:01Z</time>
      </trkpt>
      <trkpt lat="44.67351" lon="7.10114">
        <ele>2619</ele>
        <time>2022-07-14T08:12:07Z</time>
      </trkpt>
      <trkpt lat="44.67353" lon="7.1011">
        <ele>2620</ele>
        <time>2022-07-14T08:12:13Z</time>
      </trkpt>
      <trkpt lat="44.67355" lon="7.10106">
        <ele>2621</ele>
        <time>2022-07-14T08:12:17Z</time>
      </trkpt>
      <trkpt lat="44.67362" lon="7.10105">
        <ele>2620</ele>
        <time>2022-07-14T08:12:28Z</time>
      </trkpt>
      <trkpt lat="44.67365" lon="7.10107">
        <ele>2619</ele>
        <time>2022-07-14T08:12:31Z</time>
      </trkpt>
      <trkpt lat="44.67369" lon="7.10106">
        <ele>2619</ele>
        <time>2022-07-14T08:12:35Z</time>
      </trkpt>
      <trkpt lat="44.67374" lon="7.10107">
        <ele>2619</ele>
        <time>2022-07-14T08:12:39Z</time>
      </trkpt>
      <trkpt lat="44.67377" lon="7.10108">
        <ele>2619</ele>
        <time>2022-07-14T08:12:43Z</time>
      </trkpt>
      <trkpt lat="44.67381" lon="7.1011">
        <ele>2620</ele>
        <time>2022-07-14T08:12:47Z</time>
      </trkpt>
      <trkpt lat="44.67384" lon="7.10112">
        <ele>2620</ele>
        <time>2022-07-14T08:12:52Z</time>
      </trkpt>
      <trkpt lat="44.67388" lon="7.1011">
        <ele>2621</ele>
        <time>2022-07-14T08:12:57Z</time>
      </trkpt>
      <trkpt lat="44.6739" lon="7.10106">
        <ele>2621</ele>
        <time>2022-07-14T08:13:01Z</time>
      </trkpt>
      <trkpt lat="44.6739" lon="7.101">
        <ele>2622</ele>
        <time>2022-07-14T08:13:06Z</time>
      </trkpt>
      <trkpt lat="44.67386" lon="7.10098">
        <ele>2621</ele>
        <time>2022-07-14T08:13:10Z</time>
      </trkpt>
      <trkpt lat="44.67386" lon="7.10093">
        <ele>2621</ele>
        <time>2022-07-14T08:13:15Z</time>
      </trkpt>
      <trkpt lat="44.67393" lon="7.10096">
        <ele>2622</ele>
        <time>2022-07-14T08:13:24Z</time>
      </trkpt>
      <trkpt lat="44.67397" lon="7.10097">
        <ele>2624</ele>
        <time>2022-07-14T08:13:28Z</time>
      </trkpt>
      <trkpt lat="44.67401" lon="7.10096">
        <ele>2624</ele>
        <time>2022-07-14T08:13:33Z</time>
      </trkpt>
      <trkpt lat="44.67404" lon="7.10094">
        <ele>2624</ele>
        <time>2022-07-14T08:13:38Z</time>
      </trkpt>
      <trkpt lat="44.67408" lon="7.10093">
        <ele>2624</ele>
        <time>2022-07-14T08:13:44Z</time>
      </trkpt>
      <trkpt lat="44.67411" lon="7.10091">
        <ele>2624</ele>
        <time>2022-07-14T08:13:49Z</time>
      </trkpt>
      <trkpt lat="44.67415" lon="7.10092">
        <ele>2624</ele>
        <time>2022-07-14T08:13:55Z</time>
      </trkpt>
      <trkpt lat="44.67424" lon="7.10087">
        <ele>2624</ele>
        <time>2022-07-14T08:14:13Z</time>
      </trkpt>
      <trkpt lat="44.67428" lon="7.10085">
        <ele>2624</ele>
        <time>2022-07-14T08:14:19Z</time>
      </trkpt>
      <trkpt lat="44.67443" lon="7.10087">
        <ele>2620</ele>
        <time>2022-07-14T08:14:51Z</time>
      </trkpt>
      <trkpt lat="44.67447" lon="7.10086">
        <ele>2620</ele>
        <time>2022-07-14T08:14:58Z</time>
      </trkpt>
      <trkpt lat="44.6745" lon="7.10086">
        <ele>2620</ele>
        <time>2022-07-14T08:15:04Z</time>
      </trkpt>
      <trkpt lat="44.67454" lon="7.10088">
        <ele>2620</ele>
        <time>2022-07-14T08:15:11Z</time>
      </trkpt>
      <trkpt lat="44.67455" lon="7.10083">
        <ele>2620</ele>
        <time>2022-07-14T08:15:16Z</time>
      </trkpt>
      <trkpt lat="44.67457" lon="7.10078">
        <ele>2618</ele>
        <time>2022-07-14T08:15:22Z</time>
      </trkpt>
      <trkpt lat="44.67463" lon="7.10073">
        <ele>2615</ele>
        <time>2022-07-14T08:15:34Z</time>
      </trkpt>
      <trkpt lat="44.67467" lon="7.10071">
        <ele>2613</ele>
        <time>2022-07-14T08:15:44Z</time>
      </trkpt>
      <trkpt lat="44.6747" lon="7.10074">
        <ele>2611</ele>
        <time>2022-07-14T08:15:49Z</time>
      </trkpt>
      <trkpt lat="44.67475" lon="7.10076">
        <ele>2611</ele>
        <time>2022-07-14T08:15:56Z</time>
      </trkpt>
      <trkpt lat="44.67476" lon="7.10071">
        <ele>2612</ele>
        <time>2022-07-14T08:16:01Z</time>
      </trkpt>
      <trkpt lat="44.6748" lon="7.10074">
        <ele>2612</ele>
        <time>2022-07-14T08:16:09Z</time>
      </trkpt>
      <trkpt lat="44.6748" lon="7.10079">
        <ele>2612</ele>
        <time>2022-07-14T08:16:13Z</time>
      </trkpt>
      <trkpt lat="44.67484" lon="7.1008">
        <ele>2611</ele>
        <time>2022-07-14T08:16:20Z</time>
      </trkpt>
      <trkpt lat="44.67487" lon="7.10081">
        <ele>2611</ele>
        <time>2022-07-14T08:16:28Z</time>
      </trkpt>
      <trkpt lat="44.67491" lon="7.10081">
        <ele>2610</ele>
        <time>2022-07-14T08:16:33Z</time>
      </trkpt>
      <trkpt lat="44.67495" lon="7.10079">
        <ele>2609</ele>
        <time>2022-07-14T08:16:40Z</time>
      </trkpt>
      <trkpt lat="44.67498" lon="7.10081">
        <ele>2607</ele>
        <time>2022-07-14T08:16:46Z</time>
      </trkpt>
      <trkpt lat="44.67502" lon="7.10083">
        <ele>2606</ele>
        <time>2022-07-14T08:16:51Z</time>
      </trkpt>
      <trkpt lat="44.67512" lon="7.10087">
        <ele>2604</ele>
        <time>2022-07-14T08:17:10Z</time>
      </trkpt>
      <trkpt lat="44.67515" lon="7.1009">
        <ele>2605</ele>
        <time>2022-07-14T08:17:16Z</time>
      </trkpt>
      <trkpt lat="44.67516" lon="7.10095">
        <ele>2605</ele>
        <time>2022-07-14T08:17:31Z</time>
      </trkpt>
      <trkpt lat="44.67523" lon="7.101">
        <ele>2604</ele>
        <time>2022-07-14T08:17:44Z</time>
      </trkpt>
      <trkpt lat="44.67534" lon="7.10105">
        <ele>2600</ele>
        <time>2022-07-14T08:18:05Z</time>
      </trkpt>
      <trkpt lat="44.67537" lon="7.10107">
        <ele>2600</ele>
        <time>2022-07-14T08:18:12Z</time>
      </trkpt>
      <trkpt lat="44.67541" lon="7.10108">
        <ele>2599</ele>
        <time>2022-07-14T08:18:17Z</time>
      </trkpt>
      <trkpt lat="44.67545" lon="7.10107">
        <ele>2598</ele>
        <time>2022-07-14T08:18:23Z</time>
      </trkpt>
      <trkpt lat="44.67548" lon="7.10111">
        <ele>2597</ele>
        <time>2022-07-14T08:18:29Z</time>
      </trkpt>
      <trkpt lat="44.6755" lon="7.10116">
        <ele>2597</ele>
        <time>2022-07-14T08:18:34Z</time>
      </trkpt>
      <trkpt lat="44.67553" lon="7.10118">
        <ele>2597</ele>
        <time>2022-07-14T08:18:40Z</time>
      </trkpt>
      <trkpt lat="44.67557" lon="7.1012">
        <ele>2597</ele>
        <time>2022-07-14T08:18:45Z</time>
      </trkpt>
      <trkpt lat="44.67561" lon="7.10121">
        <ele>2597</ele>
        <time>2022-07-14T08:18:50Z</time>
      </trkpt>
      <trkpt lat="44.67571" lon="7.10125">
        <ele>2593</ele>
        <time>2022-07-14T08:19:17Z</time>
      </trkpt>
      <trkpt lat="44.67575" lon="7.10127">
        <ele>2592</ele>
        <time>2022-07-14T08:19:22Z</time>
      </trkpt>
      <trkpt lat="44.67579" lon="7.10129">
        <ele>2592</ele>
        <time>2022-07-14T08:19:27Z</time>
      </trkpt>
      <trkpt lat="44.67582" lon="7.10131">
        <ele>2592</ele>
        <time>2022-07-14T08:19:31Z</time>
      </trkpt>
      <trkpt lat="44.67585" lon="7.10134">
        <ele>2590</ele>
        <time>2022-07-14T08:19:37Z</time>
      </trkpt>
      <trkpt lat="44.6759" lon="7.10142">
        <ele>2591</ele>
        <time>2022-07-14T08:19:50Z</time>
      </trkpt>
      <trkpt lat="44.67591" lon="7.10148">
        <ele>2591</ele>
        <time>2022-07-14T08:19:56Z</time>
      </trkpt>
      <trkpt lat="44.67598" lon="7.10153">
        <ele>2593</ele>
        <time>2022-07-14T08:20:08Z</time>
      </trkpt>
      <trkpt lat="44.676" lon="7.10156">
        <ele>2594</ele>
        <time>2022-07-14T08:20:46Z</time>
      </trkpt>
      <trkpt lat="44.67602" lon="7.1016">
        <ele>2594</ele>
        <time>2022-07-14T08:20:50Z</time>
      </trkpt>
      <trkpt lat="44.676" lon="7.10165">
        <ele>2592</ele>
        <time>2022-07-14T08:20:54Z</time>
      </trkpt>
      <trkpt lat="44.67599" lon="7.1017">
        <ele>2591</ele>
        <time>2022-07-14T08:20:58Z</time>
      </trkpt>
      <trkpt lat="44.67597" lon="7.10174">
        <ele>2591</ele>
        <time>2022-07-14T08:21:02Z</time>
      </trkpt>
      <trkpt lat="44.67598" lon="7.1018">
        <ele>2591</ele>
        <time>2022-07-14T08:21:06Z</time>
      </trkpt>
      <trkpt lat="44.676" lon="7.10184">
        <ele>2591</ele>
        <time>2022-07-14T08:21:11Z</time>
      </trkpt>
      <trkpt lat="44.67608" lon="7.10184">
        <ele>2588</ele>
        <time>2022-07-14T08:21:22Z</time>
      </trkpt>
      <trkpt lat="44.67611" lon="7.10186">
        <ele>2589</ele>
        <time>2022-07-14T08:21:29Z</time>
      </trkpt>
      <trkpt lat="44.67614" lon="7.1019">
        <ele>2588</ele>
        <time>2022-07-14T08:21:33Z</time>
      </trkpt>
      <trkpt lat="44.67617" lon="7.1019">
        <ele>2588</ele>
        <time>2022-07-14T08:21:39Z</time>
      </trkpt>
      <trkpt lat="44.6762" lon="7.10192">
        <ele>2588</ele>
        <time>2022-07-14T08:21:45Z</time>
      </trkpt>
      <trkpt lat="44.67634" lon="7.10199">
        <ele>2589</ele>
        <time>2022-07-14T08:22:08Z</time>
      </trkpt>
      <trkpt lat="44.67637" lon="7.10202">
        <ele>2589</ele>
        <time>2022-07-14T08:22:13Z</time>
      </trkpt>
      <trkpt lat="44.67641" lon="7.10202">
        <ele>2588</ele>
        <time>2022-07-14T08:22:19Z</time>
      </trkpt>
      <trkpt lat="44.67648" lon="7.10205">
        <ele>2587</ele>
        <time>2022-07-14T08:22:28Z</time>
      </trkpt>
      <trkpt lat="44.6765" lon="7.10211">
        <ele>2586</ele>
        <time>2022-07-14T08:22:34Z</time>
      </trkpt>
      <trkpt lat="44.67649" lon="7.10216">
        <ele>2585</ele>
        <time>2022-07-14T08:22:40Z</time>
      </trkpt>
      <trkpt lat="44.67651" lon="7.1022">
        <ele>2584</ele>
        <time>2022-07-14T08:22:53Z</time>
      </trkpt>
      <trkpt lat="44.67652" lon="7.10226">
        <ele>2583</ele>
        <time>2022-07-14T08:23:07Z</time>
      </trkpt>
      <trkpt lat="44.67656" lon="7.10228">
        <ele>2582</ele>
        <time>2022-07-14T08:23:14Z</time>
      </trkpt>
      <trkpt lat="44.67662" lon="7.10232">
        <ele>2581</ele>
        <time>2022-07-14T08:23:25Z</time>
      </trkpt>
      <trkpt lat="44.6767" lon="7.10232">
        <ele>2580</ele>
        <time>2022-07-14T08:23:36Z</time>
      </trkpt>
      <trkpt lat="44.67673" lon="7.10232">
        <ele>2580</ele>
        <time>2022-07-14T08:23:40Z</time>
      </trkpt>
      <trkpt lat="44.67677" lon="7.10232">
        <ele>2581</ele>
        <time>2022-07-14T08:23:45Z</time>
      </trkpt>
      <trkpt lat="44.6768" lon="7.10235">
        <ele>2580</ele>
        <time>2022-07-14T08:23:52Z</time>
      </trkpt>
      <trkpt lat="44.67684" lon="7.10235">
        <ele>2577</ele>
        <time>2022-07-14T08:23:58Z</time>
      </trkpt>
      <trkpt lat="44.67688" lon="7.10236">
        <ele>2577</ele>
        <time>2022-07-14T08:24:04Z</time>
      </trkpt>
      <trkpt lat="44.67691" lon="7.10239">
        <ele>2578</ele>
        <time>2022-07-14T08:24:09Z</time>
      </trkpt>
      <trkpt lat="44.67694" lon="7.10238">
        <ele>2577</ele>
        <time>2022-07-14T08:24:18Z</time>
      </trkpt>
      <trkpt lat="44.67699" lon="7.1024">
        <ele>2574</ele>
        <time>2022-07-14T08:24:35Z</time>
      </trkpt>
      <trkpt lat="44.67703" lon="7.1024">
        <ele>2573</ele>
        <time>2022-07-14T08:24:42Z</time>
      </trkpt>
      <trkpt lat="44.67707" lon="7.10242">
        <ele>2573</ele>
        <time>2022-07-14T08:24:47Z</time>
      </trkpt>
      <trkpt lat="44.67711" lon="7.10244">
        <ele>2572</ele>
        <time>2022-07-14T08:24:53Z</time>
      </trkpt>
      <trkpt lat="44.67726" lon="7.10244">
        <ele>2568</ele>
        <time>2022-07-14T08:25:29Z</time>
      </trkpt>
      <trkpt lat="44.6773" lon="7.10245">
        <ele>2568</ele>
        <time>2022-07-14T08:25:37Z</time>
      </trkpt>
      <trkpt lat="44.67733" lon="7.10244">
        <ele>2567</ele>
        <time>2022-07-14T08:25:46Z</time>
      </trkpt>
      <trkpt lat="44.67738" lon="7.10243">
        <ele>2567</ele>
        <time>2022-07-14T08:25:51Z</time>
      </trkpt>
      <trkpt lat="44.67741" lon="7.10246">
        <ele>2567</ele>
        <time>2022-07-14T08:25:54Z</time>
      </trkpt>
      <trkpt lat="44.67741" lon="7.10253">
        <ele>2568</ele>
        <time>2022-07-14T08:25:55Z</time>
      </trkpt>
      <trkpt lat="44.67735" lon="7.1026">
        <ele>2568</ele>
        <time>2022-07-14T08:26:01Z</time>
      </trkpt>
      <trkpt lat="44.67737" lon="7.10264">
        <ele>2569</ele>
        <time>2022-07-14T08:26:07Z</time>
      </trkpt>
      <trkpt lat="44.6774" lon="7.10267">
        <ele>2568</ele>
        <time>2022-07-14T08:26:12Z</time>
      </trkpt>
      <trkpt lat="44.67747" lon="7.1027">
        <ele>2566</ele>
        <time>2022-07-14T08:26:22Z</time>
      </trkpt>
      <trkpt lat="44.67752" lon="7.10269">
        <ele>2565</ele>
        <time>2022-07-14T08:26:29Z</time>
      </trkpt>
      <trkpt lat="44.67755" lon="7.10268">
        <ele>2564</ele>
        <time>2022-07-14T08:26:34Z</time>
      </trkpt>
      <trkpt lat="44.67758" lon="7.10265">
        <ele>2563</ele>
        <time>2022-07-14T08:26:38Z</time>
      </trkpt>
      <trkpt lat="44.67761" lon="7.10262">
        <ele>2561</ele>
        <time>2022-07-14T08:26:45Z</time>
      </trkpt>
      <trkpt lat="44.67768" lon="7.10261">
        <ele>2560</ele>
        <time>2022-07-14T08:26:53Z</time>
      </trkpt>
      <trkpt lat="44.67771" lon="7.10264">
        <ele>2560</ele>
        <time>2022-07-14T08:26:57Z</time>
      </trkpt>
      <trkpt lat="44.67776" lon="7.10265">
        <ele>2560</ele>
        <time>2022-07-14T08:27:02Z</time>
      </trkpt>
      <trkpt lat="44.67779" lon="7.10268">
        <ele>2560</ele>
        <time>2022-07-14T08:27:07Z</time>
      </trkpt>
      <trkpt lat="44.67782" lon="7.1027">
        <ele>2560</ele>
        <time>2022-07-14T08:27:14Z</time>
      </trkpt>
      <trkpt lat="44.67785" lon="7.10273">
        <ele>2559</ele>
        <time>2022-07-14T08:27:20Z</time>
      </trkpt>
      <trkpt lat="44.67788" lon="7.10271">
        <ele>2561</ele>
        <time>2022-07-14T08:27:29Z</time>
      </trkpt>
      <trkpt lat="44.67787" lon="7.1026">
        <ele>2560</ele>
        <time>2022-07-14T08:27:41Z</time>
      </trkpt>
      <trkpt lat="44.67784" lon="7.10256">
        <ele>2558</ele>
        <time>2022-07-14T08:27:45Z</time>
      </trkpt>
      <trkpt lat="44.67783" lon="7.10251">
        <ele>2556</ele>
        <time>2022-07-14T08:27:49Z</time>
      </trkpt>
      <trkpt lat="44.67783" lon="7.10246">
        <ele>2554</ele>
        <time>2022-07-14T08:27:54Z</time>
      </trkpt>
      <trkpt lat="44.6779" lon="7.10241">
        <ele>2547</ele>
        <time>2022-07-14T08:28:16Z</time>
      </trkpt>
      <trkpt lat="44.67792" lon="7.10244">
        <ele>2546</ele>
        <time>2022-07-14T08:28:25Z</time>
      </trkpt>
      <trkpt lat="44.67793" lon="7.10249">
        <ele>2544</ele>
        <time>2022-07-14T08:28:31Z</time>
      </trkpt>
      <trkpt lat="44.67796" lon="7.10253">
        <ele>2543</ele>
        <time>2022-07-14T08:28:38Z</time>
      </trkpt>
      <trkpt lat="44.67796" lon="7.10258">
        <ele>2542</ele>
        <time>2022-07-14T08:28:44Z</time>
      </trkpt>
      <trkpt lat="44.67798" lon="7.10262">
        <ele>2542</ele>
        <time>2022-07-14T08:28:54Z</time>
      </trkpt>
      <trkpt lat="44.67799" lon="7.10267">
        <ele>2542</ele>
        <time>2022-07-14T08:29:00Z</time>
      </trkpt>
      <trkpt lat="44.67803" lon="7.10265">
        <ele>2541</ele>
        <time>2022-07-14T08:29:07Z</time>
      </trkpt>
      <trkpt lat="44.67806" lon="7.10268">
        <ele>2541</ele>
        <time>2022-07-14T08:29:12Z</time>
      </trkpt>
      <trkpt lat="44.67806" lon="7.10274">
        <ele>2540</ele>
        <time>2022-07-14T08:29:17Z</time>
      </trkpt>
      <trkpt lat="44.67804" lon="7.10278">
        <ele>2540</ele>
        <time>2022-07-14T08:29:21Z</time>
      </trkpt>
      <trkpt lat="44.678" lon="7.10278">
        <ele>2537</ele>
        <time>2022-07-14T08:29:26Z</time>
      </trkpt>
      <trkpt lat="44.67795" lon="7.1029">
        <ele>2535</ele>
        <time>2022-07-14T08:29:38Z</time>
      </trkpt>
      <trkpt lat="44.67796" lon="7.10303">
        <ele>2538</ele>
        <time>2022-07-14T08:29:54Z</time>
      </trkpt>
      <trkpt lat="44.67802" lon="7.10314">
        <ele>2539</ele>
        <time>2022-07-14T08:30:03Z</time>
      </trkpt>
      <trkpt lat="44.67811" lon="7.10318">
        <ele>2539</ele>
        <time>2022-07-14T08:30:16Z</time>
      </trkpt>
      <trkpt lat="44.67819" lon="7.10321">
        <ele>2538</ele>
        <time>2022-07-14T08:30:29Z</time>
      </trkpt>
      <trkpt lat="44.67828" lon="7.10325">
        <ele>2533</ele>
        <time>2022-07-14T08:31:05Z</time>
      </trkpt>
      <trkpt lat="44.67837" lon="7.1033">
        <ele>2532</ele>
        <time>2022-07-14T08:31:27Z</time>
      </trkpt>
      <trkpt lat="44.67846" lon="7.10334">
        <ele>2527</ele>
        <time>2022-07-14T08:31:47Z</time>
      </trkpt>
      <trkpt lat="44.67864" lon="7.10334">
        <ele>2527</ele>
        <time>2022-07-14T08:32:23Z</time>
      </trkpt>
      <trkpt lat="44.67873" lon="7.10331">
        <ele>2525</ele>
        <time>2022-07-14T08:32:41Z</time>
      </trkpt>
      <trkpt lat="44.67883" lon="7.10333">
        <ele>2524</ele>
        <time>2022-07-14T08:32:56Z</time>
      </trkpt>
      <trkpt lat="44.67892" lon="7.10335">
        <ele>2524</ele>
        <time>2022-07-14T08:33:10Z</time>
      </trkpt>
      <trkpt lat="44.67899" lon="7.10342">
        <ele>2527</ele>
        <time>2022-07-14T08:33:31Z</time>
      </trkpt>
      <trkpt lat="44.67906" lon="7.1035">
        <ele>2527</ele>
        <time>2022-07-14T08:33:57Z</time>
      </trkpt>
      <trkpt lat="44.67915" lon="7.10355">
        <ele>2524</ele>
        <time>2022-07-14T08:34:23Z</time>
      </trkpt>
      <trkpt lat="44.67923" lon="7.10347">
        <ele>2523</ele>
        <time>2022-07-14T08:35:11Z</time>
      </trkpt>
      <trkpt lat="44.67931" lon="7.1035">
        <ele>2516</ele>
        <time>2022-07-14T08:35:34Z</time>
      </trkpt>
      <trkpt lat="44.6794" lon="7.10344">
        <ele>2516</ele>
        <time>2022-07-14T08:35:44Z</time>
      </trkpt>
      <trkpt lat="44.67945" lon="7.10334">
        <ele>2512</ele>
        <time>2022-07-14T08:36:14Z</time>
      </trkpt>
      <trkpt lat="44.67944" lon="7.10331">
        <ele>2507</ele>
        <time>2022-07-14T08:36:30Z</time>
      </trkpt>
      <trkpt lat="44.67948" lon="7.10328">
        <ele>2506</ele>
        <time>2022-07-14T08:36:37Z</time>
      </trkpt>
      <trkpt lat="44.6796" lon="7.10326">
        <ele>2508</ele>
        <time>2022-07-14T08:36:52Z</time>
      </trkpt>
      <trkpt lat="44.67964" lon="7.10325">
        <ele>2508</ele>
        <time>2022-07-14T08:36:59Z</time>
      </trkpt>
      <trkpt lat="44.67967" lon="7.10325">
        <ele>2507</ele>
        <time>2022-07-14T08:37:06Z</time>
      </trkpt>
      <trkpt lat="44.67963" lon="7.10314">
        <ele>2505</ele>
        <time>2022-07-14T08:37:25Z</time>
      </trkpt>
      <trkpt lat="44.67959" lon="7.10302">
        <ele>2503</ele>
        <time>2022-07-14T08:37:37Z</time>
      </trkpt>
      <trkpt lat="44.67955" lon="7.10295">
        <ele>2502</ele>
        <time>2022-07-14T08:37:46Z</time>
      </trkpt>
      <trkpt lat="44.67957" lon="7.1029">
        <ele>2501</ele>
        <time>2022-07-14T08:37:52Z</time>
      </trkpt>
      <trkpt lat="44.67957" lon="7.10285">
        <ele>2500</ele>
        <time>2022-07-14T08:38:02Z</time>
      </trkpt>
      <trkpt lat="44.67958" lon="7.10279">
        <ele>2499</ele>
        <time>2022-07-14T08:38:08Z</time>
      </trkpt>
      <trkpt lat="44.67955" lon="7.10278">
        <ele>2498</ele>
        <time>2022-07-14T08:38:13Z</time>
      </trkpt>
      <trkpt lat="44.67951" lon="7.10276">
        <ele>2496</ele>
        <time>2022-07-14T08:38:19Z</time>
      </trkpt>
      <trkpt lat="44.67949" lon="7.10271">
        <ele>2495</ele>
        <time>2022-07-14T08:38:25Z</time>
      </trkpt>
      <trkpt lat="44.67946" lon="7.10272">
        <ele>2493</ele>
        <time>2022-07-14T08:38:31Z</time>
      </trkpt>
      <trkpt lat="44.67942" lon="7.10272">
        <ele>2492</ele>
        <time>2022-07-14T08:38:37Z</time>
      </trkpt>
      <trkpt lat="44.67943" lon="7.10267">
        <ele>2491</ele>
        <time>2022-07-14T08:38:41Z</time>
      </trkpt>
      <trkpt lat="44.67942" lon="7.10263">
        <ele>2489</ele>
        <time>2022-07-14T08:38:48Z</time>
      </trkpt>
      <trkpt lat="44.67938" lon="7.10267">
        <ele>2488</ele>
        <time>2022-07-14T08:38:53Z</time>
      </trkpt>
      <trkpt lat="44.67937" lon="7.10272">
        <ele>2489</ele>
        <time>2022-07-14T08:38:57Z</time>
      </trkpt>
      <trkpt lat="44.67934" lon="7.10275">
        <ele>2490</ele>
        <time>2022-07-14T08:39:01Z</time>
      </trkpt>
      <trkpt lat="44.67929" lon="7.10273">
        <ele>2492</ele>
        <time>2022-07-14T08:39:09Z</time>
      </trkpt>
      <trkpt lat="44.67931" lon="7.10268">
        <ele>2488</ele>
        <time>2022-07-14T08:39:29Z</time>
      </trkpt>
      <trkpt lat="44.67937" lon="7.10261">
        <ele>2488</ele>
        <time>2022-07-14T08:39:35Z</time>
      </trkpt>
      <trkpt lat="44.67939" lon="7.10257">
        <ele>2489</ele>
        <time>2022-07-14T08:39:38Z</time>
      </trkpt>
      <trkpt lat="44.67947" lon="7.10251">
        <ele>2490</ele>
        <time>2022-07-14T08:39:48Z</time>
      </trkpt>
      <trkpt lat="44.67948" lon="7.10246">
        <ele>2488</ele>
        <time>2022-07-14T08:40:01Z</time>
      </trkpt>
      <trkpt lat="44.6795" lon="7.10242">
        <ele>2488</ele>
        <time>2022-07-14T08:40:06Z</time>
      </trkpt>
      <trkpt lat="44.6795" lon="7.10236">
        <ele>2487</ele>
        <time>2022-07-14T08:40:10Z</time>
      </trkpt>
      <trkpt lat="44.67958" lon="7.10235">
        <ele>2486</ele>
        <time>2022-07-14T08:40:19Z</time>
      </trkpt>
      <trkpt lat="44.67962" lon="7.10235">
        <ele>2486</ele>
        <time>2022-07-14T08:40:25Z</time>
      </trkpt>
      <trkpt lat="44.67965" lon="7.10233">
        <ele>2486</ele>
        <time>2022-07-14T08:40:31Z</time>
      </trkpt>
      <trkpt lat="44.67969" lon="7.10232">
        <ele>2486</ele>
        <time>2022-07-14T08:40:36Z</time>
      </trkpt>
      <trkpt lat="44.6798" lon="7.1023">
        <ele>2485</ele>
        <time>2022-07-14T08:40:56Z</time>
      </trkpt>
      <trkpt lat="44.67987" lon="7.10243">
        <ele>2485</ele>
        <time>2022-07-14T08:41:16Z</time>
      </trkpt>
      <trkpt lat="44.67991" lon="7.10245">
        <ele>2485</ele>
        <time>2022-07-14T08:41:21Z</time>
      </trkpt>
      <trkpt lat="44.67993" lon="7.1024">
        <ele>2484</ele>
        <time>2022-07-14T08:41:31Z</time>
      </trkpt>
      <trkpt lat="44.67993" lon="7.10235">
        <ele>2482</ele>
        <time>2022-07-14T08:41:35Z</time>
      </trkpt>
      <trkpt lat="44.67986" lon="7.1021">
        <ele>2476</ele>
        <time>2022-07-14T08:42:05Z</time>
      </trkpt>
      <trkpt lat="44.67983" lon="7.10207">
        <ele>2474</ele>
        <time>2022-07-14T08:42:10Z</time>
      </trkpt>
      <trkpt lat="44.67985" lon="7.10204">
        <ele>2473</ele>
        <time>2022-07-14T08:42:20Z</time>
      </trkpt>
      <trkpt lat="44.67988" lon="7.10207">
        <ele>2473</ele>
        <time>2022-07-14T08:42:30Z</time>
      </trkpt>
      <trkpt lat="44.67991" lon="7.1021">
        <ele>2473</ele>
        <time>2022-07-14T08:42:35Z</time>
      </trkpt>
      <trkpt lat="44.68001" lon="7.10222">
        <ele>2473</ele>
        <time>2022-07-14T08:42:46Z</time>
      </trkpt>
      <trkpt lat="44.68003" lon="7.10226">
        <ele>2473</ele>
        <time>2022-07-14T08:42:50Z</time>
      </trkpt>
      <trkpt lat="44.68006" lon="7.10231">
        <ele>2473</ele>
        <time>2022-07-14T08:42:55Z</time>
      </trkpt>
      <trkpt lat="44.6801" lon="7.10233">
        <ele>2472</ele>
        <time>2022-07-14T08:43:00Z</time>
      </trkpt>
      <trkpt lat="44.68009" lon="7.10222">
        <ele>2471</ele>
        <time>2022-07-14T08:43:08Z</time>
      </trkpt>
      <trkpt lat="44.68009" lon="7.10216">
        <ele>2471</ele>
        <time>2022-07-14T08:43:13Z</time>
      </trkpt>
      <trkpt lat="44.68008" lon="7.10211">
        <ele>2470</ele>
        <time>2022-07-14T08:43:18Z</time>
      </trkpt>
      <trkpt lat="44.68008" lon="7.10206">
        <ele>2469</ele>
        <time>2022-07-14T08:43:23Z</time>
      </trkpt>
      <trkpt lat="44.68008" lon="7.10201">
        <ele>2467</ele>
        <time>2022-07-14T08:43:28Z</time>
      </trkpt>
      <trkpt lat="44.68012" lon="7.10203">
        <ele>2467</ele>
        <time>2022-07-14T08:43:33Z</time>
      </trkpt>
      <trkpt lat="44.68022" lon="7.1021">
        <ele>2464</ele>
        <time>2022-07-14T08:43:47Z</time>
      </trkpt>
      <trkpt lat="44.68025" lon="7.10212">
        <ele>2463</ele>
        <time>2022-07-14T08:43:52Z</time>
      </trkpt>
      <trkpt lat="44.68032" lon="7.10215">
        <ele>2463</ele>
        <time>2022-07-14T08:44:06Z</time>
      </trkpt>
      <trkpt lat="44.68035" lon="7.10212">
        <ele>2463</ele>
        <time>2022-07-14T08:44:14Z</time>
      </trkpt>
      <trkpt lat="44.68033" lon="7.10207">
        <ele>2462</ele>
        <time>2022-07-14T08:44:18Z</time>
      </trkpt>
      <trkpt lat="44.68036" lon="7.10204">
        <ele>2460</ele>
        <time>2022-07-14T08:44:24Z</time>
      </trkpt>
      <trkpt lat="44.68043" lon="7.10208">
        <ele>2458</ele>
        <time>2022-07-14T08:44:34Z</time>
      </trkpt>
      <trkpt lat="44.68046" lon="7.10209">
        <ele>2458</ele>
        <time>2022-07-14T08:44:41Z</time>
      </trkpt>
      <trkpt lat="44.68046" lon="7.10205">
        <ele>2457</ele>
        <time>2022-07-14T08:44:46Z</time>
      </trkpt>
      <trkpt lat="44.68049" lon="7.10204">
        <ele>2454</ele>
        <time>2022-07-14T08:44:55Z</time>
      </trkpt>
      <trkpt lat="44.68052" lon="7.10207">
        <ele>2454</ele>
        <time>2022-07-14T08:45:00Z</time>
      </trkpt>
      <trkpt lat="44.68055" lon="7.10204">
        <ele>2453</ele>
        <time>2022-07-14T08:45:09Z</time>
      </trkpt>
      <trkpt lat="44.68057" lon="7.10189">
        <ele>2451</ele>
        <time>2022-07-14T08:45:37Z</time>
      </trkpt>
      <trkpt lat="44.68056" lon="7.10183">
        <ele>2450</ele>
        <time>2022-07-14T08:45:41Z</time>
      </trkpt>
      <trkpt lat="44.68058" lon="7.10179">
        <ele>2450</ele>
        <time>2022-07-14T08:45:55Z</time>
      </trkpt>
      <trkpt lat="44.68059" lon="7.10174">
        <ele>2450</ele>
        <time>2022-07-14T08:46:00Z</time>
      </trkpt>
      <trkpt lat="44.68059" lon="7.10169">
        <ele>2450</ele>
        <time>2022-07-14T08:46:06Z</time>
      </trkpt>
      <trkpt lat="44.68056" lon="7.10165">
        <ele>2448</ele>
        <time>2022-07-14T08:46:12Z</time>
      </trkpt>
      <trkpt lat="44.68052" lon="7.10163">
        <ele>2446</ele>
        <time>2022-07-14T08:46:17Z</time>
      </trkpt>
      <trkpt lat="44.6805" lon="7.1016">
        <ele>2445</ele>
        <time>2022-07-14T08:46:22Z</time>
      </trkpt>
      <trkpt lat="44.68051" lon="7.10155">
        <ele>2444</ele>
        <time>2022-07-14T08:46:27Z</time>
      </trkpt>
      <trkpt lat="44.68052" lon="7.10151">
        <ele>2443</ele>
        <time>2022-07-14T08:46:31Z</time>
      </trkpt>
      <trkpt lat="44.68052" lon="7.10141">
        <ele>2441</ele>
        <time>2022-07-14T08:46:39Z</time>
      </trkpt>
      <trkpt lat="44.68056" lon="7.10138">
        <ele>2441</ele>
        <time>2022-07-14T08:46:44Z</time>
      </trkpt>
      <trkpt lat="44.68059" lon="7.10141">
        <ele>2441</ele>
        <time>2022-07-14T08:46:47Z</time>
      </trkpt>
      <trkpt lat="44.68062" lon="7.10145">
        <ele>2441</ele>
        <time>2022-07-14T08:46:51Z</time>
      </trkpt>
      <trkpt lat="44.68065" lon="7.10149">
        <ele>2441</ele>
        <time>2022-07-14T08:46:55Z</time>
      </trkpt>
      <trkpt lat="44.68065" lon="7.10143">
        <ele>2441</ele>
        <time>2022-07-14T08:47:00Z</time>
      </trkpt>
      <trkpt lat="44.68067" lon="7.10132">
        <ele>2441</ele>
        <time>2022-07-14T08:47:09Z</time>
      </trkpt>
      <trkpt lat="44.6807" lon="7.10134">
        <ele>2439</ele>
        <time>2022-07-14T08:47:18Z</time>
      </trkpt>
      <trkpt lat="44.68079" lon="7.10147">
        <ele>2436</ele>
        <time>2022-07-14T08:47:34Z</time>
      </trkpt>
      <trkpt lat="44.68082" lon="7.1015">
        <ele>2436</ele>
        <time>2022-07-14T08:47:39Z</time>
      </trkpt>
      <trkpt lat="44.68085" lon="7.10147">
        <ele>2436</ele>
        <time>2022-07-14T08:47:44Z</time>
      </trkpt>
      <trkpt lat="44.68083" lon="7.10143">
        <ele>2436</ele>
        <time>2022-07-14T08:47:47Z</time>
      </trkpt>
      <trkpt lat="44.68081" lon="7.10138">
        <ele>2435</ele>
        <time>2022-07-14T08:47:52Z</time>
      </trkpt>
      <trkpt lat="44.68082" lon="7.10132">
        <ele>2433</ele>
        <time>2022-07-14T08:48:14Z</time>
      </trkpt>
      <trkpt lat="44.68083" lon="7.10128">
        <ele>2433</ele>
        <time>2022-07-14T08:48:19Z</time>
      </trkpt>
      <trkpt lat="44.68084" lon="7.10122">
        <ele>2434</ele>
        <time>2022-07-14T08:48:25Z</time>
      </trkpt>
      <trkpt lat="44.68089" lon="7.10113">
        <ele>2435</ele>
        <time>2022-07-14T08:48:35Z</time>
      </trkpt>
      <trkpt lat="44.68092" lon="7.10109">
        <ele>2434</ele>
        <time>2022-07-14T08:48:47Z</time>
      </trkpt>
      <trkpt lat="44.68094" lon="7.10095">
        <ele>2434</ele>
        <time>2022-07-14T08:49:12Z</time>
      </trkpt>
      <trkpt lat="44.68096" lon="7.1009">
        <ele>2434</ele>
        <time>2022-07-14T08:49:25Z</time>
      </trkpt>
      <trkpt lat="44.68096" lon="7.10079">
        <ele>2432</ele>
        <time>2022-07-14T08:49:41Z</time>
      </trkpt>
      <trkpt lat="44.68094" lon="7.10074">
        <ele>2430</ele>
        <time>2022-07-14T08:49:44Z</time>
      </trkpt>
      <trkpt lat="44.68094" lon="7.10056">
        <ele>2430</ele>
        <time>2022-07-14T08:49:56Z</time>
      </trkpt>
      <trkpt lat="44.68091" lon="7.1004">
        <ele>2429</ele>
        <time>2022-07-14T08:50:06Z</time>
      </trkpt>
      <trkpt lat="44.68091" lon="7.10029">
        <ele>2428</ele>
        <time>2022-07-14T08:50:14Z</time>
      </trkpt>
      <trkpt lat="44.68091" lon="7.10023">
        <ele>2428</ele>
        <time>2022-07-14T08:50:18Z</time>
      </trkpt>
      <trkpt lat="44.68092" lon="7.10014">
        <ele>2426</ele>
        <time>2022-07-14T08:50:29Z</time>
      </trkpt>
      <trkpt lat="44.68092" lon="7.10008">
        <ele>2425</ele>
        <time>2022-07-14T08:50:34Z</time>
      </trkpt>
      <trkpt lat="44.68093" lon="7.09998">
        <ele>2424</ele>
        <time>2022-07-14T08:50:43Z</time>
      </trkpt>
      <trkpt lat="44.68093" lon="7.09982">
        <ele>2422</ele>
        <time>2022-07-14T08:51:11Z</time>
      </trkpt>
      <trkpt lat="44.68091" lon="7.09972">
        <ele>2421</ele>
        <time>2022-07-14T08:51:20Z</time>
      </trkpt>
      <trkpt lat="44.68089" lon="7.09967">
        <ele>2421</ele>
        <time>2022-07-14T08:51:25Z</time>
      </trkpt>
      <trkpt lat="44.68087" lon="7.09963">
        <ele>2420</ele>
        <time>2022-07-14T08:51:31Z</time>
      </trkpt>
      <trkpt lat="44.68076" lon="7.0994">
        <ele>2414</ele>
        <time>2022-07-14T08:51:55Z</time>
      </trkpt>
      <trkpt lat="44.68075" lon="7.09935">
        <ele>2413</ele>
        <time>2022-07-14T08:52:01Z</time>
      </trkpt>
      <trkpt lat="44.68071" lon="7.09926">
        <ele>2411</ele>
        <time>2022-07-14T08:52:11Z</time>
      </trkpt>
      <trkpt lat="44.68066" lon="7.09912">
        <ele>2408</ele>
        <time>2022-07-14T08:52:29Z</time>
      </trkpt>
      <trkpt lat="44.68071" lon="7.09914">
        <ele>2409</ele>
        <time>2022-07-14T08:53:03Z</time>
      </trkpt>
      <trkpt lat="44.68072" lon="7.09909">
        <ele>2409</ele>
        <time>2022-07-14T08:53:10Z</time>
      </trkpt>
      <trkpt lat="44.68076" lon="7.09911">
        <ele>2410</ele>
        <time>2022-07-14T08:53:14Z</time>
      </trkpt>
      <trkpt lat="44.68088" lon="7.09921">
        <ele>2406</ele>
        <time>2022-07-14T08:53:37Z</time>
      </trkpt>
      <trkpt lat="44.68092" lon="7.09923">
        <ele>2404</ele>
        <time>2022-07-14T08:53:45Z</time>
      </trkpt>
      <trkpt lat="44.68095" lon="7.09926">
        <ele>2404</ele>
        <time>2022-07-14T08:53:50Z</time>
      </trkpt>
      <trkpt lat="44.68099" lon="7.09925">
        <ele>2402</ele>
        <time>2022-07-14T08:54:07Z</time>
      </trkpt>
      <trkpt lat="44.68102" lon="7.09928">
        <ele>2402</ele>
        <time>2022-07-14T08:54:12Z</time>
      </trkpt>
      <trkpt lat="44.68106" lon="7.0993">
        <ele>2399</ele>
        <time>2022-07-14T08:54:19Z</time>
      </trkpt>
      <trkpt lat="44.6812" lon="7.09937">
        <ele>2397</ele>
        <time>2022-07-14T08:54:50Z</time>
      </trkpt>
      <trkpt lat="44.68123" lon="7.0994">
        <ele>2396</ele>
        <time>2022-07-14T08:54:56Z</time>
      </trkpt>
      <trkpt lat="44.68127" lon="7.09942">
        <ele>2396</ele>
        <time>2022-07-14T08:55:02Z</time>
      </trkpt>
      <trkpt lat="44.6813" lon="7.0994">
        <ele>2396</ele>
        <time>2022-07-14T08:55:14Z</time>
      </trkpt>
      <trkpt lat="44.68128" lon="7.09935">
        <ele>2395</ele>
        <time>2022-07-14T08:55:21Z</time>
      </trkpt>
      <trkpt lat="44.68132" lon="7.09934">
        <ele>2392</ele>
        <time>2022-07-14T08:55:27Z</time>
      </trkpt>
      <trkpt lat="44.68135" lon="7.09931">
        <ele>2391</ele>
        <time>2022-07-14T08:55:35Z</time>
      </trkpt>
      <trkpt lat="44.68138" lon="7.09928">
        <ele>2390</ele>
        <time>2022-07-14T08:55:42Z</time>
      </trkpt>
      <trkpt lat="44.68138" lon="7.09923">
        <ele>2389</ele>
        <time>2022-07-14T08:55:50Z</time>
      </trkpt>
      <trkpt lat="44.6814" lon="7.09919">
        <ele>2386</ele>
        <time>2022-07-14T08:55:58Z</time>
      </trkpt>
      <trkpt lat="44.68142" lon="7.09914">
        <ele>2385</ele>
        <time>2022-07-14T08:56:04Z</time>
      </trkpt>
      <trkpt lat="44.68144" lon="7.09909">
        <ele>2382</ele>
        <time>2022-07-14T08:56:11Z</time>
      </trkpt>
      <trkpt lat="44.68147" lon="7.09905">
        <ele>2381</ele>
        <time>2022-07-14T08:56:20Z</time>
      </trkpt>
      <trkpt lat="44.68151" lon="7.09902">
        <ele>2379</ele>
        <time>2022-07-14T08:56:28Z</time>
      </trkpt>
      <trkpt lat="44.68155" lon="7.09902">
        <ele>2379</ele>
        <time>2022-07-14T08:56:33Z</time>
      </trkpt>
      <trkpt lat="44.68159" lon="7.09901">
        <ele>2379</ele>
        <time>2022-07-14T08:56:39Z</time>
      </trkpt>
      <trkpt lat="44.68162" lon="7.099">
        <ele>2379</ele>
        <time>2022-07-14T08:56:45Z</time>
      </trkpt>
      <trkpt lat="44.68165" lon="7.09897">
        <ele>2378</ele>
        <time>2022-07-14T08:56:51Z</time>
      </trkpt>
      <trkpt lat="44.68168" lon="7.09892">
        <ele>2378</ele>
        <time>2022-07-14T08:57:02Z</time>
      </trkpt>
      <trkpt lat="44.68175" lon="7.09889">
        <ele>2378</ele>
        <time>2022-07-14T08:57:23Z</time>
      </trkpt>
      <trkpt lat="44.6818" lon="7.09882">
        <ele>2376</ele>
        <time>2022-07-14T08:57:36Z</time>
      </trkpt>
      <trkpt lat="44.68182" lon="7.09878">
        <ele>2375</ele>
        <time>2022-07-14T08:57:42Z</time>
      </trkpt>
      <trkpt lat="44.68185" lon="7.09876">
        <ele>2373</ele>
        <time>2022-07-14T08:57:47Z</time>
      </trkpt>
      <trkpt lat="44.68192" lon="7.09862">
        <ele>2370</ele>
        <time>2022-07-14T08:58:06Z</time>
      </trkpt>
      <trkpt lat="44.68194" lon="7.09859">
        <ele>2369</ele>
        <time>2022-07-14T08:58:10Z</time>
      </trkpt>
      <trkpt lat="44.68196" lon="7.09854">
        <ele>2367</ele>
        <time>2022-07-14T09:00:07Z</time>
      </trkpt>
      <trkpt lat="44.68199" lon="7.09851">
        <ele>2366</ele>
        <time>2022-07-14T09:00:13Z</time>
      </trkpt>
      <trkpt lat="44.68202" lon="7.09849">
        <ele>2364</ele>
        <time>2022-07-14T09:00:21Z</time>
      </trkpt>
      <trkpt lat="44.68203" lon="7.09843">
        <ele>2363</ele>
        <time>2022-07-14T09:00:27Z</time>
      </trkpt>
      <trkpt lat="44.68202" lon="7.09839">
        <ele>2362</ele>
        <time>2022-07-14T09:00:36Z</time>
      </trkpt>
      <trkpt lat="44.68205" lon="7.09837">
        <ele>2360</ele>
        <time>2022-07-14T09:00:47Z</time>
      </trkpt>
      <trkpt lat="44.68207" lon="7.09833">
        <ele>2356</ele>
        <time>2022-07-14T09:01:00Z</time>
      </trkpt>
      <trkpt lat="44.68208" lon="7.09828">
        <ele>2354</ele>
        <time>2022-07-14T09:01:10Z</time>
      </trkpt>
      <trkpt lat="44.68207" lon="7.09823">
        <ele>2352</ele>
        <time>2022-07-14T09:01:20Z</time>
      </trkpt>
      <trkpt lat="44.68211" lon="7.09822">
        <ele>2350</ele>
        <time>2022-07-14T09:01:27Z</time>
      </trkpt>
      <trkpt lat="44.68213" lon="7.09818">
        <ele>2348</ele>
        <time>2022-07-14T09:01:34Z</time>
      </trkpt>
      <trkpt lat="44.68213" lon="7.09813">
        <ele>2346</ele>
        <time>2022-07-14T09:01:51Z</time>
      </trkpt>
      <trkpt lat="44.68217" lon="7.09814">
        <ele>2346</ele>
        <time>2022-07-14T09:02:00Z</time>
      </trkpt>
      <trkpt lat="44.6822" lon="7.09811">
        <ele>2344</ele>
        <time>2022-07-14T09:02:07Z</time>
      </trkpt>
      <trkpt lat="44.68227" lon="7.09814">
        <ele>2343</ele>
        <time>2022-07-14T09:02:19Z</time>
      </trkpt>
      <trkpt lat="44.6823" lon="7.09817">
        <ele>2343</ele>
        <time>2022-07-14T09:02:23Z</time>
      </trkpt>
      <trkpt lat="44.68237" lon="7.09837">
        <ele>2343</ele>
        <time>2022-07-14T09:02:43Z</time>
      </trkpt>
      <trkpt lat="44.68238" lon="7.09848">
        <ele>2341</ele>
        <time>2022-07-14T09:02:53Z</time>
      </trkpt>
      <trkpt lat="44.68237" lon="7.09859">
        <ele>2338</ele>
        <time>2022-07-14T09:03:04Z</time>
      </trkpt>
      <trkpt lat="44.68236" lon="7.09863">
        <ele>2337</ele>
        <time>2022-07-14T09:03:10Z</time>
      </trkpt>
      <trkpt lat="44.68235" lon="7.09874">
        <ele>2333</ele>
        <time>2022-07-14T09:03:23Z</time>
      </trkpt>
      <trkpt lat="44.68235" lon="7.09885">
        <ele>2331</ele>
        <time>2022-07-14T09:03:35Z</time>
      </trkpt>
      <trkpt lat="44.68235" lon="7.0989">
        <ele>2329</ele>
        <time>2022-07-14T09:03:40Z</time>
      </trkpt>
      <trkpt lat="44.68234" lon="7.09895">
        <ele>2328</ele>
        <time>2022-07-14T09:03:45Z</time>
      </trkpt>
      <trkpt lat="44.68232" lon="7.099">
        <ele>2327</ele>
        <time>2022-07-14T09:03:50Z</time>
      </trkpt>
      <trkpt lat="44.6823" lon="7.09905">
        <ele>2327</ele>
        <time>2022-07-14T09:03:55Z</time>
      </trkpt>
      <trkpt lat="44.6823" lon="7.09911">
        <ele>2326</ele>
        <time>2022-07-14T09:04:02Z</time>
      </trkpt>
      <trkpt lat="44.68233" lon="7.09912">
        <ele>2326</ele>
        <time>2022-07-14T09:04:29Z</time>
      </trkpt>
      <trkpt lat="44.68236" lon="7.09909">
        <ele>2325</ele>
        <time>2022-07-14T09:04:36Z</time>
      </trkpt>
      <trkpt lat="44.68239" lon="7.09905">
        <ele>2323</ele>
        <time>2022-07-14T09:04:44Z</time>
      </trkpt>
      <trkpt lat="44.68242" lon="7.09901">
        <ele>2321</ele>
        <time>2022-07-14T09:04:50Z</time>
      </trkpt>
      <trkpt lat="44.68245" lon="7.09898">
        <ele>2321</ele>
        <time>2022-07-14T09:04:56Z</time>
      </trkpt>
      <trkpt lat="44.68248" lon="7.09901">
        <ele>2320</ele>
        <time>2022-07-14T09:05:03Z</time>
      </trkpt>
      <trkpt lat="44.68248" lon="7.09907">
        <ele>2318</ele>
        <time>2022-07-14T09:05:08Z</time>
      </trkpt>
      <trkpt lat="44.68252" lon="7.09905">
        <ele>2316</ele>
        <time>2022-07-14T09:05:20Z</time>
      </trkpt>
      <trkpt lat="44.68255" lon="7.09903">
        <ele>2314</ele>
        <time>2022-07-14T09:05:31Z</time>
      </trkpt>
      <trkpt lat="44.68258" lon="7.09899">
        <ele>2312</ele>
        <time>2022-07-14T09:05:40Z</time>
      </trkpt>
      <trkpt lat="44.68262" lon="7.09896">
        <ele>2309</ele>
        <time>2022-07-14T09:05:48Z</time>
      </trkpt>
      <trkpt lat="44.68265" lon="7.09892">
        <ele>2308</ele>
        <time>2022-07-14T09:05:55Z</time>
      </trkpt>
      <trkpt lat="44.68268" lon="7.09889">
        <ele>2306</ele>
        <time>2022-07-14T09:06:01Z</time>
      </trkpt>
      <trkpt lat="44.68271" lon="7.09886">
        <ele>2306</ele>
        <time>2022-07-14T09:06:09Z</time>
      </trkpt>
      <trkpt lat="44.68276" lon="7.09879">
        <ele>2304</ele>
        <time>2022-07-14T09:06:20Z</time>
      </trkpt>
      <trkpt lat="44.6828" lon="7.09878">
        <ele>2303</ele>
        <time>2022-07-14T09:06:26Z</time>
      </trkpt>
      <trkpt lat="44.68283" lon="7.09879">
        <ele>2303</ele>
        <time>2022-07-14T09:06:32Z</time>
      </trkpt>
      <trkpt lat="44.68286" lon="7.09883">
        <ele>2302</ele>
        <time>2022-07-14T09:06:38Z</time>
      </trkpt>
      <trkpt lat="44.68289" lon="7.09883">
        <ele>2302</ele>
        <time>2022-07-14T09:06:44Z</time>
      </trkpt>
      <trkpt lat="44.68293" lon="7.09882">
        <ele>2300</ele>
        <time>2022-07-14T09:06:50Z</time>
      </trkpt>
      <trkpt lat="44.68297" lon="7.09882">
        <ele>2300</ele>
        <time>2022-07-14T09:06:59Z</time>
      </trkpt>
      <trkpt lat="44.683" lon="7.09882">
        <ele>2298</ele>
        <time>2022-07-14T09:07:04Z</time>
      </trkpt>
      <trkpt lat="44.68302" lon="7.09887">
        <ele>2297</ele>
        <time>2022-07-14T09:07:10Z</time>
      </trkpt>
      <trkpt lat="44.68305" lon="7.09884">
        <ele>2297</ele>
        <time>2022-07-14T09:07:16Z</time>
      </trkpt>
      <trkpt lat="44.68308" lon="7.09887">
        <ele>2295</ele>
        <time>2022-07-14T09:07:23Z</time>
      </trkpt>
      <trkpt lat="44.68312" lon="7.09888">
        <ele>2292</ele>
        <time>2022-07-14T09:07:41Z</time>
      </trkpt>
      <trkpt lat="44.68315" lon="7.09885">
        <ele>2290</ele>
        <time>2022-07-14T09:07:50Z</time>
      </trkpt>
      <trkpt lat="44.68319" lon="7.09883">
        <ele>2288</ele>
        <time>2022-07-14T09:07:56Z</time>
      </trkpt>
      <trkpt lat="44.68322" lon="7.0988">
        <ele>2287</ele>
        <time>2022-07-14T09:08:04Z</time>
      </trkpt>
      <trkpt lat="44.68326" lon="7.09881">
        <ele>2285</ele>
        <time>2022-07-14T09:08:11Z</time>
      </trkpt>
      <trkpt lat="44.6833" lon="7.09882">
        <ele>2284</ele>
        <time>2022-07-14T09:08:18Z</time>
      </trkpt>
      <trkpt lat="44.68334" lon="7.09882">
        <ele>2282</ele>
        <time>2022-07-14T09:08:24Z</time>
      </trkpt>
      <trkpt lat="44.68336" lon="7.09885">
        <ele>2281</ele>
        <time>2022-07-14T09:08:33Z</time>
      </trkpt>
      <trkpt lat="44.68337" lon="7.0989">
        <ele>2279</ele>
        <time>2022-07-14T09:08:38Z</time>
      </trkpt>
      <trkpt lat="44.6834" lon="7.09891">
        <ele>2279</ele>
        <time>2022-07-14T09:08:45Z</time>
      </trkpt>
      <trkpt lat="44.68343" lon="7.09888">
        <ele>2278</ele>
        <time>2022-07-14T09:08:52Z</time>
      </trkpt>
      <trkpt lat="44.6835" lon="7.09889">
        <ele>2277</ele>
        <time>2022-07-14T09:09:06Z</time>
      </trkpt>
      <trkpt lat="44.68352" lon="7.09879">
        <ele>2274</ele>
        <time>2022-07-14T09:09:20Z</time>
      </trkpt>
      <trkpt lat="44.68354" lon="7.09874">
        <ele>2273</ele>
        <time>2022-07-14T09:09:27Z</time>
      </trkpt>
      <trkpt lat="44.68357" lon="7.09871">
        <ele>2273</ele>
        <time>2022-07-14T09:09:34Z</time>
      </trkpt>
      <trkpt lat="44.68359" lon="7.09868">
        <ele>2274</ele>
        <time>2022-07-14T09:09:40Z</time>
      </trkpt>
      <trkpt lat="44.68371" lon="7.09862">
        <ele>2274</ele>
        <time>2022-07-14T09:09:53Z</time>
      </trkpt>
      <trkpt lat="44.68374" lon="7.09859">
        <ele>2274</ele>
        <time>2022-07-14T09:09:58Z</time>
      </trkpt>
      <trkpt lat="44.68377" lon="7.09857">
        <ele>2274</ele>
        <time>2022-07-14T09:10:03Z</time>
      </trkpt>
      <trkpt lat="44.68381" lon="7.09854">
        <ele>2274</ele>
        <time>2022-07-14T09:10:07Z</time>
      </trkpt>
      <trkpt lat="44.68382" lon="7.0985">
        <ele>2275</ele>
        <time>2022-07-14T09:10:13Z</time>
      </trkpt>
      <trkpt lat="44.68386" lon="7.09847">
        <ele>2275</ele>
        <time>2022-07-14T09:10:19Z</time>
      </trkpt>
      <trkpt lat="44.68401" lon="7.09847">
        <ele>2274</ele>
        <time>2022-07-14T09:10:37Z</time>
      </trkpt>
      <trkpt lat="44.68404" lon="7.09844">
        <ele>2276</ele>
        <time>2022-07-14T09:10:43Z</time>
      </trkpt>
      <trkpt lat="44.68407" lon="7.09842">
        <ele>2275</ele>
        <time>2022-07-14T09:10:53Z</time>
      </trkpt>
      <trkpt lat="44.68411" lon="7.09843">
        <ele>2277</ele>
        <time>2022-07-14T09:11:07Z</time>
      </trkpt>
      <trkpt lat="44.68414" lon="7.0984">
        <ele>2277</ele>
        <time>2022-07-14T09:11:14Z</time>
      </trkpt>
      <trkpt lat="44.68418" lon="7.09842">
        <ele>2278</ele>
        <time>2022-07-14T09:11:20Z</time>
      </trkpt>
      <trkpt lat="44.6842" lon="7.09845">
        <ele>2278</ele>
        <time>2022-07-14T09:11:25Z</time>
      </trkpt>
      <trkpt lat="44.68424" lon="7.09847">
        <ele>2278</ele>
        <time>2022-07-14T09:11:32Z</time>
      </trkpt>
      <trkpt lat="44.68432" lon="7.09847">
        <ele>2278</ele>
        <time>2022-07-14T09:11:42Z</time>
      </trkpt>
      <trkpt lat="44.68436" lon="7.09847">
        <ele>2278</ele>
        <time>2022-07-14T09:11:48Z</time>
      </trkpt>
      <trkpt lat="44.6844" lon="7.09849">
        <ele>2279</ele>
        <time>2022-07-14T09:11:52Z</time>
      </trkpt>
      <trkpt lat="44.68447" lon="7.09852">
        <ele>2279</ele>
        <time>2022-07-14T09:12:01Z</time>
      </trkpt>
      <trkpt lat="44.68453" lon="7.09859">
        <ele>2279</ele>
        <time>2022-07-14T09:12:11Z</time>
      </trkpt>
      <trkpt lat="44.68465" lon="7.09865">
        <ele>2281</ele>
        <time>2022-07-14T09:12:28Z</time>
      </trkpt>
      <trkpt lat="44.68469" lon="7.09864">
        <ele>2281</ele>
        <time>2022-07-14T09:12:34Z</time>
      </trkpt>
      <trkpt lat="44.68472" lon="7.09866">
        <ele>2282</ele>
        <time>2022-07-14T09:12:40Z</time>
      </trkpt>
      <trkpt lat="44.68474" lon="7.0987">
        <ele>2282</ele>
        <time>2022-07-14T09:12:44Z</time>
      </trkpt>
      <trkpt lat="44.68481" lon="7.09871">
        <ele>2281</ele>
        <time>2022-07-14T09:12:54Z</time>
      </trkpt>
      <trkpt lat="44.68485" lon="7.09871">
        <ele>2281</ele>
        <time>2022-07-14T09:12:59Z</time>
      </trkpt>
      <trkpt lat="44.68488" lon="7.09868">
        <ele>2280</ele>
        <time>2022-07-14T09:13:04Z</time>
      </trkpt>
      <trkpt lat="44.68492" lon="7.09867">
        <ele>2280</ele>
        <time>2022-07-14T09:13:10Z</time>
      </trkpt>
      <trkpt lat="44.68494" lon="7.09864">
        <ele>2279</ele>
        <time>2022-07-14T09:13:20Z</time>
      </trkpt>
      <trkpt lat="44.68496" lon="7.09859">
        <ele>2278</ele>
        <time>2022-07-14T09:13:26Z</time>
      </trkpt>
      <trkpt lat="44.68496" lon="7.09854">
        <ele>2276</ele>
        <time>2022-07-14T09:13:32Z</time>
      </trkpt>
      <trkpt lat="44.68495" lon="7.09849">
        <ele>2275</ele>
        <time>2022-07-14T09:13:37Z</time>
      </trkpt>
      <trkpt lat="44.68495" lon="7.09844">
        <ele>2274</ele>
        <time>2022-07-14T09:13:42Z</time>
      </trkpt>
      <trkpt lat="44.68497" lon="7.0984">
        <ele>2273</ele>
        <time>2022-07-14T09:13:47Z</time>
      </trkpt>
      <trkpt lat="44.68498" lon="7.09825">
        <ele>2270</ele>
        <time>2022-07-14T09:14:04Z</time>
      </trkpt>
      <trkpt lat="44.68501" lon="7.09823">
        <ele>2270</ele>
        <time>2022-07-14T09:14:18Z</time>
      </trkpt>
      <trkpt lat="44.68505" lon="7.09825">
        <ele>2270</ele>
        <time>2022-07-14T09:25:53Z</time>
      </trkpt>
      <trkpt lat="44.68508" lon="7.09829">
        <ele>2270</ele>
        <time>2022-07-14T09:25:57Z</time>
      </trkpt>
      <trkpt lat="44.68507" lon="7.09834">
        <ele>2270</ele>
        <time>2022-07-14T09:26:00Z</time>
      </trkpt>
      <trkpt lat="44.68503" lon="7.09843">
        <ele>2271</ele>
        <time>2022-07-14T09:26:08Z</time>
      </trkpt>
      <trkpt lat="44.68503" lon="7.09848">
        <ele>2272</ele>
        <time>2022-07-14T09:26:12Z</time>
      </trkpt>
      <trkpt lat="44.68504" lon="7.09853">
        <ele>2272</ele>
        <time>2022-07-14T09:26:16Z</time>
      </trkpt>
      <trkpt lat="44.68505" lon="7.09859">
        <ele>2274</ele>
        <time>2022-07-14T09:26:21Z</time>
      </trkpt>
      <trkpt lat="44.68507" lon="7.09863">
        <ele>2275</ele>
        <time>2022-07-14T09:26:26Z</time>
      </trkpt>
      <trkpt lat="44.68511" lon="7.09862">
        <ele>2275</ele>
        <time>2022-07-14T09:26:30Z</time>
      </trkpt>
      <trkpt lat="44.68515" lon="7.09862">
        <ele>2275</ele>
        <time>2022-07-14T09:26:34Z</time>
      </trkpt>
      <trkpt lat="44.68522" lon="7.09861">
        <ele>2275</ele>
        <time>2022-07-14T09:26:42Z</time>
      </trkpt>
      <trkpt lat="44.68526" lon="7.09862">
        <ele>2276</ele>
        <time>2022-07-14T09:26:46Z</time>
      </trkpt>
      <trkpt lat="44.68531" lon="7.0986">
        <ele>2276</ele>
        <time>2022-07-14T09:26:50Z</time>
      </trkpt>
      <trkpt lat="44.68535" lon="7.09861">
        <ele>2277</ele>
        <time>2022-07-14T09:26:54Z</time>
      </trkpt>
      <trkpt lat="44.68539" lon="7.09862">
        <ele>2276</ele>
        <time>2022-07-14T09:26:59Z</time>
      </trkpt>
      <trkpt lat="44.68545" lon="7.09856">
        <ele>2278</ele>
        <time>2022-07-14T09:27:03Z</time>
      </trkpt>
      <trkpt lat="44.68548" lon="7.09857">
        <ele>2279</ele>
        <time>2022-07-14T09:27:05Z</time>
      </trkpt>
      <trkpt lat="44.68551" lon="7.0986">
        <ele>2280</ele>
        <time>2022-07-14T09:27:08Z</time>
      </trkpt>
      <trkpt lat="44.68555" lon="7.09862">
        <ele>2280</ele>
        <time>2022-07-14T09:27:16Z</time>
      </trkpt>
      <trkpt lat="44.68559" lon="7.0986">
        <ele>2278</ele>
        <time>2022-07-14T09:27:19Z</time>
      </trkpt>
      <trkpt lat="44.68558" lon="7.09855">
        <ele>2276</ele>
        <time>2022-07-14T09:27:22Z</time>
      </trkpt>
      <trkpt lat="44.6856" lon="7.09851">
        <ele>2274</ele>
        <time>2022-07-14T09:27:31Z</time>
      </trkpt>
      <trkpt lat="44.68562" lon="7.09847">
        <ele>2271</ele>
        <time>2022-07-14T09:27:37Z</time>
      </trkpt>
      <trkpt lat="44.68566" lon="7.09847">
        <ele>2271</ele>
        <time>2022-07-14T09:27:43Z</time>
      </trkpt>
      <trkpt lat="44.68569" lon="7.09845">
        <ele>2271</ele>
        <time>2022-07-14T09:27:52Z</time>
      </trkpt>
      <trkpt lat="44.68572" lon="7.09848">
        <ele>2271</ele>
        <time>2022-07-14T09:27:57Z</time>
      </trkpt>
      <trkpt lat="44.68582" lon="7.09857">
        <ele>2271</ele>
        <time>2022-07-14T09:28:13Z</time>
      </trkpt>
      <trkpt lat="44.68584" lon="7.09862">
        <ele>2272</ele>
        <time>2022-07-14T09:28:22Z</time>
      </trkpt>
      <trkpt lat="44.68592" lon="7.0987">
        <ele>2279</ele>
        <time>2022-07-14T09:28:46Z</time>
      </trkpt>
      <trkpt lat="44.68595" lon="7.09873">
        <ele>2280</ele>
        <time>2022-07-14T09:28:53Z</time>
      </trkpt>
      <trkpt lat="44.68599" lon="7.09873">
        <ele>2281</ele>
        <time>2022-07-14T09:29:00Z</time>
      </trkpt>
      <trkpt lat="44.68602" lon="7.09869">
        <ele>2282</ele>
        <time>2022-07-14T09:29:10Z</time>
      </trkpt>
      <trkpt lat="44.68605" lon="7.0987">
        <ele>2283</ele>
        <time>2022-07-14T09:29:16Z</time>
      </trkpt>
      <trkpt lat="44.68611" lon="7.09876">
        <ele>2282</ele>
        <time>2022-07-14T09:29:28Z</time>
      </trkpt>
      <trkpt lat="44.68614" lon="7.09878">
        <ele>2282</ele>
        <time>2022-07-14T09:29:35Z</time>
      </trkpt>
      <trkpt lat="44.68617" lon="7.09883">
        <ele>2283</ele>
        <time>2022-07-14T09:29:43Z</time>
      </trkpt>
      <trkpt lat="44.68619" lon="7.09886">
        <ele>2285</ele>
        <time>2022-07-14T09:29:52Z</time>
      </trkpt>
      <trkpt lat="44.68622" lon="7.09886">
        <ele>2287</ele>
        <time>2022-07-14T09:29:58Z</time>
      </trkpt>
      <trkpt lat="44.68625" lon="7.09882">
        <ele>2288</ele>
        <time>2022-07-14T09:30:06Z</time>
      </trkpt>
      <trkpt lat="44.68628" lon="7.09881">
        <ele>2290</ele>
        <time>2022-07-14T09:30:12Z</time>
      </trkpt>
      <trkpt lat="44.6863" lon="7.09877">
        <ele>2290</ele>
        <time>2022-07-14T09:30:20Z</time>
      </trkpt>
      <trkpt lat="44.68634" lon="7.09876">
        <ele>2292</ele>
        <time>2022-07-14T09:30:28Z</time>
      </trkpt>
      <trkpt lat="44.68637" lon="7.09873">
        <ele>2292</ele>
        <time>2022-07-14T09:30:40Z</time>
      </trkpt>
      <trkpt lat="44.6864" lon="7.09873">
        <ele>2292</ele>
        <time>2022-07-14T09:30:47Z</time>
      </trkpt>
      <trkpt lat="44.68644" lon="7.09872">
        <ele>2293</ele>
        <time>2022-07-14T09:30:54Z</time>
      </trkpt>
      <trkpt lat="44.68647" lon="7.09868">
        <ele>2294</ele>
        <time>2022-07-14T09:31:00Z</time>
      </trkpt>
      <trkpt lat="44.68645" lon="7.09865">
        <ele>2294</ele>
        <time>2022-07-14T09:31:08Z</time>
      </trkpt>
      <trkpt lat="44.68642" lon="7.09862">
        <ele>2296</ele>
        <time>2022-07-14T09:31:16Z</time>
      </trkpt>
      <trkpt lat="44.68645" lon="7.09858">
        <ele>2297</ele>
        <time>2022-07-14T09:31:23Z</time>
      </trkpt>
      <trkpt lat="44.68644" lon="7.09853">
        <ele>2299</ele>
        <time>2022-07-14T09:31:34Z</time>
      </trkpt>
      <trkpt lat="44.68646" lon="7.09849">
        <ele>2301</ele>
        <time>2022-07-14T09:31:44Z</time>
      </trkpt>
      <trkpt lat="44.68649" lon="7.09846">
        <ele>2303</ele>
        <time>2022-07-14T09:31:50Z</time>
      </trkpt>
      <trkpt lat="44.68652" lon="7.09841">
        <ele>2304</ele>
        <time>2022-07-14T09:31:58Z</time>
      </trkpt>
      <trkpt lat="44.68659" lon="7.0984">
        <ele>2308</ele>
        <time>2022-07-14T09:32:24Z</time>
      </trkpt>
      <trkpt lat="44.68662" lon="7.09839">
        <ele>2311</ele>
        <time>2022-07-14T09:32:36Z</time>
      </trkpt>
      <trkpt lat="44.68666" lon="7.09838">
        <ele>2313</ele>
        <time>2022-07-14T09:32:44Z</time>
      </trkpt>
      <trkpt lat="44.68669" lon="7.09837">
        <ele>2314</ele>
        <time>2022-07-14T09:32:51Z</time>
      </trkpt>
      <trkpt lat="44.6867" lon="7.09831">
        <ele>2315</ele>
        <time>2022-07-14T09:32:57Z</time>
      </trkpt>
      <trkpt lat="44.68677" lon="7.09819">
        <ele>2315</ele>
        <time>2022-07-14T09:33:13Z</time>
      </trkpt>
      <trkpt lat="44.6868" lon="7.09816">
        <ele>2315</ele>
        <time>2022-07-14T09:33:19Z</time>
      </trkpt>
      <trkpt lat="44.68681" lon="7.09811">
        <ele>2315</ele>
        <time>2022-07-14T09:33:25Z</time>
      </trkpt>
      <trkpt lat="44.68683" lon="7.098">
        <ele>2317</ele>
        <time>2022-07-14T09:33:37Z</time>
      </trkpt>
      <trkpt lat="44.68685" lon="7.09796">
        <ele>2317</ele>
        <time>2022-07-14T09:33:43Z</time>
      </trkpt>
      <trkpt lat="44.68685" lon="7.09791">
        <ele>2319</ele>
        <time>2022-07-14T09:33:50Z</time>
      </trkpt>
      <trkpt lat="44.68688" lon="7.09787">
        <ele>2319</ele>
        <time>2022-07-14T09:33:56Z</time>
      </trkpt>
      <trkpt lat="44.68689" lon="7.09777">
        <ele>2320</ele>
        <time>2022-07-14T09:34:05Z</time>
      </trkpt>
      <trkpt lat="44.6869" lon="7.09771">
        <ele>2320</ele>
        <time>2022-07-14T09:34:10Z</time>
      </trkpt>
      <trkpt lat="44.68692" lon="7.09756">
        <ele>2320</ele>
        <time>2022-07-14T09:34:24Z</time>
      </trkpt>
      <trkpt lat="44.68696" lon="7.09748">
        <ele>2319</ele>
        <time>2022-07-14T09:34:41Z</time>
      </trkpt>
      <trkpt lat="44.68692" lon="7.0975">
        <ele>2317</ele>
        <time>2022-07-14T09:35:14Z</time>
      </trkpt>
      <trkpt lat="44.6869" lon="7.09747">
        <ele>2317</ele>
        <time>2022-07-14T09:35:26Z</time>
      </trkpt>
      <trkpt lat="44.68688" lon="7.09743">
        <ele>2316</ele>
        <time>2022-07-14T09:35:32Z</time>
      </trkpt>
      <trkpt lat="44.68683" lon="7.09735">
        <ele>2316</ele>
        <time>2022-07-14T09:35:51Z</time>
      </trkpt>
      <trkpt lat="44.68682" lon="7.09731">
        <ele>2316</ele>
        <time>2022-07-14T09:36:26Z</time>
      </trkpt>
      <trkpt lat="44.68681" lon="7.09726">
        <ele>2316</ele>
        <time>2022-07-14T09:36:31Z</time>
      </trkpt>
      <trkpt lat="44.6868" lon="7.09721">
        <ele>2317</ele>
        <time>2022-07-14T09:36:36Z</time>
      </trkpt>
      <trkpt lat="44.68677" lon="7.09717">
        <ele>2317</ele>
        <time>2022-07-14T09:36:42Z</time>
      </trkpt>
      <trkpt lat="44.68674" lon="7.09714">
        <ele>2317</ele>
        <time>2022-07-14T09:36:48Z</time>
      </trkpt>
      <trkpt lat="44.68671" lon="7.09711">
        <ele>2317</ele>
        <time>2022-07-14T09:36:53Z</time>
      </trkpt>
      <trkpt lat="44.68675" lon="7.09707">
        <ele>2318</ele>
        <time>2022-07-14T09:36:59Z</time>
      </trkpt>
      <trkpt lat="44.68673" lon="7.09703">
        <ele>2321</ele>
        <time>2022-07-14T09:37:10Z</time>
      </trkpt>
      <trkpt lat="44.68666" lon="7.09702">
        <ele>2321</ele>
        <time>2022-07-14T09:37:24Z</time>
      </trkpt>
      <trkpt lat="44.68665" lon="7.09698">
        <ele>2322</ele>
        <time>2022-07-14T09:37:32Z</time>
      </trkpt>
      <trkpt lat="44.68662" lon="7.09688">
        <ele>2324</ele>
        <time>2022-07-14T09:37:44Z</time>
      </trkpt>
      <trkpt lat="44.6866" lon="7.09678">
        <ele>2325</ele>
        <time>2022-07-14T09:37:54Z</time>
      </trkpt>
      <trkpt lat="44.68656" lon="7.09657">
        <ele>2326</ele>
        <time>2022-07-14T09:38:15Z</time>
      </trkpt>
      <trkpt lat="44.68658" lon="7.09653">
        <ele>2326</ele>
        <time>2022-07-14T09:38:20Z</time>
      </trkpt>
      <trkpt lat="44.68657" lon="7.09647">
        <ele>2327</ele>
        <time>2022-07-14T09:38:25Z</time>
      </trkpt>
      <trkpt lat="44.68659" lon="7.09642">
        <ele>2328</ele>
        <time>2022-07-14T09:38:31Z</time>
      </trkpt>
      <trkpt lat="44.6866" lon="7.09627">
        <ele>2331</ele>
        <time>2022-07-14T09:38:50Z</time>
      </trkpt>
      <trkpt lat="44.6866" lon="7.09622">
        <ele>2332</ele>
        <time>2022-07-14T09:38:57Z</time>
      </trkpt>
      <trkpt lat="44.6866" lon="7.09617">
        <ele>2333</ele>
        <time>2022-07-14T09:39:03Z</time>
      </trkpt>
      <trkpt lat="44.68659" lon="7.09612">
        <ele>2334</ele>
        <time>2022-07-14T09:39:09Z</time>
      </trkpt>
      <trkpt lat="44.68663" lon="7.09609">
        <ele>2334</ele>
        <time>2022-07-14T09:39:16Z</time>
      </trkpt>
      <trkpt lat="44.68666" lon="7.09607">
        <ele>2336</ele>
        <time>2022-07-14T09:39:23Z</time>
      </trkpt>
      <trkpt lat="44.6867" lon="7.09609">
        <ele>2337</ele>
        <time>2022-07-14T09:39:29Z</time>
      </trkpt>
      <trkpt lat="44.68674" lon="7.0961">
        <ele>2339</ele>
        <time>2022-07-14T09:39:35Z</time>
      </trkpt>
      <trkpt lat="44.68673" lon="7.09605">
        <ele>2338</ele>
        <time>2022-07-14T09:39:42Z</time>
      </trkpt>
      <trkpt lat="44.6867" lon="7.09601">
        <ele>2338</ele>
        <time>2022-07-14T09:39:47Z</time>
      </trkpt>
      <trkpt lat="44.68668" lon="7.09598">
        <ele>2339</ele>
        <time>2022-07-14T09:39:52Z</time>
      </trkpt>
      <trkpt lat="44.68664" lon="7.09588">
        <ele>2342</ele>
        <time>2022-07-14T09:40:04Z</time>
      </trkpt>
      <trkpt lat="44.68665" lon="7.09583">
        <ele>2342</ele>
        <time>2022-07-14T09:40:10Z</time>
      </trkpt>
      <trkpt lat="44.68668" lon="7.09583">
        <ele>2343</ele>
        <time>2022-07-14T09:40:19Z</time>
      </trkpt>
      <trkpt lat="44.68671" lon="7.09587">
        <ele>2344</ele>
        <time>2022-07-14T09:40:25Z</time>
      </trkpt>
      <trkpt lat="44.68675" lon="7.09589">
        <ele>2345</ele>
        <time>2022-07-14T09:40:30Z</time>
      </trkpt>
      <trkpt lat="44.68678" lon="7.09592">
        <ele>2346</ele>
        <time>2022-07-14T09:40:39Z</time>
      </trkpt>
      <trkpt lat="44.68681" lon="7.09595">
        <ele>2347</ele>
        <time>2022-07-14T09:40:46Z</time>
      </trkpt>
      <trkpt lat="44.68683" lon="7.09591">
        <ele>2347</ele>
        <time>2022-07-14T09:41:01Z</time>
      </trkpt>
      <trkpt lat="44.68682" lon="7.09586">
        <ele>2348</ele>
        <time>2022-07-14T09:41:07Z</time>
      </trkpt>
      <trkpt lat="44.68682" lon="7.09581">
        <ele>2351</ele>
        <time>2022-07-14T09:41:13Z</time>
      </trkpt>
      <trkpt lat="44.68682" lon="7.09576">
        <ele>2351</ele>
        <time>2022-07-14T09:41:19Z</time>
      </trkpt>
      <trkpt lat="44.68685" lon="7.09567">
        <ele>2351</ele>
        <time>2022-07-14T09:41:31Z</time>
      </trkpt>
      <trkpt lat="44.68688" lon="7.09564">
        <ele>2352</ele>
        <time>2022-07-14T09:41:36Z</time>
      </trkpt>
      <trkpt lat="44.68701" lon="7.09544">
        <ele>2351</ele>
        <time>2022-07-14T09:41:59Z</time>
      </trkpt>
      <trkpt lat="44.68706" lon="7.0953">
        <ele>2353</ele>
        <time>2022-07-14T09:42:14Z</time>
      </trkpt>
      <trkpt lat="44.68707" lon="7.09525">
        <ele>2354</ele>
        <time>2022-07-14T09:42:19Z</time>
      </trkpt>
      <trkpt lat="44.68709" lon="7.09515">
        <ele>2355</ele>
        <time>2022-07-14T09:42:28Z</time>
      </trkpt>
      <trkpt lat="44.68709" lon="7.09506">
        <ele>2358</ele>
        <time>2022-07-14T09:42:43Z</time>
      </trkpt>
      <trkpt lat="44.68711" lon="7.09503">
        <ele>2359</ele>
        <time>2022-07-14T09:43:03Z</time>
      </trkpt>
      <trkpt lat="44.68719" lon="7.09505">
        <ele>2361</ele>
        <time>2022-07-14T09:43:16Z</time>
      </trkpt>
      <trkpt lat="44.68722" lon="7.09506">
        <ele>2361</ele>
        <time>2022-07-14T09:43:21Z</time>
      </trkpt>
      <trkpt lat="44.68729" lon="7.095">
        <ele>2362</ele>
        <time>2022-07-14T09:43:32Z</time>
      </trkpt>
      <trkpt lat="44.68731" lon="7.09496">
        <ele>2363</ele>
        <time>2022-07-14T09:43:37Z</time>
      </trkpt>
      <trkpt lat="44.68732" lon="7.09491">
        <ele>2364</ele>
        <time>2022-07-14T09:43:43Z</time>
      </trkpt>
      <trkpt lat="44.68733" lon="7.09486">
        <ele>2366</ele>
        <time>2022-07-14T09:43:48Z</time>
      </trkpt>
      <trkpt lat="44.68736" lon="7.09477">
        <ele>2366</ele>
        <time>2022-07-14T09:43:59Z</time>
      </trkpt>
      <trkpt lat="44.68736" lon="7.09472">
        <ele>2367</ele>
        <time>2022-07-14T09:44:13Z</time>
      </trkpt>
      <trkpt lat="44.68735" lon="7.09466">
        <ele>2367</ele>
        <time>2022-07-14T09:44:20Z</time>
      </trkpt>
      <trkpt lat="44.68736" lon="7.09461">
        <ele>2367</ele>
        <time>2022-07-14T09:44:25Z</time>
      </trkpt>
      <trkpt lat="44.68737" lon="7.09456">
        <ele>2367</ele>
        <time>2022-07-14T09:44:30Z</time>
      </trkpt>
      <trkpt lat="44.68738" lon="7.09451">
        <ele>2368</ele>
        <time>2022-07-14T09:44:36Z</time>
      </trkpt>
      <trkpt lat="44.68736" lon="7.09447">
        <ele>2369</ele>
        <time>2022-07-14T09:44:44Z</time>
      </trkpt>
      <trkpt lat="44.68737" lon="7.09442">
        <ele>2370</ele>
        <time>2022-07-14T09:44:50Z</time>
      </trkpt>
      <trkpt lat="44.68737" lon="7.09437">
        <ele>2372</ele>
        <time>2022-07-14T09:44:56Z</time>
      </trkpt>
      <trkpt lat="44.68738" lon="7.09431">
        <ele>2372</ele>
        <time>2022-07-14T09:45:01Z</time>
      </trkpt>
      <trkpt lat="44.68735" lon="7.09427">
        <ele>2372</ele>
        <time>2022-07-14T09:45:12Z</time>
      </trkpt>
      <trkpt lat="44.68732" lon="7.09426">
        <ele>2374</ele>
        <time>2022-07-14T09:45:20Z</time>
      </trkpt>
      <trkpt lat="44.68732" lon="7.09421">
        <ele>2376</ele>
        <time>2022-07-14T09:45:27Z</time>
      </trkpt>
      <trkpt lat="44.68732" lon="7.09416">
        <ele>2377</ele>
        <time>2022-07-14T09:45:39Z</time>
      </trkpt>
      <trkpt lat="44.68731" lon="7.09411">
        <ele>2378</ele>
        <time>2022-07-14T09:45:46Z</time>
      </trkpt>
      <trkpt lat="44.68726" lon="7.09404">
        <ele>2379</ele>
        <time>2022-07-14T09:45:57Z</time>
      </trkpt>
      <trkpt lat="44.6872" lon="7.09399">
        <ele>2379</ele>
        <time>2022-07-14T09:46:07Z</time>
      </trkpt>
      <trkpt lat="44.68714" lon="7.09393">
        <ele>2379</ele>
        <time>2022-07-14T09:46:15Z</time>
      </trkpt>
      <trkpt lat="44.68712" lon="7.09389">
        <ele>2378</ele>
        <time>2022-07-14T09:46:19Z</time>
      </trkpt>
      <trkpt lat="44.68701" lon="7.09374">
        <ele>2377</ele>
        <time>2022-07-14T09:46:35Z</time>
      </trkpt>
      <trkpt lat="44.687" lon="7.09369">
        <ele>2377</ele>
        <time>2022-07-14T09:46:39Z</time>
      </trkpt>
      <trkpt lat="44.68699" lon="7.09364">
        <ele>2376</ele>
        <time>2022-07-14T09:46:44Z</time>
      </trkpt>
      <trkpt lat="44.68698" lon="7.09349">
        <ele>2375</ele>
        <time>2022-07-14T09:46:59Z</time>
      </trkpt>
      <trkpt lat="44.68704" lon="7.09334">
        <ele>2374</ele>
        <time>2022-07-14T09:47:20Z</time>
      </trkpt>
      <trkpt lat="44.68708" lon="7.09325">
        <ele>2374</ele>
        <time>2022-07-14T09:47:27Z</time>
      </trkpt>
      <trkpt lat="44.68712" lon="7.09316">
        <ele>2373</ele>
        <time>2022-07-14T09:47:42Z</time>
      </trkpt>
      <trkpt lat="44.68718" lon="7.0931">
        <ele>2374</ele>
        <time>2022-07-14T09:47:53Z</time>
      </trkpt>
      <trkpt lat="44.6872" lon="7.09306">
        <ele>2373</ele>
        <time>2022-07-14T09:48:03Z</time>
      </trkpt>
      <trkpt lat="44.68742" lon="7.09274">
        <ele>2370</ele>
        <time>2022-07-14T09:48:34Z</time>
      </trkpt>
      <trkpt lat="44.68744" lon="7.09269">
        <ele>2370</ele>
        <time>2022-07-14T09:48:39Z</time>
      </trkpt>
      <trkpt lat="44.68748" lon="7.0926">
        <ele>2371</ele>
        <time>2022-07-14T09:48:47Z</time>
      </trkpt>
      <trkpt lat="44.68747" lon="7.09248">
        <ele>2370</ele>
        <time>2022-07-14T09:48:57Z</time>
      </trkpt>
      <trkpt lat="44.68748" lon="7.09227">
        <ele>2371</ele>
        <time>2022-07-14T09:49:15Z</time>
      </trkpt>
      <trkpt lat="44.68746" lon="7.09206">
        <ele>2371</ele>
        <time>2022-07-14T09:49:32Z</time>
      </trkpt>
      <trkpt lat="44.68747" lon="7.0919">
        <ele>2371</ele>
        <time>2022-07-14T09:49:46Z</time>
      </trkpt>
      <trkpt lat="44.68746" lon="7.09184">
        <ele>2371</ele>
        <time>2022-07-14T09:49:52Z</time>
      </trkpt>
      <trkpt lat="44.68746" lon="7.09179">
        <ele>2370</ele>
        <time>2022-07-14T09:50:23Z</time>
      </trkpt>
      <trkpt lat="44.68748" lon="7.09169">
        <ele>2371</ele>
        <time>2022-07-14T09:50:33Z</time>
      </trkpt>
      <trkpt lat="44.68749" lon="7.09164">
        <ele>2372</ele>
        <time>2022-07-14T09:50:38Z</time>
      </trkpt>
      <trkpt lat="44.68757" lon="7.0914">
        <ele>2373</ele>
        <time>2022-07-14T09:51:09Z</time>
      </trkpt>
      <trkpt lat="44.68756" lon="7.09135">
        <ele>2373</ele>
        <time>2022-07-14T09:51:14Z</time>
      </trkpt>
      <trkpt lat="44.68761" lon="7.09115">
        <ele>2375</ele>
        <time>2022-07-14T09:51:34Z</time>
      </trkpt>
      <trkpt lat="44.68764" lon="7.09111">
        <ele>2376</ele>
        <time>2022-07-14T09:51:41Z</time>
      </trkpt>
      <trkpt lat="44.68766" lon="7.09107">
        <ele>2376</ele>
        <time>2022-07-14T09:51:47Z</time>
      </trkpt>
      <trkpt lat="44.68769" lon="7.09104">
        <ele>2377</ele>
        <time>2022-07-14T09:51:53Z</time>
      </trkpt>
      <trkpt lat="44.68776" lon="7.09101">
        <ele>2379</ele>
        <time>2022-07-14T09:52:04Z</time>
      </trkpt>
      <trkpt lat="44.6878" lon="7.091">
        <ele>2380</ele>
        <time>2022-07-14T09:52:09Z</time>
      </trkpt>
      <trkpt lat="44.68787" lon="7.09097">
        <ele>2383</ele>
        <time>2022-07-14T09:52:20Z</time>
      </trkpt>
      <trkpt lat="44.68791" lon="7.091">
        <ele>2384</ele>
        <time>2022-07-14T09:52:25Z</time>
      </trkpt>
      <trkpt lat="44.68798" lon="7.091">
        <ele>2386</ele>
        <time>2022-07-14T09:52:35Z</time>
      </trkpt>
      <trkpt lat="44.68802" lon="7.091">
        <ele>2387</ele>
        <time>2022-07-14T09:52:40Z</time>
      </trkpt>
      <trkpt lat="44.68806" lon="7.09098">
        <ele>2388</ele>
        <time>2022-07-14T09:52:48Z</time>
      </trkpt>
      <trkpt lat="44.68809" lon="7.09099">
        <ele>2388</ele>
        <time>2022-07-14T09:52:53Z</time>
      </trkpt>
      <trkpt lat="44.68813" lon="7.09098">
        <ele>2389</ele>
        <time>2022-07-14T09:52:58Z</time>
      </trkpt>
      <trkpt lat="44.68824" lon="7.09093">
        <ele>2389</ele>
        <time>2022-07-14T09:53:14Z</time>
      </trkpt>
      <trkpt lat="44.68827" lon="7.09091">
        <ele>2390</ele>
        <time>2022-07-14T09:53:20Z</time>
      </trkpt>
      <trkpt lat="44.6884" lon="7.09063">
        <ele>2396</ele>
        <time>2022-07-14T09:53:54Z</time>
      </trkpt>
      <trkpt lat="44.68848" lon="7.09054">
        <ele>2390</ele>
        <time>2022-07-14T09:54:57Z</time>
      </trkpt>
      <trkpt lat="44.68856" lon="7.09047">
        <ele>2388</ele>
        <time>2022-07-14T09:55:08Z</time>
      </trkpt>
      <trkpt lat="44.68863" lon="7.09039">
        <ele>2385</ele>
        <time>2022-07-14T09:55:20Z</time>
      </trkpt>
      <trkpt lat="44.68866" lon="7.09026">
        <ele>2383</ele>
        <time>2022-07-14T09:55:32Z</time>
      </trkpt>
      <trkpt lat="44.6887" lon="7.09021">
        <ele>2382</ele>
        <time>2022-07-14T09:55:38Z</time>
      </trkpt>
      <trkpt lat="44.68869" lon="7.09016">
        <ele>2381</ele>
        <time>2022-07-14T09:55:43Z</time>
      </trkpt>
      <trkpt lat="44.68871" lon="7.09011">
        <ele>2379</ele>
        <time>2022-07-14T09:55:59Z</time>
      </trkpt>
      <trkpt lat="44.68873" lon="7.09006">
        <ele>2379</ele>
        <time>2022-07-14T09:56:05Z</time>
      </trkpt>
      <trkpt lat="44.68876" lon="7.09008">
        <ele>2377</ele>
        <time>2022-07-14T09:56:09Z</time>
      </trkpt>
      <trkpt lat="44.68884" lon="7.0901">
        <ele>2376</ele>
        <time>2022-07-14T09:56:17Z</time>
      </trkpt>
      <trkpt lat="44.68888" lon="7.09012">
        <ele>2375</ele>
        <time>2022-07-14T09:56:21Z</time>
      </trkpt>
      <trkpt lat="44.68891" lon="7.09016">
        <ele>2374</ele>
        <time>2022-07-14T09:56:25Z</time>
      </trkpt>
      <trkpt lat="44.68894" lon="7.09017">
        <ele>2374</ele>
        <time>2022-07-14T09:56:30Z</time>
      </trkpt>
      <trkpt lat="44.689" lon="7.09014">
        <ele>2371</ele>
        <time>2022-07-14T09:56:36Z</time>
      </trkpt>
      <trkpt lat="44.68905" lon="7.09003">
        <ele>2370</ele>
        <time>2022-07-14T09:56:53Z</time>
      </trkpt>
      <trkpt lat="44.68914" lon="7.09005">
        <ele>2372</ele>
        <time>2022-07-14T09:57:07Z</time>
      </trkpt>
      <trkpt lat="44.68918" lon="7.09003">
        <ele>2373</ele>
        <time>2022-07-14T09:57:17Z</time>
      </trkpt>
      <trkpt lat="44.68917" lon="7.08998">
        <ele>2373</ele>
        <time>2022-07-14T09:57:22Z</time>
      </trkpt>
      <trkpt lat="44.68919" lon="7.08994">
        <ele>2372</ele>
        <time>2022-07-14T09:57:26Z</time>
      </trkpt>
      <trkpt lat="44.68922" lon="7.08991">
        <ele>2372</ele>
        <time>2022-07-14T09:57:30Z</time>
      </trkpt>
      <trkpt lat="44.68926" lon="7.08991">
        <ele>2371</ele>
        <time>2022-07-14T09:57:35Z</time>
      </trkpt>
      <trkpt lat="44.6893" lon="7.08992">
        <ele>2371</ele>
        <time>2022-07-14T09:57:40Z</time>
      </trkpt>
      <trkpt lat="44.68946" lon="7.08978">
        <ele>2369</ele>
        <time>2022-07-14T09:58:05Z</time>
      </trkpt>
      <trkpt lat="44.68949" lon="7.08976">
        <ele>2369</ele>
        <time>2022-07-14T09:58:10Z</time>
      </trkpt>
      <trkpt lat="44.68951" lon="7.08971">
        <ele>2369</ele>
        <time>2022-07-14T09:58:15Z</time>
      </trkpt>
      <trkpt lat="44.68951" lon="7.08966">
        <ele>2369</ele>
        <time>2022-07-14T09:58:39Z</time>
      </trkpt>
      <trkpt lat="44.68952" lon="7.08961">
        <ele>2368</ele>
        <time>2022-07-14T09:58:47Z</time>
      </trkpt>
      <trkpt lat="44.68954" lon="7.08957">
        <ele>2370</ele>
        <time>2022-07-14T09:58:56Z</time>
      </trkpt>
      <trkpt lat="44.68956" lon="7.08953">
        <ele>2370</ele>
        <time>2022-07-14T09:59:31Z</time>
      </trkpt>
      <trkpt lat="44.68959" lon="7.0895">
        <ele>2369</ele>
        <time>2022-07-14T09:59:40Z</time>
      </trkpt>
      <trkpt lat="44.68963" lon="7.08948">
        <ele>2367</ele>
        <time>2022-07-14T10:00:43Z</time>
      </trkpt>
      <trkpt lat="44.68966" lon="7.08948">
        <ele>2364</ele>
        <time>2022-07-14T10:00:49Z</time>
      </trkpt>
      <trkpt lat="44.6897" lon="7.08948">
        <ele>2364</ele>
        <time>2022-07-14T10:00:55Z</time>
      </trkpt>
      <trkpt lat="44.68974" lon="7.08949">
        <ele>2361</ele>
        <time>2022-07-14T10:01:10Z</time>
      </trkpt>
      <trkpt lat="44.68977" lon="7.08947">
        <ele>2360</ele>
        <time>2022-07-14T10:01:17Z</time>
      </trkpt>
      <trkpt lat="44.68981" lon="7.08946">
        <ele>2357</ele>
        <time>2022-07-14T10:01:23Z</time>
      </trkpt>
      <trkpt lat="44.6898" lon="7.08941">
        <ele>2357</ele>
        <time>2022-07-14T10:01:28Z</time>
      </trkpt>
      <trkpt lat="44.68977" lon="7.08938">
        <ele>2357</ele>
        <time>2022-07-14T10:01:33Z</time>
      </trkpt>
      <trkpt lat="44.68975" lon="7.08934">
        <ele>2356</ele>
        <time>2022-07-14T10:01:40Z</time>
      </trkpt>
      <trkpt lat="44.68984" lon="7.08926">
        <ele>2352</ele>
        <time>2022-07-14T10:02:02Z</time>
      </trkpt>
      <trkpt lat="44.68988" lon="7.08928">
        <ele>2352</ele>
        <time>2022-07-14T10:02:06Z</time>
      </trkpt>
      <trkpt lat="44.68991" lon="7.08926">
        <ele>2352</ele>
        <time>2022-07-14T10:02:15Z</time>
      </trkpt>
      <trkpt lat="44.68995" lon="7.08928">
        <ele>2351</ele>
        <time>2022-07-14T10:02:20Z</time>
      </trkpt>
      <trkpt lat="44.68998" lon="7.08927">
        <ele>2350</ele>
        <time>2022-07-14T10:02:28Z</time>
      </trkpt>
      <trkpt lat="44.69002" lon="7.08925">
        <ele>2348</ele>
        <time>2022-07-14T10:02:35Z</time>
      </trkpt>
      <trkpt lat="44.69005" lon="7.08924">
        <ele>2346</ele>
        <time>2022-07-14T10:02:42Z</time>
      </trkpt>
      <trkpt lat="44.69009" lon="7.08924">
        <ele>2344</ele>
        <time>2022-07-14T10:02:49Z</time>
      </trkpt>
      <trkpt lat="44.69012" lon="7.08925">
        <ele>2342</ele>
        <time>2022-07-14T10:02:55Z</time>
      </trkpt>
      <trkpt lat="44.69016" lon="7.08923">
        <ele>2340</ele>
        <time>2022-07-14T10:03:01Z</time>
      </trkpt>
      <trkpt lat="44.69019" lon="7.08922">
        <ele>2339</ele>
        <time>2022-07-14T10:03:06Z</time>
      </trkpt>
      <trkpt lat="44.69021" lon="7.08917">
        <ele>2336</ele>
        <time>2022-07-14T10:03:13Z</time>
      </trkpt>
      <trkpt lat="44.69025" lon="7.08915">
        <ele>2334</ele>
        <time>2022-07-14T10:03:17Z</time>
      </trkpt>
      <trkpt lat="44.69028" lon="7.08913">
        <ele>2334</ele>
        <time>2022-07-14T10:03:21Z</time>
      </trkpt>
      <trkpt lat="44.69033" lon="7.08905">
        <ele>2332</ele>
        <time>2022-07-14T10:03:29Z</time>
      </trkpt>
      <trkpt lat="44.69041" lon="7.08902">
        <ele>2332</ele>
        <time>2022-07-14T10:03:37Z</time>
      </trkpt>
      <trkpt lat="44.69044" lon="7.08899">
        <ele>2331</ele>
        <time>2022-07-14T10:03:41Z</time>
      </trkpt>
      <trkpt lat="44.69044" lon="7.08894">
        <ele>2331</ele>
        <time>2022-07-14T10:03:49Z</time>
      </trkpt>
      <trkpt lat="44.69046" lon="7.0889">
        <ele>2330</ele>
        <time>2022-07-14T10:03:54Z</time>
      </trkpt>
      <trkpt lat="44.69053" lon="7.08885">
        <ele>2331</ele>
        <time>2022-07-14T10:04:02Z</time>
      </trkpt>
      <trkpt lat="44.69084" lon="7.08875">
        <ele>2331</ele>
        <time>2022-07-14T10:04:33Z</time>
      </trkpt>
      <trkpt lat="44.69093" lon="7.08873">
        <ele>2331</ele>
        <time>2022-07-14T10:04:41Z</time>
      </trkpt>
      <trkpt lat="44.69096" lon="7.08873">
        <ele>2331</ele>
        <time>2022-07-14T10:04:45Z</time>
      </trkpt>
      <trkpt lat="44.69099" lon="7.0887">
        <ele>2331</ele>
        <time>2022-07-14T10:04:48Z</time>
      </trkpt>
      <trkpt lat="44.69102" lon="7.08867">
        <ele>2330</ele>
        <time>2022-07-14T10:04:54Z</time>
      </trkpt>
      <trkpt lat="44.69111" lon="7.08865">
        <ele>2332</ele>
        <time>2022-07-14T10:05:11Z</time>
      </trkpt>
      <trkpt lat="44.69119" lon="7.08856">
        <ele>2334</ele>
        <time>2022-07-14T10:05:24Z</time>
      </trkpt>
      <trkpt lat="44.69128" lon="7.08852">
        <ele>2335</ele>
        <time>2022-07-14T10:05:36Z</time>
      </trkpt>
      <trkpt lat="44.69137" lon="7.08853">
        <ele>2334</ele>
        <time>2022-07-14T10:05:52Z</time>
      </trkpt>
      <trkpt lat="44.69157" lon="7.08853">
        <ele>2334</ele>
        <time>2022-07-14T10:06:26Z</time>
      </trkpt>
      <trkpt lat="44.69172" lon="7.08847">
        <ele>2334</ele>
        <time>2022-07-14T10:06:51Z</time>
      </trkpt>
      <trkpt lat="44.69183" lon="7.08843">
        <ele>2332</ele>
        <time>2022-07-14T10:07:06Z</time>
      </trkpt>
      <trkpt lat="44.69193" lon="7.08821">
        <ele>2333</ele>
        <time>2022-07-14T10:08:14Z</time>
      </trkpt>
      <trkpt lat="44.69199" lon="7.08811">
        <ele>2333</ele>
        <time>2022-07-14T10:08:26Z</time>
      </trkpt>
      <trkpt lat="44.69208" lon="7.08808">
        <ele>2333</ele>
        <time>2022-07-14T10:08:38Z</time>
      </trkpt>
      <trkpt lat="44.69217" lon="7.08803">
        <ele>2332</ele>
        <time>2022-07-14T10:08:47Z</time>
      </trkpt>
      <trkpt lat="44.69243" lon="7.08793">
        <ele>2332</ele>
        <time>2022-07-14T10:09:23Z</time>
      </trkpt>
      <trkpt lat="44.69262" lon="7.08789">
        <ele>2335</ele>
        <time>2022-07-14T10:09:49Z</time>
      </trkpt>
      <trkpt lat="44.69271" lon="7.08786">
        <ele>2334</ele>
        <time>2022-07-14T10:10:02Z</time>
      </trkpt>
      <trkpt lat="44.69278" lon="7.08795">
        <ele>2330</ele>
        <time>2022-07-14T10:10:14Z</time>
      </trkpt>
      <trkpt lat="44.69287" lon="7.08797">
        <ele>2331</ele>
        <time>2022-07-14T10:10:28Z</time>
      </trkpt>
      <trkpt lat="44.69315" lon="7.08805">
        <ele>2334</ele>
        <time>2022-07-14T10:11:05Z</time>
      </trkpt>
      <trkpt lat="44.69324" lon="7.08806">
        <ele>2333</ele>
        <time>2022-07-14T10:11:15Z</time>
      </trkpt>
      <trkpt lat="44.69333" lon="7.08803">
        <ele>2330</ele>
        <time>2022-07-14T10:11:26Z</time>
      </trkpt>
      <trkpt lat="44.69342" lon="7.08805">
        <ele>2328</ele>
        <time>2022-07-14T10:11:37Z</time>
      </trkpt>
      <trkpt lat="44.69351" lon="7.08805">
        <ele>2325</ele>
        <time>2022-07-14T10:11:48Z</time>
      </trkpt>
      <trkpt lat="44.69355" lon="7.08807">
        <ele>2324</ele>
        <time>2022-07-14T10:11:56Z</time>
      </trkpt>
      <trkpt lat="44.69357" lon="7.08812">
        <ele>2324</ele>
        <time>2022-07-14T10:12:05Z</time>
      </trkpt>
      <trkpt lat="44.6936" lon="7.08814">
        <ele>2324</ele>
        <time>2022-07-14T10:12:13Z</time>
      </trkpt>
      <trkpt lat="44.69375" lon="7.08817">
        <ele>2323</ele>
        <time>2022-07-14T10:12:35Z</time>
      </trkpt>
      <trkpt lat="44.69382" lon="7.08822">
        <ele>2323</ele>
        <time>2022-07-14T10:12:45Z</time>
      </trkpt>
      <trkpt lat="44.69385" lon="7.0882">
        <ele>2322</ele>
        <time>2022-07-14T10:12:51Z</time>
      </trkpt>
      <trkpt lat="44.69385" lon="7.08821">
        <ele>2323</ele>
        <time>2022-07-14T10:35:09Z</time>
      </trkpt>
      <trkpt lat="44.69384" lon="7.08825">
        <ele>2322</ele>
        <time>2022-07-14T10:35:15Z</time>
      </trkpt>
      <trkpt lat="44.69387" lon="7.08829">
        <ele>2321</ele>
        <time>2022-07-14T10:35:21Z</time>
      </trkpt>
      <trkpt lat="44.6939" lon="7.08831">
        <ele>2320</ele>
        <time>2022-07-14T10:35:27Z</time>
      </trkpt>
      <trkpt lat="44.69401" lon="7.08836">
        <ele>2317</ele>
        <time>2022-07-14T10:35:45Z</time>
      </trkpt>
      <trkpt lat="44.69404" lon="7.0884">
        <ele>2317</ele>
        <time>2022-07-14T10:35:50Z</time>
      </trkpt>
      <trkpt lat="44.69406" lon="7.08843">
        <ele>2316</ele>
        <time>2022-07-14T10:35:55Z</time>
      </trkpt>
      <trkpt lat="44.6941" lon="7.08843">
        <ele>2315</ele>
        <time>2022-07-14T10:36:02Z</time>
      </trkpt>
      <trkpt lat="44.69413" lon="7.08846">
        <ele>2315</ele>
        <time>2022-07-14T10:36:06Z</time>
      </trkpt>
      <trkpt lat="44.69424" lon="7.0885">
        <ele>2313</ele>
        <time>2022-07-14T10:36:21Z</time>
      </trkpt>
      <trkpt lat="44.69427" lon="7.08851">
        <ele>2313</ele>
        <time>2022-07-14T10:36:27Z</time>
      </trkpt>
      <trkpt lat="44.69429" lon="7.08856">
        <ele>2313</ele>
        <time>2022-07-14T10:36:32Z</time>
      </trkpt>
      <trkpt lat="44.6943" lon="7.08861">
        <ele>2314</ele>
        <time>2022-07-14T10:36:38Z</time>
      </trkpt>
      <trkpt lat="44.69431" lon="7.08866">
        <ele>2316</ele>
        <time>2022-07-14T10:36:43Z</time>
      </trkpt>
      <trkpt lat="44.69434" lon="7.08869">
        <ele>2316</ele>
        <time>2022-07-14T10:36:52Z</time>
      </trkpt>
      <trkpt lat="44.69437" lon="7.0887">
        <ele>2316</ele>
        <time>2022-07-14T10:36:57Z</time>
      </trkpt>
      <trkpt lat="44.69456" lon="7.08889">
        <ele>2317</ele>
        <time>2022-07-14T10:37:27Z</time>
      </trkpt>
      <trkpt lat="44.69459" lon="7.08892">
        <ele>2317</ele>
        <time>2022-07-14T10:37:31Z</time>
      </trkpt>
      <trkpt lat="44.69462" lon="7.08893">
        <ele>2317</ele>
        <time>2022-07-14T10:37:35Z</time>
      </trkpt>
      <trkpt lat="44.69464" lon="7.08898">
        <ele>2317</ele>
        <time>2022-07-14T10:37:39Z</time>
      </trkpt>
      <trkpt lat="44.69468" lon="7.089">
        <ele>2316</ele>
        <time>2022-07-14T10:37:45Z</time>
      </trkpt>
      <trkpt lat="44.69471" lon="7.0891">
        <ele>2317</ele>
        <time>2022-07-14T10:37:53Z</time>
      </trkpt>
      <trkpt lat="44.69478" lon="7.08916">
        <ele>2316</ele>
        <time>2022-07-14T10:38:01Z</time>
      </trkpt>
      <trkpt lat="44.69482" lon="7.08918">
        <ele>2316</ele>
        <time>2022-07-14T10:38:06Z</time>
      </trkpt>
      <trkpt lat="44.69489" lon="7.08923">
        <ele>2316</ele>
        <time>2022-07-14T10:38:14Z</time>
      </trkpt>
      <trkpt lat="44.69496" lon="7.08925">
        <ele>2318</ele>
        <time>2022-07-14T10:38:23Z</time>
      </trkpt>
      <trkpt lat="44.695" lon="7.08927">
        <ele>2317</ele>
        <time>2022-07-14T10:38:28Z</time>
      </trkpt>
      <trkpt lat="44.69503" lon="7.08928">
        <ele>2318</ele>
        <time>2022-07-14T10:38:33Z</time>
      </trkpt>
      <trkpt lat="44.6951" lon="7.08932">
        <ele>2319</ele>
        <time>2022-07-14T10:38:41Z</time>
      </trkpt>
      <trkpt lat="44.69525" lon="7.08934">
        <ele>2320</ele>
        <time>2022-07-14T10:38:58Z</time>
      </trkpt>
      <trkpt lat="44.69529" lon="7.08936">
        <ele>2320</ele>
        <time>2022-07-14T10:39:03Z</time>
      </trkpt>
      <trkpt lat="44.69533" lon="7.08936">
        <ele>2320</ele>
        <time>2022-07-14T10:39:08Z</time>
      </trkpt>
      <trkpt lat="44.69536" lon="7.08938">
        <ele>2320</ele>
        <time>2022-07-14T10:39:13Z</time>
      </trkpt>
      <trkpt lat="44.69539" lon="7.08943">
        <ele>2321</ele>
        <time>2022-07-14T10:39:18Z</time>
      </trkpt>
      <trkpt lat="44.69539" lon="7.08948">
        <ele>2321</ele>
        <time>2022-07-14T10:39:22Z</time>
      </trkpt>
      <trkpt lat="44.69544" lon="7.08956">
        <ele>2321</ele>
        <time>2022-07-14T10:39:31Z</time>
      </trkpt>
      <trkpt lat="44.69548" lon="7.08959">
        <ele>2321</ele>
        <time>2022-07-14T10:39:35Z</time>
      </trkpt>
      <trkpt lat="44.69551" lon="7.08961">
        <ele>2321</ele>
        <time>2022-07-14T10:39:39Z</time>
      </trkpt>
      <trkpt lat="44.69555" lon="7.0896">
        <ele>2321</ele>
        <time>2022-07-14T10:39:45Z</time>
      </trkpt>
      <trkpt lat="44.69559" lon="7.0896">
        <ele>2321</ele>
        <time>2022-07-14T10:39:51Z</time>
      </trkpt>
      <trkpt lat="44.69563" lon="7.08961">
        <ele>2321</ele>
        <time>2022-07-14T10:39:56Z</time>
      </trkpt>
      <trkpt lat="44.69565" lon="7.08966">
        <ele>2321</ele>
        <time>2022-07-14T10:40:00Z</time>
      </trkpt>
      <trkpt lat="44.6957" lon="7.08972">
        <ele>2320</ele>
        <time>2022-07-14T10:40:09Z</time>
      </trkpt>
      <trkpt lat="44.6959" lon="7.08975">
        <ele>2319</ele>
        <time>2022-07-14T10:40:31Z</time>
      </trkpt>
      <trkpt lat="44.69594" lon="7.08976">
        <ele>2319</ele>
        <time>2022-07-14T10:40:36Z</time>
      </trkpt>
      <trkpt lat="44.69598" lon="7.08976">
        <ele>2318</ele>
        <time>2022-07-14T10:40:40Z</time>
      </trkpt>
      <trkpt lat="44.69601" lon="7.08977">
        <ele>2318</ele>
        <time>2022-07-14T10:40:45Z</time>
      </trkpt>
      <trkpt lat="44.69605" lon="7.08979">
        <ele>2318</ele>
        <time>2022-07-14T10:40:51Z</time>
      </trkpt>
      <trkpt lat="44.69615" lon="7.08986">
        <ele>2317</ele>
        <time>2022-07-14T10:41:06Z</time>
      </trkpt>
      <trkpt lat="44.69626" lon="7.0899">
        <ele>2313</ele>
        <time>2022-07-14T10:41:21Z</time>
      </trkpt>
      <trkpt lat="44.69629" lon="7.08987">
        <ele>2312</ele>
        <time>2022-07-14T10:41:26Z</time>
      </trkpt>
      <trkpt lat="44.69633" lon="7.08986">
        <ele>2311</ele>
        <time>2022-07-14T10:41:34Z</time>
      </trkpt>
      <trkpt lat="44.69635" lon="7.08982">
        <ele>2311</ele>
        <time>2022-07-14T10:41:39Z</time>
      </trkpt>
      <trkpt lat="44.69639" lon="7.0898">
        <ele>2309</ele>
        <time>2022-07-14T10:41:45Z</time>
      </trkpt>
      <trkpt lat="44.69643" lon="7.08982">
        <ele>2309</ele>
        <time>2022-07-14T10:41:50Z</time>
      </trkpt>
      <trkpt lat="44.6965" lon="7.08983">
        <ele>2306</ele>
        <time>2022-07-14T10:42:02Z</time>
      </trkpt>
      <trkpt lat="44.69654" lon="7.08987">
        <ele>2306</ele>
        <time>2022-07-14T10:42:10Z</time>
      </trkpt>
      <trkpt lat="44.69657" lon="7.08987">
        <ele>2305</ele>
        <time>2022-07-14T10:42:21Z</time>
      </trkpt>
      <trkpt lat="44.6966" lon="7.0899">
        <ele>2305</ele>
        <time>2022-07-14T10:42:28Z</time>
      </trkpt>
      <trkpt lat="44.69663" lon="7.08993">
        <ele>2303</ele>
        <time>2022-07-14T10:42:36Z</time>
      </trkpt>
      <trkpt lat="44.69667" lon="7.08994">
        <ele>2302</ele>
        <time>2022-07-14T10:42:42Z</time>
      </trkpt>
      <trkpt lat="44.69671" lon="7.08996">
        <ele>2301</ele>
        <time>2022-07-14T10:42:45Z</time>
      </trkpt>
      <trkpt lat="44.69672" lon="7.09001">
        <ele>2301</ele>
        <time>2022-07-14T10:42:48Z</time>
      </trkpt>
      <trkpt lat="44.69675" lon="7.09002">
        <ele>2302</ele>
        <time>2022-07-14T10:42:54Z</time>
      </trkpt>
      <trkpt lat="44.69678" lon="7.09005">
        <ele>2302</ele>
        <time>2022-07-14T10:43:08Z</time>
      </trkpt>
      <trkpt lat="44.6968" lon="7.09">
        <ele>2302</ele>
        <time>2022-07-14T10:43:17Z</time>
      </trkpt>
      <trkpt lat="44.69683" lon="7.09002">
        <ele>2300</ele>
        <time>2022-07-14T10:43:24Z</time>
      </trkpt>
      <trkpt lat="44.69686" lon="7.09">
        <ele>2300</ele>
        <time>2022-07-14T10:43:30Z</time>
      </trkpt>
      <trkpt lat="44.69688" lon="7.09004">
        <ele>2297</ele>
        <time>2022-07-14T10:43:37Z</time>
      </trkpt>
      <trkpt lat="44.69687" lon="7.09009">
        <ele>2297</ele>
        <time>2022-07-14T10:43:42Z</time>
      </trkpt>
      <trkpt lat="44.6969" lon="7.09011">
        <ele>2294</ele>
        <time>2022-07-14T10:43:51Z</time>
      </trkpt>
      <trkpt lat="44.6969" lon="7.09016">
        <ele>2294</ele>
        <time>2022-07-14T10:43:57Z</time>
      </trkpt>
      <trkpt lat="44.69693" lon="7.09014">
        <ele>2290</ele>
        <time>2022-07-14T10:44:04Z</time>
      </trkpt>
      <trkpt lat="44.69697" lon="7.09012">
        <ele>2289</ele>
        <time>2022-07-14T10:44:10Z</time>
      </trkpt>
      <trkpt lat="44.69698" lon="7.09017">
        <ele>2289</ele>
        <time>2022-07-14T10:44:15Z</time>
      </trkpt>
      <trkpt lat="44.69697" lon="7.09023">
        <ele>2289</ele>
        <time>2022-07-14T10:44:20Z</time>
      </trkpt>
      <trkpt lat="44.69693" lon="7.09026">
        <ele>2288</ele>
        <time>2022-07-14T10:44:23Z</time>
      </trkpt>
      <trkpt lat="44.69698" lon="7.09033">
        <ele>2284</ele>
        <time>2022-07-14T10:44:42Z</time>
      </trkpt>
      <trkpt lat="44.69702" lon="7.09032">
        <ele>2282</ele>
        <time>2022-07-14T10:44:55Z</time>
      </trkpt>
      <trkpt lat="44.69702" lon="7.09037">
        <ele>2281</ele>
        <time>2022-07-14T10:45:03Z</time>
      </trkpt>
      <trkpt lat="44.697" lon="7.09047">
        <ele>2278</ele>
        <time>2022-07-14T10:45:13Z</time>
      </trkpt>
      <trkpt lat="44.69701" lon="7.09052">
        <ele>2277</ele>
        <time>2022-07-14T10:45:22Z</time>
      </trkpt>
      <trkpt lat="44.69701" lon="7.09058">
        <ele>2276</ele>
        <time>2022-07-14T10:45:28Z</time>
      </trkpt>
      <trkpt lat="44.69703" lon="7.09069">
        <ele>2273</ele>
        <time>2022-07-14T10:45:38Z</time>
      </trkpt>
      <trkpt lat="44.69701" lon="7.09074">
        <ele>2272</ele>
        <time>2022-07-14T10:45:43Z</time>
      </trkpt>
      <trkpt lat="44.697" lon="7.09079">
        <ele>2271</ele>
        <time>2022-07-14T10:45:48Z</time>
      </trkpt>
      <trkpt lat="44.69701" lon="7.09084">
        <ele>2270</ele>
        <time>2022-07-14T10:45:53Z</time>
      </trkpt>
      <trkpt lat="44.69701" lon="7.09089">
        <ele>2270</ele>
        <time>2022-07-14T10:45:58Z</time>
      </trkpt>
      <trkpt lat="44.6969" lon="7.09093">
        <ele>2270</ele>
        <time>2022-07-14T10:46:10Z</time>
      </trkpt>
      <trkpt lat="44.69694" lon="7.09096">
        <ele>2270</ele>
        <time>2022-07-14T10:46:12Z</time>
      </trkpt>
      <trkpt lat="44.69697" lon="7.09092">
        <ele>2269</ele>
        <time>2022-07-14T10:46:15Z</time>
      </trkpt>
      <trkpt lat="44.697" lon="7.0909">
        <ele>2268</ele>
        <time>2022-07-14T10:46:19Z</time>
      </trkpt>
      <trkpt lat="44.69703" lon="7.09093">
        <ele>2268</ele>
        <time>2022-07-14T10:46:25Z</time>
      </trkpt>
      <trkpt lat="44.69706" lon="7.09089">
        <ele>2268</ele>
        <time>2022-07-14T10:46:36Z</time>
      </trkpt>
      <trkpt lat="44.69709" lon="7.09088">
        <ele>2268</ele>
        <time>2022-07-14T10:46:42Z</time>
      </trkpt>
      <trkpt lat="44.69713" lon="7.09086">
        <ele>2266</ele>
        <time>2022-07-14T10:46:47Z</time>
      </trkpt>
      <trkpt lat="44.69715" lon="7.09081">
        <ele>2265</ele>
        <time>2022-07-14T10:46:52Z</time>
      </trkpt>
      <trkpt lat="44.69719" lon="7.09079">
        <ele>2263</ele>
        <time>2022-07-14T10:46:57Z</time>
      </trkpt>
      <trkpt lat="44.6972" lon="7.09083">
        <ele>2262</ele>
        <time>2022-07-14T10:47:03Z</time>
      </trkpt>
      <trkpt lat="44.69724" lon="7.09084">
        <ele>2261</ele>
        <time>2022-07-14T10:47:09Z</time>
      </trkpt>
      <trkpt lat="44.69728" lon="7.09081">
        <ele>2260</ele>
        <time>2022-07-14T10:47:15Z</time>
      </trkpt>
      <trkpt lat="44.6973" lon="7.09077">
        <ele>2259</ele>
        <time>2022-07-14T10:47:20Z</time>
      </trkpt>
      <trkpt lat="44.69728" lon="7.09073">
        <ele>2259</ele>
        <time>2022-07-14T10:47:24Z</time>
      </trkpt>
      <trkpt lat="44.69724" lon="7.09065">
        <ele>2258</ele>
        <time>2022-07-14T10:47:34Z</time>
      </trkpt>
      <trkpt lat="44.69722" lon="7.0906">
        <ele>2258</ele>
        <time>2022-07-14T10:47:40Z</time>
      </trkpt>
      <trkpt lat="44.69722" lon="7.09055">
        <ele>2257</ele>
        <time>2022-07-14T10:47:45Z</time>
      </trkpt>
      <trkpt lat="44.69721" lon="7.09049">
        <ele>2254</ele>
        <time>2022-07-14T10:47:51Z</time>
      </trkpt>
      <trkpt lat="44.69725" lon="7.09049">
        <ele>2254</ele>
        <time>2022-07-14T10:47:55Z</time>
      </trkpt>
      <trkpt lat="44.69728" lon="7.09046">
        <ele>2253</ele>
        <time>2022-07-14T10:48:00Z</time>
      </trkpt>
      <trkpt lat="44.69731" lon="7.09049">
        <ele>2253</ele>
        <time>2022-07-14T10:48:05Z</time>
      </trkpt>
      <trkpt lat="44.69735" lon="7.09049">
        <ele>2254</ele>
        <time>2022-07-14T10:48:11Z</time>
      </trkpt>
      <trkpt lat="44.69737" lon="7.09044">
        <ele>2253</ele>
        <time>2022-07-14T10:48:19Z</time>
      </trkpt>
      <trkpt lat="44.6974" lon="7.09045">
        <ele>2253</ele>
        <time>2022-07-14T10:48:28Z</time>
      </trkpt>
      <trkpt lat="44.69743" lon="7.09043">
        <ele>2251</ele>
        <time>2022-07-14T10:48:36Z</time>
      </trkpt>
      <trkpt lat="44.69745" lon="7.09038">
        <ele>2251</ele>
        <time>2022-07-14T10:48:49Z</time>
      </trkpt>
      <trkpt lat="44.69742" lon="7.09035">
        <ele>2247</ele>
        <time>2022-07-14T10:49:02Z</time>
      </trkpt>
      <trkpt lat="44.69739" lon="7.09032">
        <ele>2245</ele>
        <time>2022-07-14T10:49:07Z</time>
      </trkpt>
      <trkpt lat="44.69738" lon="7.09028">
        <ele>2245</ele>
        <time>2022-07-14T10:49:19Z</time>
      </trkpt>
      <trkpt lat="44.6974" lon="7.09023">
        <ele>2244</ele>
        <time>2022-07-14T10:49:27Z</time>
      </trkpt>
      <trkpt lat="44.69743" lon="7.09024">
        <ele>2242</ele>
        <time>2022-07-14T10:49:41Z</time>
      </trkpt>
      <trkpt lat="44.69748" lon="7.09026">
        <ele>2243</ele>
        <time>2022-07-14T10:49:49Z</time>
      </trkpt>
      <trkpt lat="44.69748" lon="7.09028">
        <ele>2246</ele>
        <time>2022-07-14T10:51:53Z</time>
      </trkpt>
      <trkpt lat="44.69757" lon="7.09025">
        <ele>2246</ele>
        <time>2022-07-14T10:52:10Z</time>
      </trkpt>
      <trkpt lat="44.69766" lon="7.09021">
        <ele>2241</ele>
        <time>2022-07-14T10:52:23Z</time>
      </trkpt>
      <trkpt lat="44.69773" lon="7.09029">
        <ele>2238</ele>
        <time>2022-07-14T10:52:38Z</time>
      </trkpt>
      <trkpt lat="44.69778" lon="7.09018">
        <ele>2236</ele>
        <time>2022-07-14T10:52:57Z</time>
      </trkpt>
      <trkpt lat="44.69786" lon="7.09014">
        <ele>2230</ele>
        <time>2022-07-14T10:53:16Z</time>
      </trkpt>
      <trkpt lat="44.69793" lon="7.09005">
        <ele>2227</ele>
        <time>2022-07-14T10:53:36Z</time>
      </trkpt>
      <trkpt lat="44.69812" lon="7.09005">
        <ele>2223</ele>
        <time>2022-07-14T10:54:19Z</time>
      </trkpt>
      <trkpt lat="44.6982" lon="7.08998">
        <ele>2218</ele>
        <time>2022-07-14T10:55:14Z</time>
      </trkpt>
      <trkpt lat="44.69828" lon="7.08992">
        <ele>2217</ele>
        <time>2022-07-14T10:55:24Z</time>
      </trkpt>
      <trkpt lat="44.69838" lon="7.08991">
        <ele>2213</ele>
        <time>2022-07-14T10:55:40Z</time>
      </trkpt>
      <trkpt lat="44.69847" lon="7.08988">
        <ele>2208</ele>
        <time>2022-07-14T10:55:58Z</time>
      </trkpt>
      <trkpt lat="44.69851" lon="7.08986">
        <ele>2208</ele>
        <time>2022-07-14T10:56:04Z</time>
      </trkpt>
      <trkpt lat="44.69854" lon="7.0899">
        <ele>2207</ele>
        <time>2022-07-14T10:56:12Z</time>
      </trkpt>
      <trkpt lat="44.69858" lon="7.0899">
        <ele>2207</ele>
        <time>2022-07-14T10:56:18Z</time>
      </trkpt>
      <trkpt lat="44.69862" lon="7.08989">
        <ele>2206</ele>
        <time>2022-07-14T10:56:24Z</time>
      </trkpt>
      <trkpt lat="44.69865" lon="7.08987">
        <ele>2205</ele>
        <time>2022-07-14T10:56:28Z</time>
      </trkpt>
      <trkpt lat="44.69868" lon="7.08989">
        <ele>2204</ele>
        <time>2022-07-14T10:56:34Z</time>
      </trkpt>
      <trkpt lat="44.69875" lon="7.08992">
        <ele>2202</ele>
        <time>2022-07-14T10:56:47Z</time>
      </trkpt>
      <trkpt lat="44.69878" lon="7.08995">
        <ele>2201</ele>
        <time>2022-07-14T10:56:52Z</time>
      </trkpt>
      <trkpt lat="44.69882" lon="7.08994">
        <ele>2201</ele>
        <time>2022-07-14T10:56:56Z</time>
      </trkpt>
      <trkpt lat="44.69885" lon="7.08991">
        <ele>2200</ele>
        <time>2022-07-14T10:57:02Z</time>
      </trkpt>
      <trkpt lat="44.69889" lon="7.0899">
        <ele>2200</ele>
        <time>2022-07-14T10:57:08Z</time>
      </trkpt>
      <trkpt lat="44.69892" lon="7.08989">
        <ele>2198</ele>
        <time>2022-07-14T10:57:14Z</time>
      </trkpt>
      <trkpt lat="44.69896" lon="7.08992">
        <ele>2196</ele>
        <time>2022-07-14T10:57:20Z</time>
      </trkpt>
      <trkpt lat="44.69899" lon="7.08994">
        <ele>2194</ele>
        <time>2022-07-14T10:57:33Z</time>
      </trkpt>
      <trkpt lat="44.69902" lon="7.08997">
        <ele>2192</ele>
        <time>2022-07-14T10:57:40Z</time>
      </trkpt>
      <trkpt lat="44.69909" lon="7.08995">
        <ele>2189</ele>
        <time>2022-07-14T10:57:54Z</time>
      </trkpt>
      <trkpt lat="44.69913" lon="7.08994">
        <ele>2188</ele>
        <time>2022-07-14T10:58:01Z</time>
      </trkpt>
      <trkpt lat="44.6992" lon="7.0899">
        <ele>2188</ele>
        <time>2022-07-14T10:58:14Z</time>
      </trkpt>
      <trkpt lat="44.69922" lon="7.08986">
        <ele>2188</ele>
        <time>2022-07-14T10:58:19Z</time>
      </trkpt>
      <trkpt lat="44.69926" lon="7.08983">
        <ele>2186</ele>
        <time>2022-07-14T10:58:25Z</time>
      </trkpt>
      <trkpt lat="44.69937" lon="7.08988">
        <ele>2185</ele>
        <time>2022-07-14T10:58:42Z</time>
      </trkpt>
      <trkpt lat="44.69941" lon="7.08988">
        <ele>2183</ele>
        <time>2022-07-14T10:58:48Z</time>
      </trkpt>
      <trkpt lat="44.69944" lon="7.08991">
        <ele>2182</ele>
        <time>2022-07-14T10:58:56Z</time>
      </trkpt>
      <trkpt lat="44.69947" lon="7.08992">
        <ele>2181</ele>
        <time>2022-07-14T10:59:02Z</time>
      </trkpt>
      <trkpt lat="44.69951" lon="7.08992">
        <ele>2180</ele>
        <time>2022-07-14T10:59:08Z</time>
      </trkpt>
      <trkpt lat="44.69954" lon="7.08989">
        <ele>2177</ele>
        <time>2022-07-14T10:59:17Z</time>
      </trkpt>
      <trkpt lat="44.69957" lon="7.08985">
        <ele>2176</ele>
        <time>2022-07-14T10:59:23Z</time>
      </trkpt>
      <trkpt lat="44.6996" lon="7.08981">
        <ele>2174</ele>
        <time>2022-07-14T10:59:31Z</time>
      </trkpt>
      <trkpt lat="44.69964" lon="7.08982">
        <ele>2173</ele>
        <time>2022-07-14T10:59:42Z</time>
      </trkpt>
      <trkpt lat="44.69967" lon="7.08985">
        <ele>2172</ele>
        <time>2022-07-14T10:59:48Z</time>
      </trkpt>
      <trkpt lat="44.69975" lon="7.08984">
        <ele>2169</ele>
        <time>2022-07-14T11:00:03Z</time>
      </trkpt>
      <trkpt lat="44.69978" lon="7.08982">
        <ele>2169</ele>
        <time>2022-07-14T11:00:10Z</time>
      </trkpt>
      <trkpt lat="44.69981" lon="7.08979">
        <ele>2167</ele>
        <time>2022-07-14T11:00:17Z</time>
      </trkpt>
      <trkpt lat="44.69984" lon="7.08979">
        <ele>2166</ele>
        <time>2022-07-14T11:00:26Z</time>
      </trkpt>
      <trkpt lat="44.69987" lon="7.08975">
        <ele>2165</ele>
        <time>2022-07-14T11:00:32Z</time>
      </trkpt>
      <trkpt lat="44.6999" lon="7.08973">
        <ele>2164</ele>
        <time>2022-07-14T11:00:39Z</time>
      </trkpt>
      <trkpt lat="44.69994" lon="7.08973">
        <ele>2163</ele>
        <time>2022-07-14T11:00:46Z</time>
      </trkpt>
      <trkpt lat="44.70001" lon="7.08971">
        <ele>2160</ele>
        <time>2022-07-14T11:00:56Z</time>
      </trkpt>
      <trkpt lat="44.70005" lon="7.08973">
        <ele>2160</ele>
        <time>2022-07-14T11:01:02Z</time>
      </trkpt>
      <trkpt lat="44.70008" lon="7.0897">
        <ele>2159</ele>
        <time>2022-07-14T11:01:06Z</time>
      </trkpt>
      <trkpt lat="44.70018" lon="7.08967">
        <ele>2158</ele>
        <time>2022-07-14T11:01:23Z</time>
      </trkpt>
      <trkpt lat="44.70022" lon="7.08969">
        <ele>2156</ele>
        <time>2022-07-14T11:01:31Z</time>
      </trkpt>
      <trkpt lat="44.70025" lon="7.08971">
        <ele>2153</ele>
        <time>2022-07-14T11:03:27Z</time>
      </trkpt>
      <trkpt lat="44.70026" lon="7.08976">
        <ele>2149</ele>
        <time>2022-07-14T11:03:35Z</time>
      </trkpt>
      <trkpt lat="44.70034" lon="7.08977">
        <ele>2144</ele>
        <time>2022-07-14T11:03:47Z</time>
      </trkpt>
      <trkpt lat="44.70037" lon="7.08978">
        <ele>2143</ele>
        <time>2022-07-14T11:03:54Z</time>
      </trkpt>
      <trkpt lat="44.70035" lon="7.08982">
        <ele>2142</ele>
        <time>2022-07-14T11:04:02Z</time>
      </trkpt>
      <trkpt lat="44.70038" lon="7.08986">
        <ele>2140</ele>
        <time>2022-07-14T11:04:11Z</time>
      </trkpt>
      <trkpt lat="44.70042" lon="7.08987">
        <ele>2138</ele>
        <time>2022-07-14T11:04:18Z</time>
      </trkpt>
      <trkpt lat="44.70044" lon="7.08991">
        <ele>2136</ele>
        <time>2022-07-14T11:04:26Z</time>
      </trkpt>
      <trkpt lat="44.70054" lon="7.08998">
        <ele>2132</ele>
        <time>2022-07-14T11:04:50Z</time>
      </trkpt>
      <trkpt lat="44.70058" lon="7.08998">
        <ele>2129</ele>
        <time>2022-07-14T11:04:56Z</time>
      </trkpt>
      <trkpt lat="44.70061" lon="7.09002">
        <ele>2128</ele>
        <time>2022-07-14T11:05:05Z</time>
      </trkpt>
      <trkpt lat="44.70067" lon="7.09008">
        <ele>2125</ele>
        <time>2022-07-14T11:05:18Z</time>
      </trkpt>
      <trkpt lat="44.70071" lon="7.0901">
        <ele>2123</ele>
        <time>2022-07-14T11:05:24Z</time>
      </trkpt>
      <trkpt lat="44.70074" lon="7.09011">
        <ele>2122</ele>
        <time>2022-07-14T11:05:31Z</time>
      </trkpt>
      <trkpt lat="44.70072" lon="7.09015">
        <ele>2120</ele>
        <time>2022-07-14T11:05:37Z</time>
      </trkpt>
      <trkpt lat="44.70069" lon="7.09018">
        <ele>2118</ele>
        <time>2022-07-14T11:05:42Z</time>
      </trkpt>
      <trkpt lat="44.70072" lon="7.09023">
        <ele>2117</ele>
        <time>2022-07-14T11:05:49Z</time>
      </trkpt>
      <trkpt lat="44.70075" lon="7.09022">
        <ele>2116</ele>
        <time>2022-07-14T11:05:54Z</time>
      </trkpt>
      <trkpt lat="44.70078" lon="7.09023">
        <ele>2115</ele>
        <time>2022-07-14T11:05:58Z</time>
      </trkpt>
      <trkpt lat="44.70081" lon="7.09026">
        <ele>2114</ele>
        <time>2022-07-14T11:06:05Z</time>
      </trkpt>
      <trkpt lat="44.7009" lon="7.09026">
        <ele>2112</ele>
        <time>2022-07-14T11:06:15Z</time>
      </trkpt>
      <trkpt lat="44.70087" lon="7.0903">
        <ele>2112</ele>
        <time>2022-07-14T11:06:20Z</time>
      </trkpt>
      <trkpt lat="44.70084" lon="7.09033">
        <ele>2110</ele>
        <time>2022-07-14T11:06:25Z</time>
      </trkpt>
      <trkpt lat="44.70078" lon="7.09039">
        <ele>2107</ele>
        <time>2022-07-14T11:06:35Z</time>
      </trkpt>
      <trkpt lat="44.70075" lon="7.09041">
        <ele>2106</ele>
        <time>2022-07-14T11:06:40Z</time>
      </trkpt>
      <trkpt lat="44.70085" lon="7.09048">
        <ele>2100</ele>
        <time>2022-07-14T11:07:07Z</time>
      </trkpt>
      <trkpt lat="44.70086" lon="7.09053">
        <ele>2098</ele>
        <time>2022-07-14T11:07:15Z</time>
      </trkpt>
      <trkpt lat="44.70084" lon="7.09057">
        <ele>2097</ele>
        <time>2022-07-14T11:07:22Z</time>
      </trkpt>
      <trkpt lat="44.70075" lon="7.09067">
        <ele>2093</ele>
        <time>2022-07-14T11:07:39Z</time>
      </trkpt>
      <trkpt lat="44.70079" lon="7.0907">
        <ele>2092</ele>
        <time>2022-07-14T11:07:54Z</time>
      </trkpt>
      <trkpt lat="44.7008" lon="7.09075">
        <ele>2088</ele>
        <time>2022-07-14T11:08:05Z</time>
      </trkpt>
      <trkpt lat="44.70077" lon="7.09079">
        <ele>2087</ele>
        <time>2022-07-14T11:08:12Z</time>
      </trkpt>
      <trkpt lat="44.7008" lon="7.09082">
        <ele>2085</ele>
        <time>2022-07-14T11:08:23Z</time>
      </trkpt>
      <trkpt lat="44.70078" lon="7.09086">
        <ele>2082</ele>
        <time>2022-07-14T11:08:32Z</time>
      </trkpt>
      <trkpt lat="44.70077" lon="7.09091">
        <ele>2081</ele>
        <time>2022-07-14T11:08:41Z</time>
      </trkpt>
      <trkpt lat="44.7008" lon="7.09095">
        <ele>2078</ele>
        <time>2022-07-14T11:08:46Z</time>
      </trkpt>
      <trkpt lat="44.70085" lon="7.09095">
        <ele>2077</ele>
        <time>2022-07-14T11:08:52Z</time>
      </trkpt>
      <trkpt lat="44.70083" lon="7.09099">
        <ele>2077</ele>
        <time>2022-07-14T11:09:05Z</time>
      </trkpt>
      <trkpt lat="44.7008" lon="7.09102">
        <ele>2076</ele>
        <time>2022-07-14T11:09:09Z</time>
      </trkpt>
      <trkpt lat="44.70077" lon="7.09104">
        <ele>2074</ele>
        <time>2022-07-14T11:09:14Z</time>
      </trkpt>
      <trkpt lat="44.7008" lon="7.09107">
        <ele>2073</ele>
        <time>2022-07-14T11:09:23Z</time>
      </trkpt>
      <trkpt lat="44.7008" lon="7.09112">
        <ele>2072</ele>
        <time>2022-07-14T11:09:32Z</time>
      </trkpt>
      <trkpt lat="44.70081" lon="7.09117">
        <ele>2071</ele>
        <time>2022-07-14T11:09:42Z</time>
      </trkpt>
      <trkpt lat="44.70079" lon="7.09122">
        <ele>2069</ele>
        <time>2022-07-14T11:09:55Z</time>
      </trkpt>
      <trkpt lat="44.70076" lon="7.09125">
        <ele>2067</ele>
        <time>2022-07-14T11:10:01Z</time>
      </trkpt>
      <trkpt lat="44.70078" lon="7.0913">
        <ele>2066</ele>
        <time>2022-07-14T11:10:10Z</time>
      </trkpt>
      <trkpt lat="44.70078" lon="7.09134">
        <ele>2060</ele>
        <time>2022-07-14T11:10:25Z</time>
      </trkpt>
      <trkpt lat="44.7008" lon="7.09138">
        <ele>2058</ele>
        <time>2022-07-14T11:10:37Z</time>
      </trkpt>
      <trkpt lat="44.70077" lon="7.09141">
        <ele>2054</ele>
        <time>2022-07-14T11:10:44Z</time>
      </trkpt>
      <trkpt lat="44.70073" lon="7.0915">
        <ele>2050</ele>
        <time>2022-07-14T11:11:01Z</time>
      </trkpt>
      <trkpt lat="44.70078" lon="7.09156">
        <ele>2047</ele>
        <time>2022-07-14T11:11:23Z</time>
      </trkpt>
      <trkpt lat="44.70081" lon="7.09159">
        <ele>2045</ele>
        <time>2022-07-14T11:11:30Z</time>
      </trkpt>
      <trkpt lat="44.70084" lon="7.09162">
        <ele>2043</ele>
        <time>2022-07-14T11:11:39Z</time>
      </trkpt>
      <trkpt lat="44.70086" lon="7.09167">
        <ele>2042</ele>
        <time>2022-07-14T11:11:49Z</time>
      </trkpt>
      <trkpt lat="44.70093" lon="7.09179">
        <ele>2039</ele>
        <time>2022-07-14T11:12:04Z</time>
      </trkpt>
      <trkpt lat="44.70093" lon="7.09185">
        <ele>2038</ele>
        <time>2022-07-14T11:12:09Z</time>
      </trkpt>
      <trkpt lat="44.70091" lon="7.09189">
        <ele>2037</ele>
        <time>2022-07-14T11:12:13Z</time>
      </trkpt>
      <trkpt lat="44.70083" lon="7.09199">
        <ele>2035</ele>
        <time>2022-07-14T11:12:25Z</time>
      </trkpt>
      <trkpt lat="44.70079" lon="7.09209">
        <ele>2035</ele>
        <time>2022-07-14T11:12:35Z</time>
      </trkpt>
      <trkpt lat="44.70078" lon="7.09214">
        <ele>2035</ele>
        <time>2022-07-14T11:12:39Z</time>
      </trkpt>
      <trkpt lat="44.70078" lon="7.09219">
        <ele>2034</ele>
        <time>2022-07-14T11:12:55Z</time>
      </trkpt>
      <trkpt lat="44.70075" lon="7.09221">
        <ele>2033</ele>
        <time>2022-07-14T11:12:59Z</time>
      </trkpt>
      <trkpt lat="44.70069" lon="7.09228">
        <ele>2032</ele>
        <time>2022-07-14T11:13:09Z</time>
      </trkpt>
      <trkpt lat="44.70068" lon="7.09233">
        <ele>2031</ele>
        <time>2022-07-14T11:13:14Z</time>
      </trkpt>
      <trkpt lat="44.70068" lon="7.09238">
        <ele>2030</ele>
        <time>2022-07-14T11:13:19Z</time>
      </trkpt>
      <trkpt lat="44.70066" lon="7.09243">
        <ele>2029</ele>
        <time>2022-07-14T11:13:25Z</time>
      </trkpt>
      <trkpt lat="44.70064" lon="7.09247">
        <ele>2028</ele>
        <time>2022-07-14T11:13:29Z</time>
      </trkpt>
      <trkpt lat="44.70063" lon="7.09253">
        <ele>2027</ele>
        <time>2022-07-14T11:13:35Z</time>
      </trkpt>
      <trkpt lat="44.70059" lon="7.09255">
        <ele>2027</ele>
        <time>2022-07-14T11:13:39Z</time>
      </trkpt>
      <trkpt lat="44.70057" lon="7.09259">
        <ele>2026</ele>
        <time>2022-07-14T11:13:43Z</time>
      </trkpt>
      <trkpt lat="44.7005" lon="7.09273">
        <ele>2025</ele>
        <time>2022-07-14T11:13:56Z</time>
      </trkpt>
      <trkpt lat="44.70048" lon="7.09279">
        <ele>2026</ele>
        <time>2022-07-14T11:14:01Z</time>
      </trkpt>
      <trkpt lat="44.70046" lon="7.09283">
        <ele>2026</ele>
        <time>2022-07-14T11:14:05Z</time>
      </trkpt>
      <trkpt lat="44.70044" lon="7.09287">
        <ele>2026</ele>
        <time>2022-07-14T11:14:09Z</time>
      </trkpt>
      <trkpt lat="44.70043" lon="7.09292">
        <ele>2025</ele>
        <time>2022-07-14T11:14:13Z</time>
      </trkpt>
      <trkpt lat="44.70044" lon="7.09298">
        <ele>2024</ele>
        <time>2022-07-14T11:14:18Z</time>
      </trkpt>
      <trkpt lat="44.70046" lon="7.09308">
        <ele>2023</ele>
        <time>2022-07-14T11:14:26Z</time>
      </trkpt>
      <trkpt lat="44.70047" lon="7.09312">
        <ele>2023</ele>
        <time>2022-07-14T11:14:30Z</time>
      </trkpt>
      <trkpt lat="44.70049" lon="7.09317">
        <ele>2022</ele>
        <time>2022-07-14T11:14:34Z</time>
      </trkpt>
      <trkpt lat="44.70053" lon="7.09317">
        <ele>2021</ele>
        <time>2022-07-14T11:14:38Z</time>
      </trkpt>
      <trkpt lat="44.70049" lon="7.09322">
        <ele>2021</ele>
        <time>2022-07-14T11:14:43Z</time>
      </trkpt>
      <trkpt lat="44.70055" lon="7.09332">
        <ele>2021</ele>
        <time>2022-07-14T11:14:51Z</time>
      </trkpt>
      <trkpt lat="44.70057" lon="7.09336">
        <ele>2020</ele>
        <time>2022-07-14T11:14:55Z</time>
      </trkpt>
      <trkpt lat="44.7006" lon="7.09347">
        <ele>2019</ele>
        <time>2022-07-14T11:15:04Z</time>
      </trkpt>
      <trkpt lat="44.70063" lon="7.0935">
        <ele>2019</ele>
        <time>2022-07-14T11:15:10Z</time>
      </trkpt>
      <trkpt lat="44.70072" lon="7.09349">
        <ele>2019</ele>
        <time>2022-07-14T11:15:17Z</time>
      </trkpt>
      <trkpt lat="44.70076" lon="7.09348">
        <ele>2020</ele>
        <time>2022-07-14T11:15:21Z</time>
      </trkpt>
      <trkpt lat="44.7008" lon="7.09348">
        <ele>2021</ele>
        <time>2022-07-14T11:15:25Z</time>
      </trkpt>
      <trkpt lat="44.70083" lon="7.09351">
        <ele>2021</ele>
        <time>2022-07-14T11:15:29Z</time>
      </trkpt>
      <trkpt lat="44.70089" lon="7.09363">
        <ele>2021</ele>
        <time>2022-07-14T11:15:41Z</time>
      </trkpt>
      <trkpt lat="44.70091" lon="7.09368">
        <ele>2021</ele>
        <time>2022-07-14T11:15:45Z</time>
      </trkpt>
      <trkpt lat="44.70093" lon="7.09373">
        <ele>2022</ele>
        <time>2022-07-14T11:15:51Z</time>
      </trkpt>
      <trkpt lat="44.70093" lon="7.09378">
        <ele>2022</ele>
        <time>2022-07-14T11:15:54Z</time>
      </trkpt>
      <trkpt lat="44.70091" lon="7.09382">
        <ele>2023</ele>
        <time>2022-07-14T11:15:58Z</time>
      </trkpt>
      <trkpt lat="44.70094" lon="7.09383">
        <ele>2022</ele>
        <time>2022-07-14T11:16:00Z</time>
      </trkpt>
      <trkpt lat="44.70098" lon="7.09384">
        <ele>2021</ele>
        <time>2022-07-14T11:16:08Z</time>
      </trkpt>
      <trkpt lat="44.70102" lon="7.09385">
        <ele>2020</ele>
        <time>2022-07-14T11:16:14Z</time>
      </trkpt>
      <trkpt lat="44.70113" lon="7.09414">
        <ele>2020</ele>
        <time>2022-07-14T11:16:38Z</time>
      </trkpt>
      <trkpt lat="44.70124" lon="7.09431">
        <ele>2019</ele>
        <time>2022-07-14T11:16:54Z</time>
      </trkpt>
      <trkpt lat="44.70125" lon="7.09435">
        <ele>2019</ele>
        <time>2022-07-14T11:16:57Z</time>
      </trkpt>
      <trkpt lat="44.70127" lon="7.0944">
        <ele>2018</ele>
        <time>2022-07-14T11:17:01Z</time>
      </trkpt>
      <trkpt lat="44.70123" lon="7.09487">
        <ele>2016</ele>
        <time>2022-07-14T11:17:32Z</time>
      </trkpt>
      <trkpt lat="44.70124" lon="7.09492">
        <ele>2016</ele>
        <time>2022-07-14T11:17:36Z</time>
      </trkpt>
      <trkpt lat="44.70127" lon="7.09495">
        <ele>2016</ele>
        <time>2022-07-14T11:17:40Z</time>
      </trkpt>
      <trkpt lat="44.70129" lon="7.095">
        <ele>2015</ele>
        <time>2022-07-14T11:17:45Z</time>
      </trkpt>
      <trkpt lat="44.7013" lon="7.0951">
        <ele>2015</ele>
        <time>2022-07-14T11:18:03Z</time>
      </trkpt>
      <trkpt lat="44.70125" lon="7.0951">
        <ele>2016</ele>
        <time>2022-07-14T11:18:05Z</time>
      </trkpt>
      <trkpt lat="44.70121" lon="7.09527">
        <ele>2016</ele>
        <time>2022-07-14T11:18:17Z</time>
      </trkpt>
      <trkpt lat="44.70117" lon="7.09536">
        <ele>2016</ele>
        <time>2022-07-14T11:18:24Z</time>
      </trkpt>
      <trkpt lat="44.7011" lon="7.09539">
        <ele>2017</ele>
        <time>2022-07-14T11:18:30Z</time>
      </trkpt>
      <trkpt lat="44.70106" lon="7.09541">
        <ele>2017</ele>
        <time>2022-07-14T11:18:34Z</time>
      </trkpt>
      <trkpt lat="44.70103" lon="7.09538">
        <ele>2018</ele>
        <time>2022-07-14T11:18:38Z</time>
      </trkpt>
      <trkpt lat="44.70101" lon="7.09542">
        <ele>2018</ele>
        <time>2022-07-14T11:19:32Z</time>
      </trkpt>
      <trkpt lat="44.70097" lon="7.09545">
        <ele>2019</ele>
        <time>2022-07-14T11:19:36Z</time>
      </trkpt>
      <trkpt lat="44.70094" lon="7.09548">
        <ele>2019</ele>
        <time>2022-07-14T11:19:40Z</time>
      </trkpt>
      <trkpt lat="44.70086" lon="7.09549">
        <ele>2019</ele>
        <time>2022-07-14T11:19:47Z</time>
      </trkpt>
      <trkpt lat="44.70082" lon="7.09551">
        <ele>2019</ele>
        <time>2022-07-14T11:19:51Z</time>
      </trkpt>
      <trkpt lat="44.70075" lon="7.09557">
        <ele>2020</ele>
        <time>2022-07-14T11:19:59Z</time>
      </trkpt>
      <trkpt lat="44.70069" lon="7.09564">
        <ele>2019</ele>
        <time>2022-07-14T11:20:07Z</time>
      </trkpt>
      <trkpt lat="44.7006" lon="7.09573">
        <ele>2021</ele>
        <time>2022-07-14T11:20:19Z</time>
      </trkpt>
      <trkpt lat="44.70056" lon="7.09576">
        <ele>2021</ele>
        <time>2022-07-14T11:20:23Z</time>
      </trkpt>
      <trkpt lat="44.70039" lon="7.09583">
        <ele>2023</ele>
        <time>2022-07-14T11:20:42Z</time>
      </trkpt>
      <trkpt lat="44.70036" lon="7.09586">
        <ele>2023</ele>
        <time>2022-07-14T11:20:46Z</time>
      </trkpt>
      <trkpt lat="44.70034" lon="7.09596">
        <ele>2024</ele>
        <time>2022-07-14T11:20:55Z</time>
      </trkpt>
      <trkpt lat="44.70032" lon="7.096">
        <ele>2025</ele>
        <time>2022-07-14T11:20:59Z</time>
      </trkpt>
      <trkpt lat="44.70031" lon="7.09605">
        <ele>2025</ele>
        <time>2022-07-14T11:21:04Z</time>
      </trkpt>
      <trkpt lat="44.70028" lon="7.09608">
        <ele>2026</ele>
        <time>2022-07-14T11:21:08Z</time>
      </trkpt>
      <trkpt lat="44.70026" lon="7.09612">
        <ele>2026</ele>
        <time>2022-07-14T11:21:12Z</time>
      </trkpt>
      <trkpt lat="44.70024" lon="7.09617">
        <ele>2026</ele>
        <time>2022-07-14T11:21:17Z</time>
      </trkpt>
      <trkpt lat="44.7002" lon="7.09616">
        <ele>2027</ele>
        <time>2022-07-14T11:21:20Z</time>
      </trkpt>
      <trkpt lat="44.70021" lon="7.0961">
        <ele>2026</ele>
        <time>2022-07-14T11:21:23Z</time>
      </trkpt>
      <trkpt lat="44.70016" lon="7.09607">
        <ele>2023</ele>
        <time>2022-07-14T11:21:35Z</time>
      </trkpt>
      <trkpt lat="44.70019" lon="7.09606">
        <ele>2022</ele>
        <time>2022-07-14T11:22:12Z</time>
      </trkpt>
      <trkpt lat="44.70021" lon="7.09624">
        <ele>2022</ele>
        <time>2022-07-14T11:24:52Z</time>
      </trkpt>
      <trkpt lat="44.70032" lon="7.0963">
        <ele>2022</ele>
        <time>2022-07-14T11:25:04Z</time>
      </trkpt>
      <trkpt lat="44.70034" lon="7.09622">
        <ele>2020</ele>
        <time>2022-07-14T11:25:17Z</time>
      </trkpt>
      <trkpt lat="44.70031" lon="7.09618">
        <ele>2018</ele>
        <time>2022-07-14T11:25:37Z</time>
      </trkpt>
      <trkpt lat="44.70027" lon="7.09613">
        <ele>2018</ele>
        <time>2022-07-14T11:25:43Z</time>
      </trkpt>
    </trkseg>
  </trk>
</gpx>